GFSGBSN_850_rhum_000.txt.gz
RH
100 100 100 95 90 74 62 86 84 89 92 89 88 75 72 38 34 50 44 54 55 56 60 56 64 72 64 86 81 63 64 62 59 66 85 91 88 81 78 69 68 79 66 62 61 57 52
98 99 99 99 100 93 76 53 88 87 91 87 90 86 78 63 34 53 53 63 67 64 63 65 64 79 78 92 43 51 68 72 72 62 68 78 80 73 78 72 71 60 62 63 57 53 51
94 100 100 96 97 100 91 67 78 86 85 86 85 90 85 78 40 48 62 68 74 74 67 61 70 72 86 66 55 56 60 59 67 70 62 81 67 90 80 77 66 63 69 61 58 59 54
98 97 94 95 100 97 100 90 62 83 82 81 85 86 89 69 60 44 58 96 76 87 80 80 70 84 85 60 54 64 65 63 72 72 66 68 59 79 70 72 69 75 73 86 60 58 58
100 98 99 96 100 99 98 93 83 77 81 80 78 85 88 74 75 54 86 88 84 73 81 86 88 83 80 70 62 54 63 63 64 66 64 63 59 61 63 83 86 86 94 80 70 57 59
96 86 98 99 98 97 100 98 97 76 81 85 84 78 82 83 79 69 85 82 88 94 87 92 88 97 82 66 60 58 60 67 64 62 60 63 65 78 87 88 89 72 84 72 69 65 64
93 91 87 99 100 93 96 99 100 93 81 83 85 91 91 84 77 69 88 91 88 90 93 77 80 78 63 68 66 61 65 72 69 70 79 64 89 88 80 83 78 82 84 78 69 55 66
87 83 91 99 98 99 75 97 96 100 84 88 89 91 97 92 81 69 90 86 82 82 92 79 76 79 65 71 73 69 67 75 74 90 78 84 87 69 69 72 78 83 84 85 67 55 62
80 74 90 98 98 100 98 80 68 93 92 85 90 93 98 95 84 79 85 92 82 81 94 82 72 92 82 69 76 74 70 72 70 74 70 87 65 55 68 76 81 81 82 76 80 64 53
82 78 71 92 99 100 100 91 78 89 100 87 91 96 99 98 95 74 88 97 85 84 97 76 85 84 85 80 80 70 67 68 74 81 74 76 66 68 67 75 72 86 65 67 68 81 91
87 90 72 92 99 95 92 93 89 78 98 95 92 99 100 94 76 72 69 82 79 94 74 66 84 78 82 81 73 76 71 68 85 84 81 81 81 81 75 69 60 74 55 60 66 74 84
85 86 82 97 99 92 87 84 96 94 86 94 100 100 100 100 73 61 70 78 96 96 92 93 81 86 87 80 73 74 76 74 78 76 76 74 62 66 66 56 53 60 66 65 69 80 91
87 79 86 93 90 99 94 78 93 88 96 90 100 100 99 83 71 71 89 99 97 95 62 88 89 88 82 86 80 75 92 95 99 99 99 98 93 74 72 80 65 62 74 94 97 96 82
87 84 80 76 92 99 95 96 99 96 94 92 94 100 100 89 72 78 94 94 94 65 83 78 79 86 91 73 86 76 90 95 88 97 100 95 98 86 75 73 77 74 70 86 91 97 78
87 81 82 78 88 97 96 99 99 94 86 96 99 99 100 92 82 80 83 98 82 72 77 86 83 93 92 87 77 86 92 88 69 95 95 97 92 75 72 65 61 78 84 59 78 74 90
93 88 79 93 88 96 97 100 99 97 96 100 99 100 96 83 87 84 89 76 80 67 81 78 94 89 93 82 91 90 88 70 81 74 71 78 97 80 72 70 68 71 60 82 81 100 92
89 92 85 79 88 91 96 98 98 99 99 97 100 99 100 84 99 96 96 88 76 77 75 83 94 96 86 81 86 83 83 70 72 65 74 83 92 98 91 90 84 86 82 70 61 77 98
91 90 88 85 88 82 93 100 99 97 99 96 100 100 95 100 98 96 97 76 63 77 78 79 84 93 90 76 89 85 82 59 58 59 89 75 94 97 80 68 74 65 67 63 68 66 73
93 90 89 82 87 79 98 100 98 100 97 100 97 99 95 100 97 97 82 73 67 79 80 78 91 83 78 70 78 71 62 46 50 63 76 78 99 98 97 90 88 95 63 61 55 67 99
92 91 90 85 87 80 98 98 100 98 100 94 93 98 99 99 90 80 81 82 82 71 69 72 84 81 86 79 64 64 65 53 46 52 58 70 95 100 92 100 86 90 82 69 82 77 71
92 90 91 83 90 90 93 98 97 99 100 97 93 94 87 97 98 85 78 78 82 83 78 83 90 91 88 88 75 76 60 48 58 70 79 83 100 100 94 94 99 88 80 78 94 74 76
94 90 91 84 89 88 92 95 98 99 100 97 93 93 78 80 80 91 84 88 82 79 84 92 95 78 82 88 60 56 57 62 61 77 89 92 99 100 99 85 87 94 85 81 82 88 88
91 91 90 83 84 94 92 89 96 99 95 96 93 88 69 84 82 92 88 82 85 76 79 74 83 84 81 81 65 64 61 55 57 77 84 92 99 100 100 88 84 95 79 84 92 89 88
92 92 88 88 84 95 88 91 94 99 99 100 100 88 85 92 88 85 79 81 86 82 80 83 82 85 70 67 62 68 65 74 61 58 58 80 90 92 100 94 84 47 57 72 84 78 82
90 90 92 90 85 95 96 96 96 98 99 100 100 86 78 93 76 78 78 80 74 85 90 82 86 79 74 74 86 90 94 87 73 64 70 64 72 91 90 86 60 43 43 61 62 62 48
90 90 90 92 87 98 91 95 98 97 97 100 100 86 79 92 92 76 78 74 86 86 90 91 86 83 81 87 95 100 97 80 85 86 71 69 67 80 91 83 68 45 41 38 38 61 43
92 93 90 88 86 94 96 92 97 99 100 100 100 100 94 92 80 78 81 80 80 87 92 95 97 99 94 93 97 99 93 76 93 85 89 85 84 89 89 95 78 54 42 41 54 55 44
91 93 91 88 89 93 99 95 96 99 99 99 100 100 97 88 83 80 78 82 89 86 94 92 100 98 99 98 96 96 77 92 88 80 83 85 89 86 81 93 92 49 38 38 46 50 56
90 82 92 89 91 92 94 94 93 92 99 100 100 100 100 98 94 88 83 85 87 80 88 97 99 94 85 91 90 94 85 94 70 95 68 85 77 80 83 79 58 50 47 51 43 52 59

GFSGBSN_850_rhum_003.txt.gz
RH
96 98 98 99 99 100 100 96 76 75 82 86 87 90 88 78 61 41 56 56 60 62 65 60 50 56 63 100 89 60 57 60 69 81 81 98 95 80 82 73 69 80 73 64 60 60 60
98 98 97 98 100 100 98 98 95 70 77 82 83 90 85 87 77 45 61 54 67 67 89 63 60 84 79 90 44 67 74 67 66 65 71 84 77 81 81 79 74 67 66 64 63 60 58
92 96 98 98 98 97 99 98 100 94 69 84 82 88 80 87 86 70 60 75 85 86 72 68 75 82 93 68 52 45 64 75 72 73 62 56 74 87 86 79 71 68 77 67 62 58 64
94 98 96 89 91 93 97 99 99 100 91 76 80 80 89 82 87 75 59 79 90 91 91 83 74 83 82 62 57 60 59 68 68 73 74 69 66 62 80 72 68 74 76 87 60 60 58
89 88 88 96 94 92 98 98 99 100 100 85 85 79 85 90 96 73 68 76 91 84 90 89 90 80 78 72 66 55 58 65 70 73 74 70 66 60 64 80 85 85 86 84 73 57 61
85 84 82 84 97 96 99 99 97 99 99 100 86 87 90 78 97 75 64 88 87 91 86 92 91 93 75 66 60 59 55 64 67 66 66 65 67 77 82 87 87 83 94 79 81 59 65
85 84 82 78 80 98 100 100 98 98 97 99 88 91 94 93 77 79 72 100 94 100 98 87 84 75 66 64 66 68 64 67 71 69 80 68 90 94 75 83 80 86 87 81 68 60 70
84 86 79 83 82 74 99 99 100 97 89 84 100 91 99 100 94 81 76 92 85 83 90 84 80 80 71 75 72 71 70 75 79 91 81 83 95 77 68 72 79 83 85 82 66 57 58
84 85 83 88 80 85 96 97 100 97 85 64 98 94 99 100 98 96 77 88 85 83 86 78 74 93 83 71 75 70 71 75 81 94 93 88 68 62 68 78 88 87 91 73 70 65 58
90 88 85 85 77 87 97 92 98 100 89 73 84 100 100 100 100 90 94 76 89 84 97 76 94 87 86 78 78 68 67 66 80 92 80 79 62 69 73 77 78 92 72 72 71 78 84
92 88 91 90 80 77 87 91 100 98 86 82 79 100 100 100 94 99 85 73 94 88 80 68 88 81 84 75 70 80 69 68 80 90 80 82 88 81 78 76 66 74 62 67 76 86 88
94 88 89 91 77 80 88 91 99 99 87 79 90 96 99 100 89 75 73 65 91 85 90 91 83 86 90 79 71 76 77 70 76 76 78 75 67 75 75 62 60 58 71 72 71 82 95
98 94 88 84 89 81 99 99 97 89 87 89 92 90 100 97 88 67 66 90 94 96 67 92 78 86 71 85 77 74 85 93 94 99 97 98 88 76 72 76 68 63 75 96 97 95 82
90 94 96 84 90 94 100 97 97 97 96 89 94 88 96 93 90 70 77 91 96 64 88 74 74 92 84 81 83 84 91 94 86 99 99 96 97 92 78 78 81 79 73 86 84 96 79
89 94 94 86 89 85 92 93 98 99 97 94 87 97 99 96 90 67 80 98 79 68 78 88 80 87 89 78 76 86 88 73 76 81 94 99 94 77 71 60 61 96 97 66 67 64 97
88 87 94 91 93 83 91 94 97 99 100 98 94 99 99 100 75 88 83 79 71 69 80 74 86 73 77 80 90 86 72 71 73 69 67 85 94 80 74 68 64 69 63 95 96 95 94
94 94 95 91 93 84 89 97 97 100 99 96 99 98 100 96 80 91 97 79 73 74 73 85 84 82 75 84 87 72 70 71 73 75 76 87 93 90 89 88 82 82 88 76 66 80 93
96 93 94 90 93 85 91 99 97 100 100 98 98 99 100 93 96 96 92 77 62 85 84 81 73 75 78 85 92 89 91 72 67 73 93 84 96 96 80 71 59 62 69 73 91 84 62
95 93 92 94 90 85 84 97 89 99 100 100 98 99 99 97 98 97 78 70 70 87 93 86 87 76 68 80 88 84 69 52 68 70 81 79 100 94 100 94 94 100 78 64 62 68 72
85 94 87 92 89 84 84 94 84 98 100 99 97 100 99 99 89 78 77 85 80 63 66 67 72 73 84 88 72 71 71 54 61 61 67 80 100 98 84 94 89 96 94 67 64 79 74
79 93 86 89 89 84 88 84 86 99 99 97 94 96 95 97 97 79 75 73 80 89 71 70 86 82 88 87 80 80 71 58 60 65 83 95 100 100 93 85 97 95 81 76 74 62 66
87 92 87 91 91 83 89 84 86 97 99 98 98 94 80 83 82 76 78 78 83 74 84 85 94 78 85 92 70 61 62 59 60 84 86 92 100 100 100 96 96 94 92 85 64 64 60
90 92 91 91 90 85 88 89 89 98 100 98 96 99 74 81 84 83 78 79 81 74 83 72 82 80 84 79 70 64 70 68 63 83 95 99 100 100 95 93 96 100 86 84 70 66 70
92 90 90 90 90 87 93 94 95 99 100 100 100 98 94 94 79 76 78 76 81 77 81 78 80 85 71 70 72 72 71 75 73 72 82 98 100 100 100 99 98 74 65 62 68 75 75
92 92 89 90 91 88 91 98 98 100 100 100 100 99 90 92 72 75 76 80 82 80 87 84 78 77 73 84 86 86 93 85 80 80 82 73 83 100 100 93 67 77 90 88 94 88 76
93 90 93 94 92 88 90 96 96 97 98 98 97 99 96 90 90 73 81 84 93 93 88 88 82 83 92 93 90 100 79 86 86 84 76 76 76 84 85 94 66 48 66 54 72 77 67
95 89 92 95 92 90 97 98 99 92 97 99 98 100 85 81 81 75 82 82 75 85 88 90 89 100 96 92 94 96 82 73 88 87 91 86 86 90 88 90 79 55 45 46 82 62 54
94 91 91 90 94 90 92 95 97 87 98 99 98 100 98 83 83 78 75 82 86 79 93 90 99 100 98 94 97 90 90 91 84 75 82 80 75 93 88 91 85 53 43 50 50 58 49
97 93 91 86 84 88 84 96 98 89 96 97 99 100 100 90 89 81 80 77 77 80 81 93 94 95 93 93 92 90 90 94 84 91 74 86 74 78 73 76 60 52 52 53 50 58 62

GFSGBSN_850_rhum_006.txt.gz
RH
94 98 100 92 96 100 99 98 93 100 99 69 80 79 92 92 89 81 42 53 61 73 79 77 80 65 87 100 94 58 61 63 68 86 100 98 94 79 81 78 74 83 79 70 66 62 61
93 92 96 92 92 96 100 98 98 99 94 98 66 81 80 94 85 85 62 52 56 72 84 74 79 86 77 96 64 78 65 65 72 95 99 100 87 82 83 82 76 71 72 71 63 64 64
92 92 91 94 97 100 99 100 98 98 100 98 94 81 82 91 89 84 83 53 63 74 84 80 76 89 99 73 55 50 79 74 67 76 75 74 84 82 90 86 76 73 81 73 67 61 66
92 91 90 90 86 87 94 100 100 92 97 98 100 81 90 84 96 82 82 77 81 85 91 89 71 85 86 65 62 60 59 73 72 70 70 68 72 64 86 78 69 75 77 92 63 65 62
88 89 89 86 86 88 87 87 98 98 95 99 98 99 88 93 98 91 79 79 82 96 86 98 98 82 81 71 71 56 64 67 67 71 70 74 70 63 71 81 83 82 92 88 70 57 62
93 86 86 84 81 86 82 80 95 99 98 97 100 99 96 94 99 100 87 78 78 87 86 90 97 95 76 67 64 64 59 66 70 72 72 70 68 81 83 87 94 86 90 77 72 60 66
86 85 85 85 83 84 83 81 92 96 100 99 94 99 98 94 98 100 87 91 99 96 90 80 84 77 67 71 65 63 63 65 69 69 84 70 93 90 74 79 74 86 92 92 76 61 69
87 93 88 91 91 88 81 79 92 93 97 100 99 94 93 100 100 100 86 70 75 73 92 82 80 84 76 76 75 71 70 72 76 90 79 81 91 76 71 77 82 85 89 86 76 61 65
90 91 89 94 94 89 84 82 85 77 89 90 98 92 66 100 100 100 83 75 76 74 80 72 79 92 77 76 77 74 73 77 84 95 88 87 67 65 74 82 88 90 92 86 83 63 56
95 93 92 90 87 88 89 88 88 78 79 93 88 66 70 99 100 97 97 81 82 70 90 69 97 82 85 81 80 68 68 71 81 89 85 93 72 73 78 82 82 92 77 78 79 84 94
93 92 94 90 91 88 92 92 91 97 90 100 79 66 69 96 100 100 81 88 75 73 87 71 94 88 87 71 69 84 73 69 91 89 81 78 82 84 84 76 72 71 68 78 80 90 92
95 92 83 92 92 92 89 98 98 100 93 90 86 66 81 93 100 94 77 81 79 83 85 91 86 92 91 78 75 84 78 69 71 74 77 74 69 72 75 65 64 61 75 75 77 79 92
92 92 78 76 93 87 89 94 91 98 98 100 90 76 79 92 100 94 88 88 93 89 68 94 83 86 78 85 79 78 82 91 93 99 98 94 89 73 74 79 72 72 89 97 98 97 88
96 84 91 74 80 95 94 91 91 86 97 97 91 89 82 96 98 97 76 83 86 66 82 73 68 76 84 78 72 82 88 94 84 92 100 97 94 89 76 76 82 80 78 91 88 92 86
87 83 90 88 92 90 90 88 92 96 99 99 89 96 99 80 100 88 81 82 76 67 79 87 77 82 85 79 79 86 89 81 68 91 98 97 93 80 79 67 67 98 97 69 74 62 90
98 84 89 92 89 91 91 90 95 98 100 99 100 93 98 96 100 97 76 80 65 66 78 75 87 78 86 84 91 96 84 68 72 74 68 84 96 76 80 72 68 88 77 98 97 96 94
96 88 89 93 88 91 92 90 95 99 98 99 100 98 94 82 98 98 97 80 67 76 69 77 80 84 65 69 81 84 69 65 72 70 73 88 96 85 90 93 80 92 96 98 78 88 91
92 79 94 92 92 86 90 92 97 97 98 99 100 97 99 92 99 98 92 67 62 92 82 78 71 64 72 80 94 86 83 72 66 76 86 79 98 96 82 71 63 64 72 75 86 84 82
90 83 92 82 87 90 87 93 96 94 99 100 100 99 100 98 100 99 80 73 73 94 93 86 83 71 68 78 85 87 78 58 68 79 86 80 99 98 94 88 85 93 76 65 66 76 81
89 79 92 88 82 85 87 91 96 98 82 100 98 100 98 99 93 76 78 78 78 70 81 75 76 74 81 84 78 78 81 59 68 70 68 69 99 97 84 94 97 99 90 79 74 95 74
84 80 92 90 86 87 88 93 97 99 95 100 97 99 99 99 97 73 68 74 78 83 75 73 84 79 92 98 83 89 75 66 68 64 76 92 99 99 93 80 99 100 97 89 95 78 77
79 80 92 86 87 89 90 94 99 98 100 100 99 93 85 86 79 74 77 85 85 75 80 83 86 77 86 94 77 69 74 73 81 72 82 93 98 100 98 98 97 100 96 96 95 75 67
84 92 94 92 89 92 90 88 99 100 98 99 97 99 70 80 81 82 81 82 76 74 69 75 80 86 90 80 76 74 68 69 72 78 96 98 100 100 94 96 97 99 91 81 78 81 63
90 86 90 93 95 91 89 92 98 100 100 100 98 100 91 93 77 75 74 71 83 79 80 80 80 84 71 71 72 78 78 80 80 80 79 98 100 100 97 100 98 81 76 70 72 70 64
95 91 92 87 94 90 89 98 98 99 99 100 100 100 97 90 73 72 80 81 73 79 86 83 77 75 73 76 91 91 84 88 84 86 88 80 99 100 100 99 82 82 84 77 80 77 60
97 89 91 90 94 92 88 82 88 91 99 99 100 98 100 89 83 65 76 84 94 95 92 87 82 86 82 93 94 95 91 78 87 83 83 92 81 97 92 99 77 58 85 82 75 93 68
99 93 92 91 90 92 89 92 87 90 97 99 99 96 100 88 77 67 76 84 80 85 87 88 86 88 89 95 96 97 96 74 93 90 91 94 95 96 88 85 81 59 58 71 90 65 61
83 85 94 91 84 87 79 86 92 93 96 99 99 99 100 90 86 78 77 80 82 78 88 92 93 98 99 99 99 98 99 89 87 74 86 89 87 89 89 93 74 56 61 72 59 53 57
85 76 84 91 82 79 77 88 91 98 96 98 98 100 100 95 86 81 77 76 74 75 73 88 90 93 91 98 94 91 95 93 88 88 78 90 75 78 80 73 58 55 56 54 54 57 58

GFSGBSN_850_rhum_009.txt.gz
RH
93 93 94 94 94 93 95 100 100 98 98 98 98 94 80 85 90 87 87 77 41 54 76 67 59 66 88 99 94 70 68 68 75 98 96 91 89 71 77 79 76 84 79 73 69 67 67
92 92 92 94 93 92 92 90 97 99 98 98 97 98 86 86 85 96 87 82 41 55 80 79 71 78 75 96 82 84 68 58 70 94 94 95 86 82 79 82 76 72 76 73 68 65 65
92 93 92 92 91 88 91 90 90 86 100 100 100 99 100 85 87 98 87 82 51 58 77 86 72 80 91 70 53 53 78 71 65 99 99 99 91 80 85 88 81 73 81 70 69 66 63
92 92 88 89 88 91 88 88 86 83 97 98 98 100 99 96 90 96 96 82 60 74 84 88 71 79 80 66 64 62 72 78 88 81 74 69 75 82 86 80 71 76 75 84 62 65 62
88 88 93 87 91 92 92 91 88 82 94 98 96 97 99 100 99 92 100 87 61 92 89 99 97 82 76 71 69 64 59 76 77 75 74 73 71 66 79 84 84 82 84 86 70 60 58
95 89 91 90 91 93 93 93 89 85 82 90 88 88 98 98 100 99 100 94 80 95 93 93 100 94 84 70 72 70 67 66 63 73 74 74 71 80 80 82 84 83 95 81 74 59 63
92 83 83 89 97 90 90 89 87 84 93 88 86 84 83 87 100 97 100 99 98 99 90 78 84 83 74 74 70 71 65 70 68 72 87 74 88 85 75 75 71 84 88 88 76 61 69
93 91 93 94 91 94 93 90 89 91 88 79 75 84 80 82 95 100 100 94 73 55 92 77 88 87 82 76 77 76 70 69 72 88 80 84 90 71 70 76 79 82 86 82 62 63 65
97 100 98 95 93 90 92 90 87 92 89 88 82 92 94 91 76 100 99 88 66 60 66 70 83 93 76 77 75 78 74 75 83 93 89 88 72 66 72 80 84 71 77 69 66 65 60
98 96 95 95 94 88 93 87 92 94 94 98 98 90 98 98 87 94 100 94 72 64 82 65 91 87 88 78 74 68 73 70 83 87 74 75 66 75 85 87 81 83 72 75 79 84 82
97 99 98 96 93 85 87 90 93 96 90 82 91 86 96 99 98 99 96 87 69 49 68 72 93 89 87 75 70 83 78 71 92 90 86 76 83 92 87 75 74 74 67 73 79 89 93
97 100 97 95 91 88 89 89 91 93 96 88 90 99 97 99 85 94 100 92 68 78 80 92 93 92 88 78 79 86 83 71 70 77 78 75 70 69 73 68 67 63 79 77 78 86 95
100 100 98 92 94 83 88 94 92 93 93 96 98 96 99 99 95 84 100 96 94 82 66 97 91 90 75 89 81 78 84 89 91 98 96 77 80 75 70 77 73 72 99 92 96 96 83
97 100 96 81 91 79 89 91 88 86 94 100 99 97 85 90 87 98 100 98 94 65 79 69 64 82 84 72 75 81 82 91 79 90 92 97 86 76 75 73 78 83 83 88 89 82 73
96 98 93 78 94 78 92 89 91 84 94 100 99 87 93 94 87 100 98 98 75 70 80 75 72 84 88 72 72 74 84 84 74 81 95 97 85 76 82 73 64 97 95 66 94 86 95
92 86 83 89 92 77 93 92 87 92 91 100 99 98 99 95 81 99 100 88 63 75 71 71 88 74 83 81 89 85 89 74 73 72 66 79 93 76 78 75 73 84 79 94 97 95 91
96 77 82 84 92 77 83 91 90 94 96 99 97 96 99 98 86 100 100 79 69 75 66 74 80 86 76 84 83 93 76 62 73 82 73 81 94 84 86 91 77 90 99 100 98 96 86
93 91 78 87 81 72 74 91 96 96 98 100 100 100 96 94 98 100 99 67 73 85 80 80 68 69 72 72 83 76 80 67 65 77 95 77 89 97 85 70 64 63 72 73 90 86 88
88 90 90 87 77 77 88 90 97 97 98 98 99 99 99 96 100 100 89 79 82 93 87 78 79 70 67 76 88 84 78 61 70 76 85 81 97 98 86 85 74 93 77 72 72 74 90
68 92 92 87 84 84 86 95 97 99 99 100 98 100 99 98 97 88 81 80 83 78 87 78 80 75 80 80 69 81 84 64 68 71 70 70 90 91 74 72 99 100 87 88 96 92 74
70 92 94 92 86 88 88 95 98 99 100 100 99 100 97 100 98 77 71 72 84 87 74 76 82 74 80 94 86 92 81 70 75 71 73 84 99 98 90 77 91 100 97 95 98 82 82
72 95 95 93 89 94 89 88 96 100 100 98 99 98 91 92 82 71 78 78 78 80 81 85 80 75 80 90 72 77 73 76 73 77 83 86 98 100 96 92 97 98 98 96 90 81 74
88 78 93 93 85 97 89 92 95 99 100 99 99 100 98 79 76 78 83 77 82 74 71 72 76 76 86 78 70 69 75 72 72 76 86 98 100 100 91 74 100 99 94 95 91 82 80
98 97 94 92 91 91 91 84 94 97 99 100 100 100 97 92 76 74 72 74 78 75 84 81 77 84 72 75 75 79 81 88 85 79 73 98 100 100 97 98 98 95 77 73 78 67 70
84 97 93 94 88 86 96 72 87 89 98 100 100 100 100 90 77 74 76 68 70 81 82 80 77 74 74 77 86 95 92 88 90 89 88 82 94 100 100 100 92 62 71 81 81 78 61
94 95 90 96 96 80 85 89 72 81 94 99 100 100 100 92 84 63 79 82 94 90 90 85 81 81 86 92 91 100 93 77 85 81 93 88 88 98 100 98 96 56 78 65 70 81 62
91 95 88 82 85 80 83 80 79 49 81 99 100 100 100 100 79 66 80 88 78 86 88 83 85 91 93 95 98 98 96 76 92 89 91 98 98 99 97 96 80 63 61 74 80 70 66
50 80 91 85 75 77 82 83 86 35 70 98 100 100 100 100 88 72 68 74 83 79 88 84 92 95 99 99 99 97 94 90 91 76 87 87 97 97 88 94 79 59 75 82 63 57 61
34 39 92 67 77 77 83 94 76 42 83 88 97 99 100 100 90 82 76 70 71 69 72 84 86 90 91 90 97 94 91 90 89 90 80 92 75 78 82 73 58 56 58 52 60 63 62

GFSGBSN_850_rhum_012.txt.gz
RH
93 94 94 93 93 94 92 94 91 93 91 93 100 98 99 94 84 88 98 86 81 40 52 65 62 76 93 96 92 75 69 76 80 96 98 88 71 59 56 52 58 58 44 51 52 57 54
91 91 92 90 93 91 94 92 91 90 86 85 99 98 100 98 91 87 93 93 82 50 52 78 66 64 86 83 83 85 67 64 75 91 97 94 85 74 61 56 56 53 58 56 55 51 49
92 93 92 94 90 89 85 87 89 90 88 82 93 92 96 98 99 91 94 100 84 55 55 90 77 76 87 65 61 66 79 78 74 98 96 97 86 74 70 62 68 61 61 46 43 44 46
98 95 93 90 89 92 93 92 90 92 91 86 80 95 91 97 99 100 96 100 85 56 62 79 75 74 77 66 65 55 66 81 88 80 97 86 90 80 66 69 55 57 56 56 40 47 43
94 96 83 91 91 94 93 91 93 91 90 88 89 90 82 92 95 99 100 99 93 61 81 94 88 78 72 69 69 61 64 77 89 75 79 87 74 61 66 55 55 52 48 56 48 42 44
93 89 93 94 91 86 92 92 89 92 88 88 93 81 86 72 86 96 100 99 97 91 97 99 98 88 86 76 72 71 62 75 75 74 72 70 67 58 57 61 54 47 60 50 47 41 49
90 98 94 95 88 91 91 92 90 94 91 86 86 93 73 83 72 84 99 100 100 100 100 75 78 73 81 78 76 76 70 71 70 71 70 69 78 76 55 52 47 55 56 54 47 48 52
95 97 98 97 90 90 92 93 94 92 91 79 79 85 82 83 82 86 97 100 84 66 87 92 81 84 82 82 77 85 73 62 60 62 60 72 84 53 50 52 58 59 61 56 45 42 49
99 100 100 95 94 96 82 93 95 93 88 80 83 85 87 77 84 72 89 99 78 61 60 94 90 85 82 77 68 78 75 68 59 70 67 63 58 54 60 63 68 61 62 56 55 47 46
96 92 86 87 94 84 80 94 94 94 83 91 92 89 86 96 76 87 92 96 96 78 94 74 88 86 82 78 67 78 72 66 68 64 64 63 50 63 64 65 59 64 47 52 60 64 66
99 93 96 97 87 78 88 94 82 90 91 82 99 91 89 92 97 82 97 96 95 95 94 66 87 91 84 60 67 85 81 70 66 66 65 64 70 73 78 66 57 61 53 54 56 62 64
96 96 94 82 79 84 93 92 92 92 90 82 94 91 95 89 93 67 91 100 99 93 88 85 88 92 87 69 73 83 79 69 64 63 65 56 59 55 53 55 56 53 59 61 58 66 89
94 92 83 77 83 92 94 89 90 86 92 84 95 100 100 99 96 71 93 100 98 92 60 93 84 82 69 72 78 70 79 86 76 95 92 64 63 56 55 63 58 60 74 72 80 90 64
94 83 78 82 95 91 94 93 90 87 93 94 99 100 82 96 85 98 98 99 95 57 62 62 71 66 69 64 77 71 79 88 67 67 76 78 71 62 58 62 56 67 63 63 62 43 41
87 80 90 94 90 93 93 93 94 86 82 93 100 99 99 91 99 98 99 98 89 54 61 66 75 77 81 61 61 71 76 70 62 66 83 89 76 59 60 54 56 71 90 55 72 56 79
90 92 91 92 90 91 90 91 89 95 97 96 98 95 96 95 99 97 99 99 62 62 55 55 70 58 69 71 67 67 70 56 58 54 48 60 83 56 56 65 62 65 55 86 90 79 66
94 85 91 92 89 74 89 87 99 99 95 97 98 97 99 99 98 97 100 89 76 60 56 60 67 65 57 67 62 64 60 54 54 60 54 58 64 69 74 81 61 80 89 94 73 72 70
96 84 92 90 76 72 95 91 97 95 98 100 100 100 100 98 99 99 100 69 69 69 76 64 53 55 57 62 69 64 65 53 51 63 75 58 68 85 70 46 46 44 54 61 92 78 88
99 79 88 90 89 90 96 92 90 98 100 99 99 99 100 91 99 100 90 73 77 75 74 66 66 56 53 63 73 58 60 51 59 58 60 62 91 90 72 68 58 70 56 54 80 84 88
100 94 86 89 90 89 93 87 89 99 100 98 99 100 98 94 91 75 71 72 81 77 75 66 68 61 60 62 58 68 67 58 57 54 62 59 66 85 66 66 61 100 78 77 96 92 68
98 99 85 91 91 91 93 68 79 99 98 98 100 98 97 100 86 60 59 68 75 76 71 66 68 61 62 70 69 68 64 62 62 64 63 65 100 92 77 66 77 89 85 93 99 79 80
93 100 98 91 92 90 90 70 76 90 95 97 98 98 90 86 74 57 70 68 68 76 67 72 68 64 63 66 65 69 66 66 62 62 66 71 89 97 96 79 78 97 88 94 97 94 69
93 87 90 90 90 89 70 51 87 84 97 98 99 99 99 87 74 63 67 63 63 63 70 68 64 68 76 69 63 65 64 64 63 65 72 89 100 100 88 63 72 96 96 96 95 92 75
88 94 94 92 93 87 72 52 87 75 96 100 100 99 98 85 72 61 61 63 65 60 74 75 71 72 74 76 75 74 70 69 75 77 61 91 100 100 97 90 96 84 78 82 83 79 71
87 87 92 94 85 80 70 66 86 56 69 98 100 100 99 81 65 62 61 62 72 75 69 71 75 73 70 75 77 75 76 81 74 75 74 69 90 100 99 98 69 68 75 86 78 64 52
86 86 90 91 78 82 72 63 84 40 61 93 100 100 100 95 72 62 60 63 65 70 77 75 82 82 74 81 79 93 77 66 69 74 80 79 82 99 100 98 91 66 54 63 59 65 52
32 48 89 92 87 80 74 67 83 36 46 57 100 100 99 99 84 68 67 72 75 72 77 78 84 89 90 84 85 95 82 68 69 70 85 90 96 96 96 93 64 53 54 73 65 56 54
28 35 83 54 51 56 93 67 50 37 30 68 72 100 100 99 97 74 65 80 82 74 71 77 85 92 94 96 96 86 86 67 73 62 67 64 78 87 78 76 78 52 60 57 53 56 59
29 34 69 24 28 44 78 86 47 50 45 62 93 86 100 100 99 81 74 68 67 62 70 79 79 83 81 93 93 94 82 75 68 66 63 74 59 57 60 54 47 54 54 56 64 64 64

GFSGBSN_850_rhum_015.txt.gz
RH
94 95 94 94 94 93 91 92 91 89 90 91 91 90 94 99 99 98 85 91 100 86 58 52 55 72 86 98 91 78 75 77 89 93 82 68 58 48 46 39 39 44 37 29 34 39 40
93 93 95 96 93 90 91 90 91 91 89 90 91 88 90 94 98 100 98 88 98 87 67 52 63 62 92 85 85 81 72 82 84 97 92 77 63 54 50 44 45 39 41 39 39 40 40
100 93 98 82 88 94 95 91 91 90 94 93 91 91 89 90 80 98 100 93 92 96 71 63 74 71 84 68 70 75 83 80 85 90 90 87 84 73 66 56 52 51 53 41 37 37 38
97 99 90 94 93 90 82 80 94 91 91 91 93 93 87 91 94 88 98 100 90 99 67 76 85 93 71 70 76 58 72 84 83 88 90 93 84 75 56 57 50 50 44 49 31 34 32
89 94 96 96 96 91 80 94 92 80 93 94 94 92 94 91 87 83 93 100 88 100 68 76 84 86 62 65 70 70 66 74 78 78 85 93 84 66 58 54 46 43 46 40 35 29 34
97 94 98 97 83 88 81 84 87 91 85 89 89 66 71 81 71 76 91 99 93 99 86 98 99 82 71 66 78 75 67 70 66 68 71 65 56 53 51 48 51 42 48 40 36 28 37
98 95 95 95 97 92 90 82 87 91 80 83 77 77 80 69 75 89 87 94 98 99 100 84 74 60 69 78 80 76 67 69 65 60 61 59 70 67 47 42 40 42 42 39 32 28 38
92 95 98 96 97 91 77 88 85 90 78 78 79 78 86 82 78 79 90 100 100 98 94 82 71 72 74 72 72 72 65 62 65 72 58 76 82 49 40 41 45 47 49 46 36 31 37
99 98 94 91 80 88 76 77 81 77 80 76 82 86 84 85 84 66 74 92 100 100 84 84 72 71 80 76 59 73 64 54 58 62 58 66 51 46 48 51 56 49 51 47 44 37 38
97 93 91 93 92 79 78 83 79 80 84 93 93 89 85 88 83 98 94 83 95 100 99 94 84 71 78 69 62 69 63 57 56 58 55 58 43 50 50 56 48 55 36 40 46 51 54
98 95 83 86 89 78 88 92 76 93 90 92 92 88 84 92 98 98 93 100 88 100 96 73 76 74 69 54 64 72 64 66 56 52 53 58 56 57 61 52 45 51 46 48 49 54 55
99 82 82 85 91 94 93 83 89 96 92 89 95 96 96 88 97 75 85 99 100 99 95 87 82 82 69 52 62 68 70 65 52 49 50 45 47 48 47 46 46 47 51 53 53 64 83
95 86 89 92 91 92 87 91 92 91 90 94 97 100 96 96 96 97 84 98 99 97 60 95 75 76 65 64 65 67 73 74 69 91 84 58 54 48 45 56 50 54 67 69 80 90 64
85 81 81 90 94 90 88 94 90 91 95 94 98 98 93 96 96 91 97 87 98 61 60 56 73 67 73 60 59 61 69 74 52 52 62 76 74 54 52 54 52 61 60 58 52 38 34
86 82 78 90 92 87 92 89 93 91 93 96 98 92 98 98 98 91 90 86 98 53 57 71 69 77 75 63 64 61 61 64 50 50 75 70 70 46 48 46 47 60 81 50 67 50 61
87 87 81 90 83 88 92 87 98 94 97 98 99 97 100 93 86 90 90 98 77 48 50 52 67 59 71 63 71 62 60 47 52 44 41 52 75 48 47 52 49 54 46 81 86 80 54
96 96 83 88 92 89 92 90 98 99 98 86 95 99 96 94 93 94 97 99 64 51 50 53 53 55 53 58 52 57 56 48 42 45 45 48 56 67 63 68 50 67 74 85 59 70 74
98 87 92 82 92 90 94 91 99 100 99 93 98 100 99 87 95 87 98 95 58 61 67 52 44 42 46 47 51 49 49 45 43 45 56 48 60 80 63 40 39 42 56 55 88 67 77
95 93 93 84 88 85 91 94 96 100 98 96 98 98 99 100 89 78 95 80 59 70 64 56 54 45 43 48 58 48 47 44 44 50 50 51 74 82 79 56 43 52 48 47 61 78 92
93 90 95 88 87 82 92 92 81 91 99 92 98 100 98 95 89 66 93 68 73 70 61 54 53 45 48 50 48 52 56 53 48 47 58 49 61 83 63 68 54 95 71 62 82 97 71
94 97 88 92 92 89 90 87 90 80 96 97 98 92 89 93 69 74 69 62 71 63 59 52 54 48 45 53 53 55 52 54 53 52 52 55 99 78 65 59 66 74 72 71 98 94 97
93 92 94 90 94 92 85 83 90 72 87 96 99 98 84 67 54 52 58 56 59 63 55 56 52 50 50 51 52 57 54 52 53 56 58 62 90 92 93 68 68 82 64 72 95 94 95
93 88 89 89 83 91 82 78 82 71 89 98 98 97 100 68 53 48 51 51 56 53 63 56 53 58 60 56 57 57 54 51 52 59 66 77 97 98 80 55 61 84 95 96 95 88 93
90 89 88 90 53 77 86 82 80 43 97 100 99 99 98 72 51 47 49 50 53 56 62 63 58 57 72 72 69 64 59 56 55 64 68 85 99 98 100 82 91 69 65 75 85 68 56
86 77 87 90 53 66 86 84 85 32 59 100 99 99 99 75 60 51 50 54 57 53 58 63 67 71 72 65 64 58 71 74 66 63 73 78 87 100 99 79 58 66 58 77 91 74 48
73 88 55 59 16 16 59 89 59 44 27 71 100 99 99 100 58 50 49 51 61 58 65 61 81 80 74 66 70 71 74 58 65 84 73 71 72 97 98 97 82 62 46 56 58 67 48
90 82 88 29 15 14 13 29 51 42 38 38 96 100 98 98 72 65 50 53 53 52 55 67 77 80 80 89 83 74 78 58 63 61 79 89 94 98 97 96 68 48 46 56 69 57 51
93 93 89 86 27 19 37 21 91 89 56 36 71 100 96 99 90 87 62 62 64 58 60 70 76 77 79 82 78 74 75 59 62 47 55 62 71 78 80 95 81 43 46 60 51 51 50
83 98 95 94 92 28 50 92 90 93 92 92 80 58 82 100 94 98 88 72 73 63 67 74 74 70 74 84 94 91 93 64 57 66 48 63 47 56 53 50 38 44 48 50 56 56 54

GFSGBSN_850_rhum_018.txt.gz
RH
92 94 99 96 92 93 91 92 92 92 93 91 91 93 93 91 94 98 100 99 87 92 98 81 41 56 88 100 88 79 78 83 82 84 86 66 56 50 51 40 36 41 37 31 30 31 33
100 99 99 97 97 92 92 80 77 84 78 73 93 91 94 96 91 91 93 100 99 89 98 81 45 65 84 89 82 80 72 81 84 81 84 66 54 50 51 40 40 37 39 39 38 34 36
98 92 96 96 95 95 91 85 74 83 76 91 90 92 96 95 98 98 100 97 100 98 100 86 62 69 88 76 71 80 75 74 80 83 87 77 74 63 61 56 51 46 57 48 43 40 40
98 95 96 98 98 94 86 82 85 88 90 89 92 76 84 93 91 90 88 89 100 100 97 90 78 85 74 67 73 68 71 77 64 88 82 83 79 74 64 58 50 55 55 68 35 37 36
99 98 96 92 100 96 96 92 83 88 82 81 76 74 77 92 90 78 76 79 94 100 94 93 94 94 70 69 70 70 63 72 80 78 87 90 79 70 58 58 59 53 62 55 43 35 34
99 92 98 99 92 86 86 82 82 80 75 75 75 75 74 80 74 75 81 79 81 99 99 98 93 88 73 69 66 68 61 68 76 76 86 87 72 63 60 64 73 54 56 47 44 36 36
99 100 96 90 93 93 91 80 86 76 80 74 78 79 76 80 79 79 80 92 90 100 99 89 80 62 59 70 73 70 64 69 62 75 68 62 70 78 58 54 49 46 50 52 38 30 37
99 96 96 85 87 86 93 85 87 80 80 73 78 80 81 82 80 76 72 98 92 99 99 86 72 65 72 70 70 68 65 66 64 73 58 70 82 54 44 40 46 49 56 56 42 34 37
98 100 85 84 92 94 94 84 80 94 78 80 82 89 92 84 82 72 91 96 95 100 99 91 77 71 73 69 64 68 63 60 63 68 73 64 53 46 50 52 55 55 57 54 50 42 40
100 99 84 94 90 95 93 91 91 91 91 90 92 90 77 93 84 97 88 98 100 100 100 99 90 69 75 66 60 66 61 54 60 71 65 64 46 46 52 57 50 62 42 44 46 56 68
98 98 80 88 92 93 93 93 93 90 89 89 91 92 89 99 98 98 91 96 100 98 100 95 86 69 70 61 67 69 61 58 58 56 59 66 56 59 60 50 45 51 49 50 52 62 73
94 95 77 80 82 90 88 90 87 89 90 84 88 95 98 100 100 84 83 97 98 99 98 99 86 74 74 58 61 66 64 61 51 46 51 51 45 47 50 44 46 47 49 53 56 66 96
84 91 81 76 90 85 94 87 90 93 89 87 92 99 94 96 98 84 93 99 99 98 78 96 88 72 62 63 70 67 76 78 76 90 86 60 58 48 45 54 50 53 65 93 96 96 89
89 81 84 78 83 89 90 85 93 96 91 95 100 89 92 100 99 95 93 97 95 92 73 58 70 68 64 60 70 71 76 79 61 60 78 87 84 58 49 57 61 64 66 89 77 83 68
88 90 86 84 74 91 90 94 92 98 98 95 96 82 85 99 93 80 89 84 98 89 58 71 70 77 72 61 63 69 76 71 55 51 81 81 71 47 50 48 52 67 83 55 78 62 86
98 92 94 87 80 88 92 91 97 98 98 94 86 90 89 96 79 85 98 87 100 53 54 52 68 57 73 67 66 67 64 51 50 46 44 56 74 50 52 48 49 57 49 85 88 95 81
97 99 88 92 89 90 92 92 98 98 100 89 95 98 96 90 81 87 99 100 90 52 50 52 56 55 53 66 60 60 55 46 44 45 43 46 60 68 66 70 67 68 74 72 71 83 94
95 95 91 94 90 91 94 63 73 100 98 85 99 97 94 92 94 94 98 97 67 64 61 48 41 42 50 51 55 54 52 46 40 43 57 46 62 92 80 50 49 54 64 62 86 79 80
91 96 98 90 87 82 91 34 60 100 96 90 94 93 93 99 95 91 94 84 60 68 62 54 49 43 40 48 56 48 48 42 42 48 53 51 82 94 88 62 48 57 53 53 59 71 90
92 91 94 90 87 88 88 45 52 95 95 94 98 96 85 96 92 81 96 77 91 71 55 48 47 42 44 48 45 54 56 50 44 48 47 47 63 85 91 78 72 98 79 63 68 98 80
94 90 89 91 92 91 82 65 40 84 89 96 97 87 79 90 68 73 74 79 68 58 55 49 50 45 46 54 51 54 53 57 50 57 51 55 98 83 75 64 65 72 74 71 94 94 98
92 90 89 90 84 90 69 80 32 69 88 96 94 99 84 62 57 65 61 67 65 58 57 53 51 44 45 49 57 52 51 53 60 57 59 60 97 98 89 75 75 82 72 71 75 95 96
95 93 84 89 72 92 90 84 36 50 90 99 98 98 100 55 53 55 49 53 58 57 61 54 50 54 56 64 59 55 53 51 54 60 66 86 99 98 90 66 73 87 75 85 84 78 88
91 94 92 86 21 45 92 47 38 25 89 99 100 100 99 67 55 49 47 49 54 59 66 60 54 52 74 68 65 63 60 55 55 60 58 91 99 100 98 90 92 70 68 69 80 78 71
96 91 89 93 40 14 54 18 22 28 26 82 99 100 100 98 53 48 48 50 51 62 63 63 67 72 71 66 72 64 74 67 65 61 70 73 94 100 100 96 67 63 71 66 82 80 59
96 100 90 92 94 50 28 81 21 17 24 25 95 100 100 100 65 60 49 52 66 62 67 64 75 76 74 74 78 72 74 83 82 86 74 78 84 98 99 98 90 60 54 62 62 95 55
96 94 98 95 91 95 82 88 87 40 23 26 74 95 100 100 84 84 54 55 52 55 67 66 80 83 79 81 88 77 81 67 72 79 93 95 96 97 97 98 78 49 46 54 92 70 57
97 94 98 97 93 92 88 93 94 88 59 58 70 84 92 99 91 81 80 69 54 55 64 74 82 81 82 90 80 79 82 67 70 58 69 75 86 91 91 98 94 44 50 65 61 54 54
99 96 99 97 97 98 97 89 93 93 85 84 89 84 77 97 89 90 87 84 78 62 66 73 74 70 77 88 89 88 90 89 77 80 57 67 59 65 69 71 46 45 48 48 54 58 59

GFSGBSN_850_rhum_021.txt.gz
RH
99 94 95 97 85 94 94 91 91 83 82 80 85 92 88 86 93 95 96 99 98 100 98 98 92 71 74 99 85 82 81 78 85 72 63 64 74 64 59 51 45 48 44 40 39 34 37
98 97 98 95 98 98 97 94 88 83 85 92 94 91 90 92 80 90 93 91 100 98 100 99 94 70 86 94 72 76 73 86 87 78 66 79 70 56 52 53 48 42 42 44 43 43 43
99 99 95 91 93 95 90 82 81 79 80 86 89 72 65 91 94 92 92 91 93 96 100 100 94 75 96 79 78 79 68 74 76 79 68 68 78 61 58 56 52 50 58 56 52 48 48
99 96 99 93 96 92 92 91 88 77 76 78 74 73 69 86 90 94 87 86 71 76 99 100 97 81 86 53 72 78 74 75 81 85 73 76 78 66 64 55 50 57 58 79 54 46 47
97 98 97 97 85 87 88 92 78 75 76 75 89 79 74 80 74 74 69 70 73 64 96 99 99 86 79 69 71 71 67 75 74 78 81 82 84 72 61 63 66 61 78 73 61 39 43
95 97 96 87 92 96 95 93 91 92 96 93 93 76 74 73 75 78 75 71 64 65 88 93 96 92 83 78 72 70 59 72 78 81 92 94 92 84 72 69 88 71 74 56 55 40 39
93 98 99 86 96 93 94 93 92 96 90 78 77 75 70 74 72 76 79 69 78 84 93 93 90 74 60 68 68 70 61 70 77 76 85 92 88 91 76 69 59 61 56 62 53 40 42
94 100 99 96 93 90 91 94 92 94 90 92 82 82 94 93 78 74 81 92 84 99 98 86 87 77 71 69 72 69 66 69 70 86 65 75 88 70 59 56 60 60 61 65 53 40 43
98 96 98 96 94 82 93 94 92 94 92 88 92 92 89 86 75 74 94 96 96 97 99 96 90 79 70 69 72 67 68 66 68 74 68 81 59 54 57 58 57 58 63 63 60 50 47
95 97 95 89 94 79 88 92 83 88 93 90 92 92 92 94 90 86 84 96 100 96 99 99 93 75 69 68 71 65 65 60 64 74 72 69 47 51 61 64 56 68 51 52 57 63 75
98 100 96 90 67 80 85 91 77 88 93 88 86 88 94 99 100 98 90 98 98 97 97 98 93 75 63 72 68 66 63 56 68 70 74 85 64 59 58 56 48 60 52 56 59 69 73
97 98 97 82 70 79 86 90 88 93 97 90 92 96 99 98 100 98 90 97 97 97 96 100 86 78 79 66 67 68 65 57 52 57 62 57 47 51 58 48 48 48 56 57 63 76 96
98 99 98 88 75 77 84 91 89 94 97 97 99 92 93 89 97 99 98 99 96 97 95 100 93 77 74 79 75 69 74 77 79 91 97 68 63 49 47 60 52 59 69 95 91 94 89
99 99 89 91 92 88 91 86 95 99 99 99 83 86 98 89 94 85 100 90 97 99 96 75 72 72 79 70 79 70 80 83 69 65 89 89 86 67 55 62 72 73 66 90 91 96 81
100 93 94 93 94 90 95 91 99 98 96 83 72 76 88 98 92 93 95 97 98 99 71 80 68 71 78 65 78 74 75 68 64 64 80 90 78 56 54 50 56 70 85 60 81 72 93
99 93 96 91 90 90 93 93 99 99 87 76 68 81 99 90 91 94 99 94 100 70 67 57 89 68 83 72 80 74 79 62 56 54 53 60 79 57 58 50 51 61 58 86 92 100 95
97 92 96 92 92 89 94 96 97 99 88 76 66 91 96 98 96 90 100 100 87 55 64 65 66 65 61 69 72 70 74 54 52 56 54 49 64 74 62 73 75 72 83 73 76 91 98
92 97 87 90 89 74 74 62 69 84 80 74 80 89 92 82 89 94 100 100 90 70 62 54 46 53 58 66 69 63 66 53 46 45 60 50 71 97 80 62 58 62 70 69 86 78 91
98 93 91 92 84 66 51 33 51 79 71 75 86 92 85 92 98 100 93 78 74 84 66 56 56 47 50 56 63 54 56 45 44 45 61 54 78 93 81 71 58 69 64 63 63 76 84
95 87 80 89 88 78 61 38 41 86 81 81 94 97 74 91 91 88 87 91 83 64 62 55 50 44 50 51 50 58 68 50 49 54 48 47 74 80 86 79 79 86 75 67 71 97 78
98 81 46 87 85 70 48 42 33 87 79 79 90 91 80 95 88 84 87 81 68 68 55 51 53 48 51 58 57 65 65 60 51 57 53 61 88 92 80 75 77 77 76 73 84 78 97
98 97 38 56 39 42 12 26 27 85 84 82 91 99 97 90 69 77 68 71 70 66 70 59 56 54 63 70 65 64 63 66 67 64 62 66 98 96 98 76 81 91 78 72 72 71 78
98 98 94 60 23 22 13 10 23 43 90 100 100 97 100 88 67 66 65 70 64 64 62 62 54 60 80 76 68 63 56 55 55 69 71 81 96 98 96 74 85 93 79 70 78 80 82
91 98 98 94 69 23 18 15 9 23 42 98 100 99 99 91 71 64 55 54 59 67 70 62 55 68 74 66 63 62 60 59 59 63 64 95 99 99 99 89 90 68 71 70 84 73 74
65 97 96 96 96 88 30 25 41 8 22 52 99 99 99 99 91 64 51 52 67 63 66 70 70 73 69 67 79 79 84 68 62 67 76 76 94 100 100 96 74 63 75 78 86 74 64
71 94 93 90 98 99 97 74 43 74 11 26 96 96 100 99 88 87 77 53 76 75 72 77 72 66 69 83 86 81 73 80 91 90 71 82 83 99 98 99 96 60 59 63 70 87 56
82 90 94 89 96 97 100 98 96 81 57 26 76 69 95 100 94 83 83 72 56 63 81 77 84 79 80 88 94 87 87 68 91 91 95 95 99 98 98 98 82 60 52 64 88 65 62
78 90 99 96 79 91 99 96 90 96 90 63 52 90 87 96 80 78 81 88 89 59 70 79 80 83 90 96 92 90 88 78 76 74 86 88 94 96 97 99 93 46 60 69 56 57 60
92 80 100 95 91 96 96 93 90 91 90 87 74 76 89 91 65 79 81 77 85 88 83 74 77 77 74 92 91 89 88 87 87 90 61 76 71 78 79 76 49 46 49 52 55 59 61

GFSGBSN_850_rhum_027.txt.gz
RH
98 98 100 98 99 94 87 86 81 88 94 93 85 84 76 77 78 84 69 80 90 93 93 81 92 97 100 96 70 88 86 61 72 78 86 98 93 74 73 66 59 59 53 49 46 42 45
98 98 99 94 99 82 86 94 89 87 81 92 87 81 84 90 96 84 64 94 93 92 94 93 91 100 100 91 58 54 90 77 88 85 80 90 88 72 61 59 66 51 50 47 43 44 44
98 98 99 99 98 82 74 88 91 86 92 94 87 83 93 80 77 71 78 79 93 94 96 100 92 100 100 84 63 54 71 76 87 85 81 84 74 72 63 62 52 51 57 54 53 49 51
99 98 97 96 99 84 79 87 83 84 92 91 86 92 86 75 72 70 70 88 92 91 84 100 98 100 97 78 77 81 83 84 74 72 72 75 80 72 62 57 58 64 62 73 52 50 47
98 99 98 99 93 80 82 75 83 85 78 86 79 85 73 74 72 76 80 80 84 88 80 97 95 100 85 72 64 86 87 87 89 91 86 64 72 74 64 72 74 69 84 77 64 49 50
99 99 97 99 92 78 83 82 82 83 76 78 79 84 89 78 85 82 71 70 58 56 58 84 82 97 89 79 54 84 81 84 91 87 93 82 83 86 81 82 86 80 75 71 66 45 51
98 99 96 98 93 79 84 82 88 93 83 86 87 91 91 95 86 78 70 64 69 82 93 86 98 91 84 76 60 86 78 84 87 90 94 91 98 94 84 74 62 62 66 67 58 49 50
99 98 100 96 97 80 92 85 89 91 88 87 91 83 84 87 86 85 82 84 91 93 90 83 94 93 75 69 71 76 72 82 89 94 89 95 95 81 72 78 74 69 73 74 62 52 49
99 98 99 98 100 98 98 92 90 91 97 92 85 86 85 84 95 94 91 85 82 92 97 70 88 96 77 71 73 77 68 79 91 86 79 90 79 86 83 87 84 69 71 67 66 58 51
98 98 99 95 99 95 90 99 97 98 99 99 99 100 89 99 92 98 89 72 94 92 93 97 93 87 72 66 76 73 68 68 75 84 72 70 58 84 84 76 62 74 54 57 60 64 78
90 98 94 97 96 98 93 96 97 99 80 78 78 80 91 98 98 98 92 89 98 92 95 99 96 86 74 70 71 71 68 61 75 81 71 86 64 78 82 69 54 64 53 57 61 72 67
94 95 99 98 87 100 97 89 93 96 81 84 82 84 88 89 91 99 98 86 96 95 97 99 96 88 78 71 74 72 64 60 66 73 61 62 51 53 56 56 52 55 58 67 78 75 90
94 95 96 95 98 98 98 94 89 94 88 87 79 79 77 92 94 95 87 89 94 95 98 100 93 76 72 80 78 75 71 73 88 98 99 77 66 52 54 64 57 57 66 80 71 90 76
84 76 91 92 82 95 98 98 98 89 91 84 76 56 67 67 66 78 87 88 94 98 100 87 74 74 89 76 78 78 75 81 68 76 99 94 94 64 52 61 70 64 63 76 54 86 83
95 34 68 68 60 82 96 91 76 73 72 81 69 67 85 98 94 99 87 95 97 99 88 88 68 93 100 83 87 94 77 77 68 63 79 82 78 59 54 56 57 73 84 62 82 80 93
95 38 49 29 7 18 56 66 67 61 62 64 66 77 94 96 99 90 87 97 99 94 67 65 94 79 85 92 88 90 69 59 58 59 56 68 86 65 60 52 58 61 64 84 92 70 84
71 22 59 38 5 10 24 62 58 59 57 56 64 75 91 89 92 78 99 99 86 62 66 60 78 68 74 78 78 73 76 59 53 59 54 58 72 75 65 73 79 76 87 82 79 84 89
37 31 13 40 8 5 15 50 76 50 52 53 64 86 74 76 88 98 99 98 88 84 71 66 55 56 67 71 74 71 76 65 52 57 64 55 78 96 79 63 60 66 74 77 85 77 96
30 35 18 10 11 7 6 29 73 66 52 63 64 70 69 75 95 88 84 91 88 76 65 58 56 50 59 68 72 65 65 50 52 57 64 58 79 92 85 73 70 72 72 69 70 79 90
39 84 27 16 13 8 7 8 60 70 73 73 72 91 68 77 88 84 95 87 76 61 61 53 56 53 59 61 56 71 63 60 55 53 49 50 75 76 84 74 81 88 78 74 77 98 87
33 95 82 29 22 10 9 6 14 68 70 76 78 99 98 97 84 84 88 80 76 82 65 50 52 54 55 68 67 75 64 61 60 60 62 60 85 88 80 75 77 78 74 80 88 76 87
33 65 94 76 38 27 15 8 7 37 76 71 93 93 91 92 91 82 75 73 77 72 70 64 56 54 52 65 62 78 68 65 63 62 66 68 96 90 93 80 88 92 82 81 78 74 74
54 48 95 94 87 54 35 12 10 9 63 88 99 98 99 86 88 77 70 69 67 67 62 66 65 77 79 75 68 52 48 50 54 70 76 76 92 94 97 79 88 94 86 80 79 73 70
69 46 92 96 93 90 70 36 25 17 18 90 99 99 90 92 93 83 84 80 67 69 64 71 65 69 73 67 64 59 58 58 59 61 64 86 91 94 96 85 96 60 63 66 71 67 70
78 63 90 77 97 91 84 86 53 58 39 23 64 94 99 88 81 86 83 86 70 68 72 73 74 74 69 66 80 82 81 68 67 64 74 70 85 95 91 90 77 63 74 83 82 75 70
92 80 69 80 99 96 77 94 96 79 72 53 29 58 91 98 90 96 97 87 79 78 78 78 74 73 70 86 83 90 96 79 87 93 79 78 79 98 99 98 98 55 65 66 65 85 63
98 98 76 72 99 97 91 77 92 86 91 71 64 43 55 98 95 98 97 97 86 77 81 79 80 74 74 90 92 91 87 76 91 92 99 100 100 97 99 96 84 59 53 65 79 67 57
99 98 90 84 89 100 100 83 83 93 94 98 89 75 71 75 48 57 74 90 92 90 87 76 83 85 93 91 92 91 90 87 87 80 93 93 95 98 93 100 94 57 73 73 60 56 61
99 99 99 97 89 83 98 99 89 85 92 95 100 92 94 98 59 46 48 50 64 63 98 94 77 84 79 92 94 92 95 92 87 91 77 93 87 92 85 77 53 54 54 50 54 60 59

GFSGBSN_850_rhum_030.txt.gz
RH
95 96 98 99 99 97 88 84 90 84 93 89 91 85 78 82 84 83 76 71 94 78 90 92 93 99 98 100 86 94 98 88 52 88 99 93 88 76 72 68 61 62 56 53 49 48 48
87 98 96 96 99 99 81 81 82 82 85 88 93 84 88 84 81 84 68 83 82 89 96 99 98 89 98 98 80 72 86 83 60 88 98 94 83 70 63 66 61 57 53 50 48 46 45
97 97 98 96 97 97 84 79 86 76 84 77 86 77 70 82 76 74 73 90 84 97 99 94 95 92 99 96 77 73 54 84 67 82 92 87 85 66 64 64 56 55 56 55 55 50 51
98 96 96 99 98 94 84 81 88 80 80 78 80 79 82 87 66 71 73 81 78 84 98 100 90 95 95 83 78 81 79 87 81 96 78 85 80 74 63 60 61 67 62 76 54 56 50
92 98 99 99 97 98 80 85 93 85 88 84 76 86 84 96 87 78 79 63 63 66 82 99 88 93 84 84 73 80 95 88 84 84 79 75 75 76 67 74 77 72 90 82 64 52 50
98 98 95 98 92 99 96 97 94 94 91 85 83 85 91 95 95 80 72 60 58 63 56 73 96 97 95 95 76 78 97 85 90 87 84 81 75 89 84 74 85 77 76 74 72 48 58
98 98 98 99 97 99 100 97 96 98 98 98 98 90 81 84 82 86 75 63 64 75 80 88 94 86 90 86 83 85 95 100 100 97 90 81 94 88 77 77 64 68 71 70 60 50 52
97 99 97 97 99 94 98 97 97 96 98 99 93 100 86 84 88 90 88 79 88 87 89 76 96 89 94 76 80 89 85 93 90 97 91 95 91 77 74 68 72 71 76 76 66 54 52
96 97 98 96 98 98 98 97 92 91 95 79 81 83 100 84 91 93 95 80 88 99 94 90 99 98 88 72 83 88 83 85 87 92 87 90 80 84 70 75 79 71 78 71 69 59 54
97 97 95 93 99 99 94 89 92 89 85 83 82 81 96 86 99 96 90 87 89 96 92 93 98 97 96 70 80 76 82 82 89 91 81 90 86 82 89 84 70 76 55 58 59 64 77
96 99 96 97 99 97 96 95 97 87 87 79 78 84 84 91 93 90 82 91 89 95 95 96 94 89 72 67 73 79 80 70 88 85 87 89 95 95 93 89 67 68 55 59 63 72 66
75 95 76 93 93 99 99 82 68 78 85 80 84 87 96 97 95 96 81 87 92 86 97 99 93 78 80 73 78 74 73 75 80 79 72 66 57 65 76 71 59 56 59 67 75 75 83
29 84 40 92 74 90 98 76 61 66 76 79 80 70 79 87 75 74 78 80 87 94 99 99 96 76 79 83 77 70 74 77 93 99 99 76 67 53 54 65 55 57 67 86 68 80 74
52 91 28 82 20 20 46 69 58 56 61 65 80 81 77 85 86 93 97 84 90 97 95 83 75 79 92 84 82 75 73 81 69 84 94 93 93 62 54 61 70 65 63 79 54 76 75
21 80 36 47 10 7 27 66 60 46 50 61 69 68 81 97 97 98 97 96 97 100 84 84 70 88 96 85 87 91 86 77 68 63 81 87 82 60 56 58 56 73 84 62 85 84 88
24 72 26 21 10 7 12 48 65 54 50 48 54 60 80 87 95 97 94 95 99 90 61 68 91 82 92 92 86 90 78 63 67 59 56 67 89 67 61 55 62 61 64 81 89 68 70
22 36 50 21 10 8 5 24 67 54 50 52 56 63 74 77 82 78 99 100 81 70 69 62 78 71 81 84 80 83 74 58 53 63 56 62 74 80 63 71 78 74 87 81 78 83 82
26 28 44 32 15 9 7 5 49 62 46 52 64 84 71 67 88 97 100 98 85 83 72 61 55 61 72 71 74 71 80 62 53 56 64 56 79 97 77 66 63 66 75 74 83 77 96
39 42 44 77 29 13 8 7 8 61 59 64 65 62 64 69 96 95 85 86 87 79 68 59 56 51 61 67 72 64 64 54 53 54 61 62 79 93 84 72 69 75 75 70 70 80 95
48 38 76 65 73 26 10 7 6 39 63 62 69 89 67 71 88 80 89 85 76 64 63 56 58 55 60 59 62 69 64 62 57 53 50 53 74 76 80 70 82 91 81 75 76 96 85
56 47 70 83 66 42 18 9 7 15 68 63 78 97 98 97 87 90 86 84 80 83 69 52 55 57 58 69 71 74 66 63 62 60 64 61 87 86 78 72 79 77 75 84 84 78 86
62 64 54 94 76 66 33 14 11 8 63 68 92 92 88 91 95 77 76 75 79 74 76 62 62 56 56 67 64 79 69 66 64 62 67 68 95 89 94 77 87 94 85 80 80 73 75
67 67 60 90 88 84 58 50 34 21 21 99 97 98 95 83 91 78 76 74 74 73 64 70 59 73 75 76 72 58 52 53 56 71 77 75 96 94 91 81 88 94 88 82 74 75 69
76 76 77 93 99 94 79 89 76 82 38 51 98 98 90 93 94 89 87 84 74 75 66 74 67 68 73 66 62 57 58 61 61 66 66 82 89 92 96 86 95 58 67 67 70 65 69
90 92 86 81 93 92 97 83 82 77 80 50 39 83 98 85 77 86 92 92 76 70 74 74 76 75 71 65 79 79 76 68 67 64 73 66 82 94 92 90 75 59 77 75 75 68 66
89 89 90 93 88 100 94 88 87 84 85 74 55 40 78 97 87 91 83 94 88 83 76 79 77 75 72 86 80 89 96 79 87 94 78 78 77 87 93 98 97 56 69 68 64 76 58
93 95 94 98 87 96 99 99 86 85 84 74 79 68 48 85 79 94 90 94 94 87 87 80 82 77 73 89 90 90 89 75 96 96 92 99 100 97 91 93 83 61 53 66 80 67 57
95 99 95 99 91 91 83 100 100 98 84 91 92 83 72 67 35 41 60 91 83 84 93 84 85 85 91 88 90 90 91 89 87 83 91 88 95 90 84 99 95 58 73 73 60 58 61
99 99 98 96 98 99 93 93 100 99 90 87 98 99 100 98 74 64 56 53 57 39 82 93 92 81 77 91 94 92 96 95 88 94 80 92 82 93 84 81 55 52 59 50 52 58 57

GFSGBSN_850_rhum_033.txt.gz
RH
95 93 98 99 97 99 99 85 84 82 80 78 79 81 85 79 78 74 79 66 82 94 74 81 90 94 93 85 94 74 96 96 98 93 92 97 96 83 74 68 64 62 61 52 48 49 49
96 98 99 98 94 99 98 90 82 83 85 89 88 84 82 88 79 71 68 72 83 81 72 86 84 91 84 97 88 83 82 87 90 96 88 93 86 78 70 66 61 59 53 52 50 49 47
99 99 98 95 95 94 98 84 83 94 94 86 96 85 84 85 87 81 78 65 91 83 81 87 84 83 96 84 91 78 94 78 76 98 85 90 74 65 65 69 56 56 62 55 54 51 49
97 98 97 99 98 94 99 98 100 94 98 99 94 92 82 90 86 87 70 70 66 64 82 92 87 89 90 54 89 94 96 69 97 86 85 88 75 63 61 59 63 66 61 74 55 57 49
99 99 98 100 98 100 94 98 98 96 94 94 93 96 96 80 84 92 86 70 58 59 83 79 87 85 86 73 77 77 90 89 98 84 79 80 75 74 66 73 80 73 81 80 62 58 54
99 100 97 98 99 99 96 97 92 94 99 97 79 78 95 81 81 83 78 66 61 65 70 83 76 97 87 84 68 72 84 90 92 83 82 82 78 88 82 77 80 88 79 77 64 51 60
94 97 98 99 98 98 99 97 92 97 98 94 88 84 84 93 82 83 81 72 72 78 75 82 80 93 89 88 84 70 85 99 86 87 96 86 91 84 71 66 64 67 72 70 63 53 54
91 92 98 91 99 99 94 95 98 91 95 82 85 76 82 100 86 88 90 80 92 92 81 70 87 93 95 92 82 81 96 90 93 93 86 89 89 73 70 67 65 69 74 74 64 54 52
86 97 90 90 92 98 95 97 100 78 83 80 88 77 84 87 84 93 98 87 90 88 92 78 90 95 92 85 88 99 97 93 83 88 75 76 77 70 69 77 77 76 77 75 69 58 54
85 95 94 92 94 98 98 98 86 62 72 70 78 83 90 77 90 89 84 84 88 94 94 96 92 97 82 79 90 93 92 96 96 94 87 87 85 77 76 78 68 82 59 61 60 64 72
51 72 66 94 87 70 92 100 60 54 62 62 68 82 89 95 93 83 91 83 85 94 95 98 95 99 80 72 84 88 84 74 84 92 94 96 93 95 84 81 65 75 57 61 63 69 63
53 37 40 74 55 37 53 97 61 50 51 71 62 69 68 81 93 85 83 85 90 82 97 99 94 86 85 77 88 91 86 80 86 83 73 82 84 87 92 86 77 56 58 65 70 69 76
42 27 18 36 48 12 38 65 72 45 52 60 70 73 69 78 79 87 92 91 87 94 96 98 93 77 81 84 84 75 89 91 94 99 100 94 67 58 84 87 63 57 70 88 68 80 74
29 53 19 18 40 13 8 52 60 48 45 51 56 58 76 81 94 97 96 91 88 99 98 83 80 78 93 87 84 73 73 83 70 80 97 91 96 66 55 64 78 66 68 79 61 57 58
26 40 22 18 14 9 8 10 57 54 50 46 48 52 77 77 84 92 90 91 96 96 79 76 68 78 87 86 84 83 81 78 67 64 80 84 90 61 61 59 59 70 81 58 83 82 78
29 47 36 29 18 12 9 6 15 54 50 50 53 53 72 69 78 74 91 98 99 89 62 66 84 76 92 91 88 84 78 65 69 59 58 68 96 69 63 57 61 61 64 78 83 72 60
40 43 54 47 51 27 12 7 5 34 48 50 59 56 67 64 70 78 99 100 85 77 70 62 78 76 85 89 85 91 77 59 58 63 57 62 74 82 64 70 76 73 80 77 71 75 66
49 42 75 70 61 56 21 11 6 10 52 44 59 82 67 62 78 92 100 96 86 81 71 57 55 65 74 73 76 73 75 64 54 56 64 61 79 95 79 67 63 65 72 65 72 74 88
54 52 55 85 63 62 58 15 9 5 54 63 68 59 64 62 90 95 83 79 85 79 73 58 55 53 61 67 72 64 64 57 54 53 64 61 77 93 82 71 70 75 75 67 68 77 97
60 60 59 85 80 64 68 40 11 6 42 67 69 84 65 72 86 81 85 83 79 69 67 56 57 57 57 62 66 70 65 67 57 52 52 53 71 73 72 67 81 91 82 71 73 88 78
67 64 62 69 88 79 69 66 12 9 29 67 79 96 97 98 88 89 88 85 80 79 71 55 56 56 59 70 72 73 68 67 62 63 64 62 86 86 75 67 80 77 77 82 84 75 79
72 66 66 71 96 94 83 76 32 11 20 69 93 91 85 85 96 87 75 78 78 75 78 63 60 59 59 67 62 77 70 68 68 63 67 69 95 89 92 77 85 92 82 79 78 71 72
74 70 68 76 86 98 88 84 82 32 15 75 96 95 94 82 92 86 79 79 73 76 69 74 63 71 73 74 74 65 54 55 59 73 77 74 94 92 87 76 85 94 88 80 76 76 68
78 80 78 86 85 92 90 89 85 92 64 32 86 94 89 86 93 92 88 88 87 80 70 74 67 66 73 62 60 55 58 62 63 69 65 81 84 87 90 83 95 57 66 69 71 65 67
84 83 92 84 84 89 96 99 82 93 89 67 39 67 93 91 80 85 87 97 88 75 76 74 75 70 70 66 78 77 78 66 68 68 70 63 80 93 91 93 71 58 75 78 75 67 62
86 90 92 89 92 90 98 99 98 91 77 79 67 61 50 96 79 80 76 82 98 88 80 80 82 79 72 83 77 88 95 79 91 94 78 75 72 80 87 91 96 55 70 67 64 80 62
91 92 97 91 90 97 91 97 100 99 92 70 79 78 65 66 48 83 87 84 94 96 94 82 88 83 75 88 86 88 91 75 95 87 96 98 100 94 88 89 82 60 64 67 91 73 56
98 95 97 89 97 99 97 93 98 100 98 87 80 82 87 76 62 60 54 74 75 81 97 91 93 89 90 87 90 88 90 89 88 82 78 79 92 86 78 93 93 58 70 78 63 58 59
81 100 87 93 98 99 98 99 99 99 100 98 86 81 97 99 74 58 72 82 73 62 54 72 97 95 81 88 92 91 96 95 88 97 83 92 79 86 79 75 56 59 63 58 54 60 60

GFSGBSN_850_rhum_039.txt.gz
RH
98 98 97 85 92 97 96 94 86 97 97 94 90 86 86 83 80 80 85 69 70 73 81 80 72 74 74 75 56 78 64 74 92 89 78 76 55 62 56 43 38 43 29 29 31 39 36
98 96 98 93 97 99 98 98 83 82 85 85 95 91 80 81 80 80 81 72 75 77 78 67 76 89 82 64 51 63 98 98 95 88 74 60 51 59 50 44 39 41 35 35 32 40 39
94 95 97 93 95 98 94 82 91 90 82 90 100 99 85 76 81 80 80 73 72 76 77 61 64 69 77 63 59 74 71 97 100 95 63 57 51 55 52 55 43 43 39 38 33 36 35
78 96 93 93 95 98 91 95 88 83 86 97 98 92 86 81 86 81 78 79 66 79 59 65 62 88 72 60 59 81 72 69 87 94 61 59 57 50 51 50 50 49 43 50 38 38 36
74 81 95 94 95 98 96 94 86 82 85 98 99 84 78 82 86 70 74 73 66 59 62 73 83 87 54 70 61 64 94 81 93 88 63 80 77 52 50 50 57 47 47 45 38 35 36
42 77 75 83 93 97 98 95 87 85 87 99 75 75 76 84 69 65 59 62 64 59 78 96 86 77 60 59 71 81 85 97 98 79 86 96 81 57 51 44 52 43 46 32 34 41 37
34 32 54 72 83 98 98 98 92 93 82 71 78 89 90 70 67 71 78 85 86 81 76 58 65 63 79 63 84 94 98 90 85 89 81 92 80 73 49 34 27 24 35 28 26 36 41
30 32 42 45 80 80 94 95 98 98 87 77 71 69 73 78 80 74 88 78 98 88 61 64 78 80 93 93 89 87 84 98 71 87 50 93 92 45 35 31 30 35 32 34 33 34 40
30 31 33 29 52 25 87 88 95 98 90 90 70 58 70 71 78 93 94 82 70 90 97 87 97 100 90 87 92 97 90 90 63 73 65 75 74 44 44 41 42 35 37 35 40 44 38
31 33 33 20 17 13 28 69 65 72 63 64 71 65 42 52 88 89 71 69 78 82 100 100 96 90 82 90 92 99 91 93 83 68 61 76 58 49 54 51 36 40 34 41 50 47 36
33 35 37 37 24 10 10 10 35 58 60 54 61 70 56 44 42 85 60 64 74 99 93 98 95 86 82 73 87 92 94 93 89 92 90 94 80 59 52 45 34 45 44 46 49 50 50
36 37 40 42 48 51 14 9 7 24 55 54 52 59 78 75 59 59 68 78 95 97 95 98 82 76 73 70 84 94 95 87 97 84 80 89 87 71 52 55 39 43 47 49 49 51 74
38 41 41 43 47 44 55 20 10 6 23 53 51 53 67 83 89 81 85 100 99 88 89 91 83 79 80 84 88 86 89 94 98 100 100 96 97 89 78 63 49 46 52 76 77 88 60
40 45 45 44 42 42 38 51 32 9 7 47 50 54 66 81 88 85 98 90 90 86 68 64 59 70 90 85 87 83 87 95 86 81 100 100 98 97 86 75 70 57 52 69 63 59 49
41 49 50 52 47 42 35 32 37 33 8 26 51 54 65 78 82 80 98 94 98 97 58 54 48 63 67 60 79 73 59 79 74 60 89 88 98 93 91 81 65 87 85 43 49 38 44
45 51 54 57 52 49 41 32 30 40 11 18 54 80 77 66 72 92 76 89 88 63 52 46 53 51 55 54 56 55 50 50 55 45 43 53 90 67 76 82 84 88 51 73 70 76 45
48 52 57 57 55 54 47 34 33 42 24 19 59 71 68 60 71 80 94 98 62 60 55 47 49 50 46 52 49 48 49 51 44 44 38 43 54 74 57 70 75 82 94 62 50 50 54
44 56 58 56 61 60 52 39 50 50 14 11 77 86 60 60 73 57 70 63 69 54 54 43 43 47 44 46 49 47 45 46 44 40 43 46 57 77 69 53 48 48 47 46 54 65 48
49 58 60 66 67 60 52 55 65 31 12 28 84 69 58 59 68 62 56 54 57 52 48 45 43 44 45 48 54 49 47 47 47 42 43 41 64 85 78 60 54 60 51 47 42 53 71
48 59 69 71 62 65 67 68 66 27 11 53 83 83 64 67 65 50 50 50 55 63 52 48 43 42 43 46 41 51 52 52 49 45 49 40 49 67 56 72 54 72 56 51 55 73 50
53 69 77 69 69 79 87 76 76 27 18 70 80 75 83 78 58 58 60 57 55 56 57 49 48 44 40 46 44 45 46 53 50 59 47 46 90 78 50 49 61 64 57 55 72 59 57
83 80 72 79 82 80 85 84 75 27 26 81 93 96 86 63 74 61 65 58 59 56 58 50 51 43 40 42 38 44 44 45 47 50 48 50 87 79 85 56 58 68 56 51 56 53 49
78 72 76 83 85 79 79 93 85 63 21 63 77 92 98 62 61 59 53 58 60 62 57 57 44 43 48 44 48 42 38 37 39 47 50 54 85 89 71 56 60 70 59 53 50 47 46
76 77 81 85 81 84 86 89 91 88 71 77 48 80 78 54 59 63 63 66 64 63 71 58 46 48 57 56 51 47 44 43 43 42 42 53 73 73 82 68 82 53 45 45 47 44 43
77 86 86 88 81 92 89 93 90 93 92 80 60 48 75 53 38 38 57 60 66 61 66 65 59 72 57 58 51 58 58 55 51 47 45 40 48 69 78 64 45 37 45 54 56 56 41
94 94 100 91 82 88 88 87 88 94 98 88 80 73 56 70 49 69 53 45 68 62 60 63 83 83 71 56 57 63 64 49 66 62 52 46 43 56 63 73 62 48 52 45 44 65 48
89 85 86 85 83 87 88 88 93 95 92 94 90 81 83 86 53 58 46 63 66 82 80 67 81 78 76 64 65 63 58 49 62 60 70 68 61 73 65 66 50 33 53 53 73 69 53
83 82 82 79 88 85 90 93 95 94 96 100 97 82 79 81 70 69 66 54 50 45 69 82 78 87 84 77 77 59 53 49 51 46 54 61 67 67 61 69 73 43 61 62 54 54 59
86 84 90 84 91 91 87 91 98 98 100 100 99 100 99 98 80 77 80 78 77 60 61 57 83 81 96 85 62 51 49 45 48 57 43 59 44 48 47 48 38 44 44 58 56 54 60

GFSGBSN_850_rhum_042.txt.gz
RH
82 96 90 95 92 97 97 98 93 86 87 90 94 93 86 80 77 84 80 78 70 66 78 83 74 84 80 86 69 62 64 44 71 89 87 72 56 62 62 53 43 51 38 32 32 37 36
58 88 94 96 94 98 97 93 86 88 83 95 99 98 86 78 79 81 76 77 75 72 75 66 74 73 84 68 49 55 82 97 69 94 78 74 52 57 52 43 45 39 40 35 29 38 38
40 79 88 92 94 99 96 90 86 87 84 96 100 96 85 76 82 84 77 73 79 79 69 69 70 81 86 65 55 73 67 94 98 91 72 66 50 48 54 52 46 40 45 40 35 39 38
30 45 65 82 79 97 98 92 95 90 86 100 89 70 68 73 79 80 73 74 62 69 63 59 70 94 74 57 51 60 68 87 95 83 73 61 52 48 49 53 48 46 46 58 40 38 36
30 30 48 39 83 98 98 92 91 87 88 97 90 74 78 72 62 51 62 64 54 53 54 57 72 82 61 66 54 54 63 79 91 85 65 64 57 52 52 63 67 59 63 57 47 36 39
31 32 36 26 40 73 96 91 93 90 94 82 66 72 65 66 69 67 66 57 57 68 55 88 79 76 64 50 59 54 68 69 99 81 86 63 64 70 64 68 84 70 64 45 47 43 43
32 31 33 28 21 48 88 88 58 96 90 98 72 76 70 71 69 72 79 90 86 79 81 74 81 66 62 79 66 76 79 80 98 99 84 77 86 82 68 51 47 41 45 45 38 38 45
33 33 33 26 15 19 47 64 50 63 92 74 96 52 74 71 77 77 87 80 70 77 76 62 69 68 73 90 82 84 92 99 94 89 73 92 89 57 47 41 39 34 38 42 31 40 42
35 34 34 39 43 40 32 48 14 43 56 55 65 67 46 61 82 88 61 82 81 77 98 84 84 98 91 91 86 91 94 96 79 72 75 74 65 47 44 46 42 36 42 38 41 42 40
36 36 36 37 37 44 60 45 13 8 29 52 50 59 62 53 89 84 84 70 69 76 100 93 88 93 92 94 94 96 88 92 80 76 60 70 61 62 55 48 35 44 32 33 44 56 61
41 38 40 37 35 35 32 51 44 10 7 21 51 50 60 67 72 88 76 71 85 96 97 98 91 83 81 96 94 99 83 85 74 70 80 91 81 84 75 54 39 42 45 49 51 59 60
48 40 45 40 41 38 33 30 30 47 13 8 40 51 51 92 94 92 74 82 99 99 95 97 89 88 96 83 81 97 97 88 88 83 78 90 88 83 72 58 44 44 52 52 50 56 92
44 40 48 45 50 46 45 36 28 26 40 9 29 50 53 69 92 93 98 98 100 93 86 82 91 74 73 83 84 84 91 95 97 99 100 98 97 86 85 74 55 50 61 92 94 95 87
37 37 47 49 50 53 51 46 32 23 30 23 31 47 58 70 98 94 98 100 89 86 68 61 67 69 80 74 88 85 95 98 90 85 100 100 99 96 88 77 85 62 58 84 72 90 74
39 39 46 50 53 52 57 52 34 25 37 24 33 59 54 75 82 86 99 87 95 96 52 53 58 67 70 72 74 90 95 96 89 82 97 100 99 92 90 78 72 72 88 46 68 39 78
38 42 48 52 55 59 62 52 39 35 41 14 26 74 76 67 70 91 99 88 85 58 48 44 55 53 54 56 61 67 77 76 63 61 55 63 98 96 94 87 79 83 61 78 91 88 63
44 42 51 55 61 64 58 52 57 55 37 10 54 71 78 60 76 98 92 94 56 53 52 50 47 46 46 51 49 48 52 50 42 44 41 47 66 97 97 98 98 92 96 78 61 73 87
40 46 46 56 65 62 54 57 62 52 17 10 83 86 72 58 87 73 87 61 55 48 50 41 42 47 43 44 46 47 49 50 41 38 49 48 68 91 76 55 55 70 74 72 90 77 67
49 44 53 70 62 60 72 72 66 31 18 38 88 68 67 61 91 58 53 53 52 51 47 44 42 43 44 44 51 47 52 46 46 43 48 47 77 87 81 67 57 67 55 72 68 71 82
43 68 74 59 70 76 80 73 65 22 33 64 86 85 74 73 58 59 55 52 55 59 52 44 43 42 44 47 40 50 55 50 48 47 45 42 55 76 85 73 71 79 62 57 66 92 66
77 74 63 78 82 81 75 76 68 19 58 86 73 79 78 90 70 69 58 58 52 59 56 48 49 46 44 47 43 48 53 58 51 53 46 55 90 74 58 52 70 69 64 61 76 69 78
74 63 75 75 73 78 83 79 73 45 50 56 84 87 83 74 63 64 65 54 58 56 55 52 52 43 40 44 40 44 46 50 52 55 52 56 93 84 84 55 56 72 64 58 60 61 61
62 74 80 84 75 81 81 85 81 74 44 54 43 75 90 66 58 62 68 66 64 61 57 54 53 43 46 57 52 47 38 36 42 56 58 63 91 93 83 57 61 83 68 62 57 55 56
71 84 84 87 77 83 83 83 80 82 86 80 57 89 74 57 47 58 58 61 63 62 72 65 48 53 55 52 48 45 42 40 41 44 43 63 84 92 92 74 95 55 46 48 53 48 49
83 83 92 89 80 86 85 83 88 92 91 90 80 67 73 55 42 50 51 46 51 58 66 63 67 74 54 57 52 63 62 54 49 46 48 46 65 69 76 88 62 52 58 57 57 57 43
80 84 85 83 75 82 85 82 87 85 91 95 93 70 91 66 53 43 42 47 72 76 70 66 79 79 68 70 66 67 79 61 72 65 52 45 49 68 74 76 79 63 49 42 44 77 50
72 74 76 76 76 84 85 91 92 89 92 96 97 81 87 84 68 62 55 64 55 68 76 75 77 76 77 78 77 69 69 50 66 62 80 76 71 85 80 78 63 46 49 49 84 79 53
76 75 84 84 83 92 89 88 95 88 90 94 97 98 97 90 80 71 65 62 53 49 56 58 77 82 88 88 88 92 66 60 53 46 64 69 82 78 71 81 84 57 62 72 64 58 58
81 80 85 97 97 93 91 91 94 88 88 98 99 98 95 98 82 76 79 76 65 68 65 61 67 64 100 98 87 79 67 49 55 67 48 69 58 64 60 67 46 48 54 55 54 57 62

GFSGBSN_850_rhum_045.txt.gz
RH
48 60 81 80 93 94 98 96 86 89 88 92 97 97 89 86 72 75 81 77 69 71 73 76 78 91 98 98 92 54 67 64 81 88 82 78 84 86 77 72 58 62 48 48 47 49 56
36 62 74 74 90 98 99 98 88 98 92 94 98 95 64 70 72 80 74 72 70 72 73 66 72 82 84 87 63 73 69 71 78 87 84 76 60 72 66 62 58 50 52 46 39 40 38
40 48 75 76 88 93 99 91 88 98 97 85 99 93 75 74 81 79 75 71 71 74 69 61 63 82 91 60 67 72 77 94 90 80 80 71 55 63 55 57 49 45 56 48 52 43 41
33 48 60 71 74 60 88 86 87 89 97 69 80 96 73 53 42 53 69 75 63 65 63 51 59 80 90 54 56 57 69 85 98 93 76 64 57 59 53 51 49 52 52 67 50 44 40
33 40 38 31 52 49 45 86 76 89 88 96 55 66 74 69 62 58 57 61 55 54 52 60 76 81 78 62 56 47 54 65 90 83 88 79 70 54 53 72 76 60 76 66 52 42 43
34 34 34 37 49 39 19 24 80 86 75 69 94 53 62 65 71 70 65 64 74 82 69 86 80 77 68 69 61 54 54 67 93 88 100 80 68 74 70 84 87 83 68 58 59 48 45
35 35 35 37 52 64 46 14 25 63 87 56 63 64 43 53 65 57 72 76 78 77 79 68 64 72 68 61 61 58 55 71 93 90 91 85 82 77 70 70 62 59 59 53 50 42 51
36 37 38 37 39 33 39 44 21 16 34 54 56 54 40 52 56 58 63 76 94 95 86 69 67 65 65 65 86 82 65 94 94 92 86 92 87 68 63 55 58 56 60 57 41 43 49
36 40 41 40 39 36 33 28 33 41 14 10 38 56 55 47 65 57 64 61 70 90 98 90 88 86 93 85 84 89 92 89 77 91 84 76 72 58 60 63 59 54 47 47 48 46 42
43 44 43 43 42 44 40 37 28 24 35 20 10 49 53 56 80 81 86 72 74 80 98 93 87 90 92 95 86 76 90 97 90 92 69 74 70 61 60 61 53 59 37 39 55 59 67
46 43 43 47 48 50 46 47 40 27 25 38 13 41 56 67 63 91 80 65 80 97 94 90 92 84 93 95 91 97 93 89 83 84 68 94 82 82 71 66 48 48 46 55 57 64 62
48 38 40 45 60 55 53 55 51 36 27 36 15 46 57 72 88 89 91 90 95 89 96 99 95 91 93 94 90 95 90 80 79 80 83 90 83 86 87 71 58 50 56 59 62 71 91
48 37 41 45 48 53 62 60 52 40 30 39 14 49 57 66 89 98 92 95 94 92 78 91 82 82 79 87 87 80 87 92 93 98 99 94 96 85 84 80 68 55 62 95 94 96 90
44 41 43 43 49 54 58 83 49 37 36 39 15 56 58 71 80 99 99 96 88 82 76 71 72 74 82 75 85 87 95 97 86 90 96 94 100 96 90 85 89 76 61 87 87 98 84
44 44 44 49 48 56 63 64 52 37 43 27 18 73 72 75 74 91 98 91 89 93 56 67 68 76 77 77 83 92 94 89 86 84 90 98 99 91 87 84 80 92 96 60 70 56 83
48 46 45 49 55 65 54 57 59 50 41 15 30 78 83 84 72 95 98 89 90 65 56 51 67 57 62 72 83 95 96 81 86 72 69 81 99 96 91 93 82 78 66 81 94 100 70
54 48 47 57 65 60 60 65 63 42 22 13 69 80 85 79 85 100 93 91 71 55 54 54 57 51 50 54 56 68 70 76 67 70 59 62 78 99 96 99 97 87 95 79 73 85 89
56 48 61 63 62 73 65 65 61 20 13 18 85 93 78 73 98 86 95 76 56 54 51 49 46 50 54 47 50 52 64 55 47 50 61 51 78 99 87 76 75 75 82 74 91 80 76
52 69 59 60 66 66 68 67 61 29 51 66 84 75 81 83 94 79 58 62 59 55 51 50 46 45 46 49 54 57 60 48 46 52 53 55 80 97 98 72 77 98 83 77 76 76 81
64 62 59 63 62 68 69 65 56 28 60 81 88 95 75 85 72 68 66 59 65 58 57 46 47 44 46 49 41 58 64 52 48 51 47 46 72 76 83 73 77 85 77 73 84 96 74
65 53 64 70 65 71 68 62 56 33 38 58 76 84 85 95 80 78 71 62 58 68 59 51 51 49 52 52 46 56 62 61 53 50 49 60 80 68 61 65 72 71 71 69 96 70 81
54 64 72 75 69 71 70 66 60 50 32 22 86 88 84 84 69 76 71 76 74 67 61 60 56 52 48 59 54 51 60 60 61 59 55 66 92 83 80 61 67 73 70 68 67 62 66
62 70 74 78 74 74 68 64 64 62 54 58 58 70 92 79 66 73 72 72 70 68 61 61 60 61 49 64 58 50 43 42 50 65 67 74 88 92 88 64 66 79 73 66 63 61 59
67 76 81 86 74 75 69 68 68 71 74 72 74 78 76 76 45 55 50 47 56 62 75 69 64 59 58 54 50 45 43 45 49 56 53 80 82 91 93 78 94 52 50 56 56 54 56
71 80 91 87 75 74 72 74 79 77 78 77 75 72 82 84 57 44 41 43 58 70 73 70 80 78 61 60 62 68 69 60 54 51 52 58 70 85 87 82 66 58 59 58 65 63 52
74 75 83 79 74 74 76 79 82 82 81 83 88 80 87 89 73 52 52 56 70 87 83 80 73 72 69 81 78 76 78 68 75 67 52 53 57 75 85 80 90 63 48 45 49 82 51
73 77 84 84 78 80 81 79 88 85 84 85 91 87 86 89 76 74 68 69 60 59 66 79 64 73 79 90 84 81 71 54 81 79 82 75 74 89 87 87 69 48 51 49 84 70 55
78 80 86 93 92 90 90 86 87 86 83 89 97 95 95 93 81 77 71 78 66 56 64 60 75 87 92 94 89 88 80 66 60 60 77 83 88 91 84 83 87 56 61 73 64 60 59
82 80 88 89 87 86 91 87 81 84 92 94 98 99 100 99 78 75 75 86 86 71 72 62 70 65 99 100 100 98 83 68 69 75 57 73 68 78 72 71 48 58 56 56 57 59 59

GFSGBSN_850_rhum_051.txt.gz
RH
35 44 48 41 77 65 54 89 94 94 98 99 80 99 92 40 62 74 65 68 65 63 67 74 68 76 90 97 82 77 83 99 98 93 98 92 78 73 70 59 77 69 65 56 59 67 69
34 42 47 42 60 52 68 77 99 97 99 98 99 86 98 58 41 68 70 67 69 66 55 60 69 77 92 94 77 69 76 78 77 89 84 97 78 66 66 76 76 68 62 66 72 76 70
33 37 44 38 43 64 71 74 80 98 99 99 99 97 85 61 52 54 67 70 62 70 67 74 66 82 93 82 89 81 78 61 62 76 96 93 65 73 71 78 72 67 75 82 81 78 80
34 37 45 38 38 55 78 98 100 96 95 100 100 100 89 51 61 52 59 63 54 61 65 56 61 74 76 82 89 89 72 90 76 76 75 92 72 72 68 63 62 63 78 82 77 70 62
36 36 46 43 39 48 67 87 91 99 98 82 98 91 92 77 56 60 51 51 51 53 53 67 77 84 73 81 90 74 83 84 97 94 92 84 68 70 69 79 81 68 91 77 68 59 58
42 36 49 44 46 54 62 98 92 97 100 92 88 66 66 51 71 63 60 66 68 67 58 75 78 84 68 61 68 74 68 79 92 93 89 82 78 85 83 83 83 81 83 70 68 60 55
46 38 50 45 47 60 71 89 94 93 94 87 90 82 23 46 58 64 57 76 77 76 74 80 72 69 60 54 74 65 61 76 99 93 93 92 95 85 81 74 58 69 67 71 55 53 54
51 40 49 45 43 74 60 62 81 93 96 94 91 69 37 58 56 60 57 51 60 67 75 68 77 80 78 71 84 77 69 92 93 97 95 95 95 74 68 61 58 64 69 65 50 50 55
54 45 49 48 46 80 81 60 58 96 97 92 96 89 38 60 51 60 64 61 67 87 92 82 88 87 78 88 87 89 86 86 93 98 96 92 72 68 69 70 67 66 71 65 60 52 48
60 50 48 47 52 58 88 64 59 92 99 78 91 69 26 62 71 72 74 66 71 82 97 90 88 86 92 89 91 82 91 85 90 96 94 86 68 73 78 74 66 72 51 54 58 64 78
65 54 47 48 52 53 60 66 62 62 98 66 60 30 22 73 74 80 84 81 72 87 92 78 92 92 88 92 83 81 84 89 94 92 94 97 75 77 79 73 54 59 49 50 59 70 62
74 60 46 50 53 58 54 68 49 80 95 52 32 22 28 74 89 86 87 88 91 84 94 97 91 91 93 94 91 94 92 98 86 87 88 93 87 76 76 66 52 55 61 66 75 73 91
79 59 48 57 58 58 58 62 52 89 88 27 22 23 54 76 89 92 91 96 88 89 69 91 93 91 92 88 83 85 92 94 99 99 100 89 94 86 81 72 59 54 64 94 93 94 92
79 51 57 59 59 60 47 58 49 61 34 22 20 63 63 77 88 93 94 84 92 81 87 70 84 84 88 76 85 84 90 97 86 79 93 97 99 90 88 78 75 66 61 88 86 95 82
70 55 60 60 56 47 47 49 52 40 23 27 29 77 76 86 90 97 95 96 81 86 78 80 81 84 90 83 80 90 86 92 82 81 86 97 98 85 87 82 76 85 90 60 79 72 90
61 60 62 59 46 47 49 51 48 26 28 39 63 87 94 95 95 99 94 90 88 71 61 62 84 84 96 90 84 88 94 77 81 81 69 79 98 83 89 81 81 79 72 83 92 93 81
61 62 62 49 44 47 49 51 35 22 27 60 83 88 92 100 99 100 95 92 79 63 58 57 60 63 74 90 86 94 85 77 70 83 69 72 80 95 91 94 88 94 98 89 77 84 82
62 63 57 46 45 48 48 48 43 21 16 58 80 97 97 100 99 95 98 84 62 57 55 57 50 54 56 62 75 74 91 73 69 72 80 68 82 91 86 79 75 83 86 87 90 93 89
64 59 48 47 47 50 46 46 44 38 19 64 80 91 98 99 98 93 76 63 63 62 58 57 53 51 49 54 71 66 64 59 69 66 69 67 87 97 97 90 83 98 88 83 74 81 87
60 52 48 48 47 50 46 45 44 40 30 68 80 91 87 98 92 81 86 78 64 62 60 51 54 48 50 53 59 68 67 58 54 53 56 52 77 76 84 71 86 97 89 92 95 99 81
58 47 51 48 49 52 48 46 44 44 39 62 70 94 89 93 80 80 76 82 74 73 61 58 58 62 57 57 57 72 68 61 56 54 62 59 82 78 69 64 79 86 89 81 98 93 87
50 50 53 47 55 54 55 50 43 44 44 40 50 65 84 77 72 76 74 91 83 79 71 68 67 74 54 68 63 66 68 65 60 60 62 70 89 80 82 61 77 78 77 86 79 79 82
49 53 53 50 58 58 56 53 54 49 47 54 62 77 93 66 60 71 56 62 64 65 73 70 79 76 72 71 70 62 53 51 53 66 72 73 89 88 83 78 66 77 70 72 79 79 78
51 56 55 56 61 60 56 57 59 58 59 68 68 68 53 65 67 57 56 56 61 70 82 73 84 76 76 72 59 52 52 57 57 64 66 78 80 86 92 76 87 54 49 58 65 56 71
55 55 58 63 66 65 64 64 65 62 67 75 67 69 70 83 77 65 70 65 60 64 78 80 83 70 77 69 68 70 78 62 58 62 70 66 83 93 92 97 69 46 62 65 66 61 56
56 55 61 70 72 72 74 70 68 66 69 73 73 69 74 76 86 76 75 66 81 75 67 79 72 76 75 87 83 78 91 70 76 69 58 63 65 76 92 77 92 53 58 52 53 82 56
54 56 70 76 77 74 77 75 73 75 77 77 81 75 72 77 83 76 79 77 69 73 71 70 60 72 80 88 97 91 83 65 83 77 83 81 79 92 86 95 83 55 48 50 78 61 65
55 66 77 84 84 82 77 79 75 80 84 85 91 95 86 85 91 84 80 75 76 73 76 65 84 85 96 94 96 88 90 74 73 70 77 83 87 92 89 95 90 46 59 67 58 61 62
61 74 82 82 87 87 82 74 75 79 82 86 90 99 99 90 84 79 80 79 80 89 76 70 85 96 99 100 98 97 87 92 77 78 71 79 71 81 81 76 48 42 55 50 56 61 60

GFSGBSN_850_rhum_057.txt.gz
RH
59 52 45 45 59 54 80 96 100 100 99 98 97 90 88 93 96 97 92 89 83 82 58 52 54 74 76 78 75 78 76 83 91 92 96 100 94 78 81 86 90 81 76 74 67 56 56
73 62 47 46 55 49 71 86 99 98 99 97 98 97 80 88 95 92 84 73 82 66 62 78 71 76 82 89 71 62 63 76 83 90 97 92 91 74 70 83 76 78 69 70 66 62 63
90 71 53 47 54 52 51 81 99 99 98 98 99 88 97 86 89 92 64 87 80 54 58 59 54 66 72 66 73 73 66 64 80 84 91 84 87 74 68 83 69 74 74 84 82 74 75
98 82 62 48 52 55 61 86 98 98 98 98 98 98 100 99 84 91 82 73 81 50 52 53 56 76 78 66 77 88 83 61 69 94 92 68 98 78 76 71 69 79 78 86 83 83 82
100 93 71 48 53 54 62 92 99 98 99 99 97 99 100 100 94 67 89 63 71 66 67 54 66 82 82 70 84 79 84 69 73 80 84 78 98 80 77 82 87 85 90 84 95 81 79
100 96 80 56 53 54 60 95 99 98 99 97 98 98 97 100 98 66 73 55 66 73 68 68 79 91 73 64 87 81 81 67 77 79 96 86 98 84 89 80 84 92 92 82 90 89 84
98 99 86 63 57 56 54 82 94 99 99 97 98 98 99 100 75 68 73 54 72 72 74 65 63 69 66 68 82 79 75 79 89 89 89 89 98 93 80 67 65 70 79 75 66 81 83
96 100 92 70 62 57 55 70 93 99 98 97 98 98 98 100 90 88 68 60 59 72 73 66 70 75 83 80 85 74 90 90 97 88 91 97 100 77 72 63 65 67 76 78 58 76 76
99 100 96 77 67 54 59 60 80 99 98 98 97 98 98 96 70 71 66 65 65 73 87 80 86 87 81 92 85 77 88 96 78 90 99 99 88 64 72 71 70 71 70 74 67 70 58
99 94 89 83 70 53 60 58 70 100 99 99 98 98 67 54 77 70 72 74 73 76 89 90 94 90 86 83 82 84 87 86 89 95 96 90 72 70 79 76 65 75 61 61 71 72 87
100 92 96 85 65 57 60 44 78 98 95 100 92 75 52 45 86 80 84 81 82 82 91 75 92 89 85 85 80 77 83 70 87 94 91 94 81 77 85 77 57 66 58 62 67 71 67
99 96 98 82 58 61 52 39 56 89 84 77 43 28 28 63 92 87 85 83 86 84 95 94 86 94 91 92 92 82 91 81 85 82 87 91 72 75 73 70 52 61 62 66 72 70 81
98 95 93 79 59 62 43 39 51 45 36 40 33 56 58 86 87 81 83 88 89 88 70 83 89 90 96 94 88 85 87 91 97 95 100 96 93 87 74 73 58 57 66 93 87 88 83
96 96 89 74 62 57 41 39 41 34 24 44 54 67 79 82 79 85 93 81 93 79 93 75 82 88 93 91 95 90 95 90 94 94 100 100 99 90 84 72 76 61 60 83 86 91 81
99 99 88 73 62 48 41 38 39 38 19 55 70 79 84 79 92 97 93 96 87 81 77 77 78 77 91 82 91 94 97 96 86 90 100 99 100 88 83 78 67 72 74 57 78 78 79
95 99 85 69 59 43 40 38 38 40 24 64 80 88 91 88 98 99 95 92 86 65 71 79 92 89 89 86 85 96 99 81 85 88 72 76 98 87 87 78 78 68 64 78 86 87 83
99 96 83 64 53 41 39 37 37 38 29 74 85 90 98 97 99 99 99 89 78 67 68 60 64 86 98 98 86 88 88 81 72 82 67 71 75 95 77 88 92 81 89 84 72 74 78
100 92 77 60 45 40 38 36 37 38 32 71 85 94 97 100 100 98 99 83 69 61 60 56 52 57 84 86 92 89 85 77 70 73 73 70 78 97 97 82 77 74 79 74 83 84 88
100 91 69 56 40 39 38 36 38 37 35 54 80 98 94 95 97 91 80 74 69 68 63 58 56 55 52 64 84 84 72 75 72 63 72 69 85 95 91 79 73 85 84 80 83 85 94
97 84 64 50 39 38 38 40 38 36 37 60 77 95 98 100 96 85 88 88 76 65 63 57 62 54 54 62 70 74 73 69 67 72 64 61 80 76 82 72 83 98 77 76 80 88 69
90 76 61 41 39 38 40 40 39 37 38 36 63 87 88 96 90 79 79 81 88 88 75 67 64 79 65 61 68 78 70 65 65 74 75 73 91 79 67 68 86 85 86 81 83 72 85
85 70 56 38 39 40 41 39 39 38 38 35 40 71 83 69 63 77 65 78 79 73 82 80 80 81 74 82 82 72 70 67 65 64 78 70 92 78 81 69 78 85 82 88 78 71 73
84 67 48 39 40 41 40 40 41 38 37 44 56 71 55 71 64 71 55 57 100 86 76 82 84 75 89 94 89 88 71 62 61 70 79 75 88 87 79 77 68 68 69 78 84 83 78
79 62 44 42 42 43 42 42 43 40 39 38 46 48 51 71 61 62 67 60 70 91 86 80 77 73 80 80 70 67 60 64 63 75 67 78 78 79 83 70 85 51 49 59 72 67 71
71 53 48 44 46 47 44 44 45 42 42 40 44 51 46 89 70 73 69 69 62 63 71 86 81 73 82 71 66 71 77 65 66 69 69 66 78 94 90 91 67 49 63 66 66 62 58
64 46 45 46 48 48 43 48 48 47 45 37 40 49 57 76 93 84 76 72 76 77 74 71 75 77 78 84 80 81 90 74 82 75 67 63 64 73 93 90 79 44 58 56 54 76 52
60 46 42 48 54 44 47 54 58 51 44 45 45 44 54 85 93 79 87 86 78 77 75 79 62 76 86 90 94 94 86 66 86 73 85 85 83 88 88 91 74 56 53 54 72 58 56
57 43 42 52 50 42 54 62 66 55 48 50 52 54 45 84 92 79 77 76 78 75 79 65 88 86 96 96 93 98 92 84 78 69 78 85 91 96 90 95 89 50 57 66 67 65 68
45 42 44 55 47 47 58 66 68 59 48 50 51 56 52 61 87 79 80 81 80 83 85 73 94 100 99 100 94 92 76 95 88 80 70 82 75 78 81 76 52 55 57 70 66 52 58

GFSGBSN_850_rhum_060.txt.gz
RH
96 76 62 52 50 57 57 73 96 99 99 98 95 97 97 91 97 98 76 72 78 67 59 53 53 63 77 84 69 71 80 81 83 62 82 100 97 71 49 54 67 81 54 55 45 53 50
96 97 79 60 52 54 60 65 96 98 98 96 94 97 98 100 92 99 82 76 75 55 54 54 60 56 82 66 64 61 58 73 79 88 84 99 93 68 47 48 65 61 63 62 58 62 51
100 100 96 73 59 54 59 62 93 98 98 96 91 96 98 100 99 76 94 75 68 67 48 52 64 68 91 60 63 72 60 59 73 77 83 100 93 66 50 50 50 52 62 62 74 64 59
97 95 100 84 64 57 57 61 93 98 98 96 89 92 96 96 99 74 76 88 61 61 52 59 75 95 75 60 72 83 87 74 69 80 85 95 100 82 51 55 56 52 54 72 61 65 59
96 97 96 94 74 60 59 62 94 98 97 97 91 91 97 95 99 92 65 83 64 56 66 77 87 95 65 65 81 83 80 87 73 81 87 97 92 75 69 53 59 58 49 52 61 54 58
100 100 99 100 83 67 63 56 88 98 97 98 94 95 94 96 99 91 60 64 53 60 72 66 76 93 70 64 86 84 85 74 78 84 88 95 97 73 57 53 61 54 45 42 51 66 58
100 100 100 100 92 76 67 55 84 99 97 97 95 94 92 97 98 86 74 60 76 79 77 65 64 68 68 82 79 82 77 83 83 94 94 95 100 90 52 42 33 35 43 48 43 59 65
100 100 99 100 85 84 71 57 72 91 97 98 98 95 97 98 93 97 82 63 56 67 70 70 69 73 77 82 94 85 86 76 91 97 81 91 98 85 50 48 47 44 44 46 52 60 60
98 100 100 100 92 85 68 58 59 83 96 99 98 97 98 100 84 84 75 64 64 68 76 84 86 90 86 92 82 92 92 92 89 93 69 78 85 84 57 50 52 46 46 55 49 70 58
99 100 96 100 95 84 64 59 46 74 83 98 98 99 100 98 85 74 76 72 69 65 90 79 88 92 85 82 77 90 96 93 90 88 73 88 85 88 63 50 45 64 44 51 64 55 51
99 100 91 99 94 82 62 54 42 42 69 92 82 98 99 87 87 80 81 79 80 77 84 77 92 87 87 75 79 94 90 86 75 86 90 92 96 89 65 53 40 55 48 47 51 41 45
100 100 96 93 95 77 62 44 39 36 35 48 44 61 45 57 82 83 82 81 82 91 92 95 87 88 79 79 77 78 88 82 72 70 90 89 82 59 54 57 48 48 50 49 47 45 64
100 99 97 94 93 74 60 39 37 37 25 34 54 68 78 85 81 75 81 89 94 84 72 76 85 95 94 86 73 72 69 76 81 92 99 92 75 69 64 59 50 45 47 72 70 78 57
99 100 98 97 92 72 55 37 36 37 29 46 73 82 77 74 70 77 91 73 90 78 82 66 69 86 87 89 83 82 78 83 83 78 80 98 100 75 63 49 59 54 40 53 60 55 45
99 100 99 98 89 69 48 36 37 37 32 57 80 82 74 78 86 94 93 88 91 78 72 65 66 67 97 94 92 94 86 80 79 82 76 100 97 82 69 61 48 59 65 42 57 55 56
100 99 99 97 84 64 42 36 36 36 31 65 87 86 80 90 98 97 84 89 92 62 67 76 77 90 80 97 98 92 89 78 79 73 67 68 99 79 72 64 58 52 45 60 70 75 56
100 100 98 98 80 58 38 36 35 35 31 73 94 92 88 93 100 99 93 96 79 63 65 57 76 97 81 88 76 83 93 84 75 80 67 58 64 97 68 74 78 63 63 60 49 54 56
100 100 98 94 75 52 36 36 36 35 34 77 92 84 88 100 96 96 92 79 74 59 62 53 64 66 81 76 76 74 83 87 80 68 76 58 66 97 99 72 62 54 53 48 57 70 60
100 100 99 90 66 44 36 36 36 35 36 77 96 94 90 99 86 82 75 70 68 62 57 53 59 52 49 64 78 78 66 69 80 58 60 53 67 94 97 71 65 74 62 51 54 63 72
100 100 100 82 60 38 35 37 37 36 36 60 83 91 98 99 96 77 79 76 68 69 61 56 55 50 50 57 57 69 76 63 69 68 63 54 60 65 58 64 56 68 61 63 61 82 60
100 100 99 72 54 35 35 37 36 37 37 56 65 72 86 91 72 70 75 70 78 74 67 63 58 60 53 57 60 68 71 70 66 69 65 57 88 76 56 64 71 70 62 59 76 61 70
100 100 94 66 44 35 36 36 35 37 38 39 54 67 78 62 65 69 68 71 76 72 73 66 66 68 56 63 68 63 61 62 78 63 68 60 88 71 77 61 64 70 61 61 60 57 55
100 100 87 60 38 35 36 36 36 37 37 42 44 48 54 66 62 62 58 68 94 82 75 80 79 66 71 77 79 80 72 59 54 66 71 68 78 81 75 62 59 64 54 54 56 58 56
100 98 82 52 36 36 36 36 36 35 35 37 38 55 48 56 55 55 56 58 96 91 81 81 72 66 75 81 75 71 59 58 56 60 55 62 67 70 76 63 68 45 41 46 49 46 46
100 98 71 44 37 36 34 36 37 36 35 36 38 38 49 59 56 56 55 57 58 93 91 77 78 72 84 77 57 60 60 58 60 59 54 49 55 75 74 64 48 54 56 52 53 56 48
97 92 60 41 36 37 36 36 38 36 32 36 40 44 46 53 68 75 56 62 50 57 75 76 74 78 82 66 62 65 68 64 70 68 58 54 49 55 66 72 59 46 49 53 49 60 55
98 81 50 40 36 40 36 38 39 35 38 40 41 48 52 74 91 77 64 60 72 62 57 67 65 78 90 73 72 67 68 56 69 62 70 68 66 70 66 68 50 42 49 53 66 65 61
92 73 45 37 37 40 37 41 40 41 44 46 46 45 46 85 91 75 70 77 73 67 57 62 78 81 96 84 75 79 68 64 64 61 65 64 65 67 66 71 72 54 57 59 65 55 56
81 53 43 37 40 38 40 48 33 42 45 45 46 46 47 71 89 74 75 72 70 75 72 83 90 96 93 100 81 74 70 74 67 62 58 74 62 61 62 57 59 58 61 73 57 53 50

GFSGBSN_850_rhum_063.txt.gz
RH
88 87 92 94 76 59 57 59 71 91 96 92 91 91 91 90 94 93 98 97 86 82 60 54 51 44 74 65 54 73 71 80 80 87 85 91 97 90 59 43 65 69 57 42 48 50 43
98 97 91 92 90 68 60 61 61 84 95 94 88 87 88 90 96 97 96 98 78 86 63 52 50 43 75 54 59 64 74 62 77 94 75 97 87 75 47 34 55 59 77 58 53 58 48
99 96 92 96 99 79 62 61 60 78 91 92 90 87 96 88 91 97 100 98 98 77 82 50 50 90 77 60 59 69 79 80 73 91 88 82 98 100 55 33 36 50 76 78 52 65 41
100 100 98 100 97 95 67 63 62 72 92 95 94 87 88 90 91 96 100 87 92 80 74 66 63 84 68 64 68 72 75 78 64 88 80 100 93 97 92 34 38 51 62 96 56 57 50
100 100 100 96 100 98 77 66 63 68 85 95 95 90 88 90 94 95 99 76 89 72 67 77 93 81 56 68 72 70 76 73 77 88 80 99 89 97 56 47 55 56 58 91 78 49 47
99 100 100 100 100 100 83 73 64 63 72 94 95 91 90 89 95 97 97 73 62 63 78 90 79 81 69 52 66 82 82 82 82 86 98 99 98 95 57 55 66 50 42 40 65 55 51
95 99 100 100 100 100 84 80 62 59 63 92 97 97 94 95 97 99 89 99 93 87 82 60 55 57 55 70 82 83 76 79 88 93 96 97 100 93 50 39 26 28 31 27 34 43 54
83 100 100 99 100 99 90 81 61 59 48 93 95 98 94 94 98 99 98 88 65 75 63 68 71 70 71 84 83 77 88 76 90 96 89 94 100 66 43 32 32 27 33 35 31 52 50
84 99 99 98 100 99 93 81 61 54 39 84 94 96 98 97 99 95 99 78 59 67 68 69 82 79 74 91 85 82 79 86 92 97 79 83 92 72 56 43 38 30 34 41 46 44 49
78 100 100 99 100 99 91 79 62 43 36 42 84 95 99 95 91 97 90 70 65 66 91 71 81 80 81 84 87 93 92 92 96 91 62 68 78 75 83 42 34 42 29 30 37 54 54
73 93 98 100 98 92 92 74 59 38 35 27 38 76 97 97 99 95 92 76 78 87 90 71 84 85 79 71 91 93 86 89 70 74 57 82 79 95 89 41 31 40 32 39 48 48 34
66 92 99 100 97 94 91 71 52 37 34 21 36 60 43 48 98 90 78 80 91 90 88 81 74 72 60 65 76 88 81 69 67 74 77 82 73 86 66 41 37 40 46 46 44 38 60
73 89 100 100 99 94 92 69 43 36 33 28 57 71 78 94 92 75 79 97 97 85 62 68 94 91 86 61 60 62 63 66 78 95 99 96 95 86 64 54 45 37 45 64 62 70 57
89 87 100 100 100 95 89 66 38 36 33 41 71 75 72 71 70 78 100 78 90 71 63 53 71 88 87 80 75 61 66 74 71 59 100 100 99 60 49 44 52 40 34 47 54 51 41
89 87 100 100 100 96 85 59 35 35 34 49 78 82 82 76 82 88 97 99 88 68 63 56 57 93 100 94 72 83 76 64 53 63 91 100 95 67 56 48 43 52 61 38 47 37 40
91 83 97 100 100 94 81 51 34 34 33 57 94 99 100 81 94 93 97 78 77 59 63 62 67 88 99 94 89 96 77 71 69 61 56 80 100 74 62 53 49 48 37 50 59 65 42
88 87 98 100 100 96 75 42 33 34 32 66 100 84 85 86 94 98 92 92 69 57 58 53 69 86 84 98 76 70 85 81 66 65 54 52 71 97 60 65 61 56 58 49 43 48 53
86 91 100 100 100 96 68 36 32 34 35 76 98 80 91 97 92 81 78 72 71 52 54 49 56 58 70 67 69 64 90 85 66 59 59 51 70 94 95 65 56 45 44 41 51 63 45
94 97 100 100 100 95 60 33 31 35 35 89 78 83 86 98 82 71 65 64 62 54 50 48 54 50 43 55 71 61 69 70 73 59 64 53 78 93 93 65 58 62 49 45 41 56 64
86 93 100 100 100 91 52 32 32 35 37 74 79 83 87 100 82 65 62 62 62 62 51 49 47 45 45 49 49 61 72 74 69 58 61 51 54 62 64 57 48 63 50 47 49 76 53
84 94 100 100 100 79 41 31 33 35 38 68 70 53 69 85 63 53 62 56 60 60 54 50 47 49 46 52 52 62 67 69 63 64 58 52 79 74 50 56 61 59 50 47 66 59 64
96 99 100 100 100 70 36 32 34 37 40 65 49 55 71 59 57 55 64 59 60 65 60 55 53 51 44 53 59 57 62 60 59 56 58 51 86 68 81 54 56 63 52 50 48 48 50
100 99 100 99 96 60 34 33 34 37 41 57 36 49 50 58 52 52 49 59 68 69 69 67 61 51 61 68 62 61 56 48 49 59 58 60 71 86 73 52 51 55 44 45 47 45 47
100 100 100 100 84 53 35 34 34 38 38 42 38 56 40 50 50 51 51 63 85 73 71 69 59 53 68 71 70 58 49 47 46 47 48 60 65 66 76 57 68 44 34 38 40 40 39
98 99 100 99 68 50 34 33 35 38 37 40 37 50 39 43 45 50 52 54 82 88 76 70 69 67 74 66 52 56 55 53 53 50 46 43 50 66 74 56 40 52 49 46 48 63 50
100 100 100 94 51 42 37 32 38 35 36 38 40 38 48 45 49 48 49 52 59 73 75 70 70 79 79 54 53 54 58 52 63 64 49 47 44 50 56 64 52 50 44 45 43 62 53
100 100 100 80 47 46 42 34 39 35 33 37 40 38 59 58 75 59 46 49 53 52 58 61 64 71 81 57 59 53 54 47 59 59 66 61 55 64 64 63 46 46 46 47 60 69 52
100 100 98 71 44 43 44 37 38 35 38 38 44 44 61 67 89 80 76 61 57 52 48 59 68 71 82 72 65 57 54 48 51 47 51 54 57 56 57 70 66 53 53 56 56 49 50
100 100 96 60 47 46 46 41 36 39 44 44 44 46 56 66 92 82 71 67 79 73 61 76 75 75 80 94 68 61 62 57 53 62 50 62 54 54 51 55 53 48 51 59 53 55 58

GFSGBSN_850_rhum_066.txt.gz
RH
98 100 99 92 91 89 90 69 64 65 69 93 89 83 82 96 88 90 96 89 99 77 80 66 49 42 40 71 56 71 58 65 66 76 94 95 94 91 79 65 60 84 56 52 51 61 48
98 100 100 99 97 99 92 86 69 66 70 95 92 84 82 92 86 86 92 97 93 99 72 83 53 45 88 63 55 58 68 70 64 78 88 88 88 86 67 62 58 67 62 51 67 72 73
96 97 99 100 99 100 100 94 74 68 70 93 95 88 84 90 84 90 88 100 76 98 90 73 70 60 85 67 54 57 66 72 73 72 93 85 80 99 90 58 46 57 75 76 74 80 56
89 92 92 99 100 100 100 99 79 72 68 90 96 89 88 88 88 91 90 100 88 84 95 69 66 80 77 58 56 59 62 69 75 82 87 90 84 99 97 59 40 59 70 90 64 78 79
89 90 93 98 100 99 100 100 83 76 65 76 98 94 90 88 90 92 93 95 64 83 73 65 82 82 64 62 63 61 70 70 68 89 86 86 98 96 87 89 54 63 89 83 77 70 84
82 94 88 89 100 100 100 100 89 79 62 62 89 95 97 87 89 94 96 62 62 57 81 94 81 73 72 54 66 70 74 79 76 90 98 96 98 92 91 84 77 65 79 81 77 73 91
79 90 89 91 100 99 100 100 93 81 61 56 72 95 97 94 96 98 86 95 94 92 89 68 59 58 53 60 73 74 76 82 83 86 96 97 99 98 92 72 42 48 53 92 79 71 88
77 82 91 88 94 100 100 99 95 82 61 45 48 94 90 98 98 98 93 91 72 81 74 69 64 67 65 75 82 70 83 76 84 89 93 99 99 83 86 68 39 39 44 48 66 62 67
95 82 88 86 88 98 100 98 90 78 58 37 37 87 85 94 90 88 91 91 76 82 77 67 75 75 70 86 86 81 82 81 84 96 94 93 93 85 84 56 40 33 35 48 76 68 85
100 93 90 93 98 100 100 96 88 73 50 33 33 42 96 98 87 97 91 86 64 80 99 78 76 78 76 83 88 91 78 92 94 98 94 85 87 87 76 76 39 43 31 44 54 62 75
99 99 89 94 95 100 100 96 88 69 40 32 25 36 83 99 89 93 90 76 75 85 99 65 81 75 79 73 83 91 79 95 97 90 76 94 95 85 69 39 29 39 31 43 51 54 46
99 100 98 99 89 100 100 96 91 64 34 31 30 52 49 59 91 96 81 78 88 98 83 80 68 68 61 62 72 77 84 87 65 70 75 85 86 84 88 46 40 40 45 50 52 57 82
95 100 100 98 96 100 97 97 86 57 32 30 53 69 78 99 98 83 82 92 100 96 58 72 81 78 71 83 68 58 62 77 78 93 98 92 95 76 80 57 48 48 55 86 87 88 76
88 99 100 100 97 100 94 98 84 48 31 30 68 71 73 97 70 80 98 96 89 62 64 55 70 82 80 72 58 54 60 76 63 77 100 99 97 88 60 49 57 59 48 77 63 81 65
99 90 100 100 98 100 93 99 79 39 31 36 74 72 89 77 74 95 97 100 91 70 56 54 94 100 94 76 64 74 67 71 58 63 100 94 100 85 59 49 54 52 70 43 60 37 73
97 92 100 100 98 100 95 98 80 34 32 45 83 94 98 76 86 92 99 85 72 58 61 57 69 82 97 81 77 82 68 65 62 55 57 74 96 72 61 54 50 61 44 62 84 69 50
98 99 99 100 99 100 98 99 70 33 32 64 95 88 93 82 86 97 100 93 66 55 55 58 66 76 95 94 81 67 76 76 58 58 58 68 69 91 67 66 62 62 82 55 53 69 84
100 97 99 100 100 100 99 98 62 33 33 72 86 89 96 94 98 78 93 66 63 50 52 50 54 62 74 74 68 72 83 78 62 56 59 56 82 98 90 68 56 63 48 48 76 73 64
96 97 100 100 100 100 99 95 56 34 33 77 80 91 98 91 84 77 63 62 58 50 49 47 54 49 44 58 71 70 74 71 59 57 61 53 84 97 98 71 57 71 56 48 48 69 82
87 98 100 100 99 100 100 89 51 34 40 70 78 85 94 96 81 75 59 59 62 60 50 47 46 44 46 52 49 67 74 70 67 58 59 55 69 80 90 71 66 74 58 52 59 91 68
94 99 100 100 99 100 98 82 45 36 40 76 75 72 71 87 73 63 58 53 53 60 52 47 48 48 46 54 58 70 67 74 68 63 61 60 79 74 54 58 68 60 57 55 69 66 72
98 98 100 100 99 100 97 73 40 38 46 66 61 63 71 54 51 58 63 61 52 63 64 52 53 48 45 60 61 62 62 64 67 62 61 58 93 74 82 53 55 64 56 54 52 55 54
98 99 95 100 96 100 93 55 40 38 38 64 54 51 50 57 58 57 57 56 61 62 66 62 57 56 67 67 60 56 51 46 52 61 65 64 82 90 82 53 53 69 58 55 53 49 49
99 100 97 100 100 100 78 50 38 37 40 49 40 47 52 59 57 55 53 68 74 71 61 63 58 56 68 66 63 56 47 46 46 49 50 68 73 90 88 69 86 50 37 42 42 45 43
99 100 100 100 100 98 72 51 38 38 43 44 36 48 42 54 51 50 56 73 79 79 71 63 66 67 70 65 62 64 63 56 55 50 46 48 63 85 93 85 53 60 52 52 55 69 57
99 94 97 100 100 86 70 49 38 38 43 43 39 42 42 48 56 48 53 70 83 79 79 68 68 75 78 71 60 61 72 55 68 66 49 48 50 66 67 79 65 60 46 44 43 83 54
99 99 100 100 100 86 78 44 37 39 41 44 41 46 50 64 70 58 56 57 51 61 70 64 66 69 76 72 72 61 69 51 68 67 74 70 64 78 75 81 64 52 48 46 71 76 48
99 100 100 100 96 79 70 49 41 39 41 45 43 48 51 78 81 73 68 58 53 51 64 62 73 74 82 85 73 77 74 57 57 52 55 73 78 74 68 80 77 50 54 66 59 51 55
100 97 100 100 86 80 82 57 42 37 40 46 45 55 48 66 92 74 70 70 66 77 69 75 74 75 81 88 73 68 66 63 59 72 52 72 70 74 63 72 53 44 56 55 53 58 67

GFSGBSN_850_rhum_069.txt.gz
RH
92 99 100 100 100 100 100 99 98 85 73 69 92 92 90 86 87 84 90 86 91 84 98 79 79 48 36 78 76 69 63 65 62 74 77 87 98 92 77 73 75 83 74 62 54 56 64
84 88 92 99 100 100 100 100 100 94 76 72 90 94 94 93 86 87 83 86 99 67 96 92 76 67 63 92 55 57 58 55 62 77 86 99 88 94 90 80 74 68 70 67 65 67 83
55 66 83 90 99 100 100 100 100 98 82 74 86 97 92 89 87 86 87 90 98 71 90 98 70 81 83 62 55 59 59 59 70 69 86 96 77 98 96 74 65 64 83 77 79 73 75
83 54 58 86 92 98 100 100 100 100 88 79 73 98 92 97 90 90 90 90 99 74 77 94 76 77 81 55 62 58 54 66 65 71 85 88 86 93 98 80 65 70 72 92 86 88 83
100 89 62 79 95 91 96 100 100 100 92 81 65 95 92 96 86 87 90 90 60 56 79 72 64 82 82 62 62 64 63 62 71 73 86 81 91 99 97 92 86 80 85 83 90 84 83
98 100 92 72 90 95 92 100 92 100 94 81 63 70 90 95 90 92 88 62 58 58 79 76 80 91 68 56 61 62 69 75 77 80 91 91 96 96 97 95 96 83 86 74 89 84 81
99 98 100 89 85 95 90 91 100 97 96 78 61 48 70 90 94 92 80 73 82 91 93 69 70 64 62 61 64 72 74 76 81 82 87 94 99 98 97 90 83 56 64 84 68 72 75
97 100 98 100 99 94 97 86 100 100 94 72 54 39 47 67 84 94 87 91 80 82 83 58 67 66 66 70 85 72 76 81 84 89 91 99 96 81 76 79 79 57 84 86 77 75 70
79 94 100 98 100 99 98 99 99 99 93 69 44 36 33 61 96 91 71 89 84 71 88 69 70 76 75 81 85 82 78 78 86 96 94 98 84 78 87 88 86 63 71 79 76 74 75
49 64 92 99 100 99 99 95 100 99 93 67 36 32 29 66 87 92 87 85 77 67 96 78 80 78 78 85 86 81 73 90 88 95 100 98 87 84 84 85 66 62 43 55 73 89 100
92 71 74 89 97 99 100 100 100 100 88 60 34 29 44 73 97 88 85 80 72 79 88 69 79 64 71 79 79 89 86 89 90 94 96 97 96 89 86 70 58 51 48 63 76 87 65
94 93 86 72 83 100 99 100 100 100 85 45 33 45 43 60 96 90 85 76 82 92 83 83 70 74 69 71 83 81 91 96 94 78 81 88 94 89 84 76 42 55 56 62 66 65 85
98 91 62 84 92 99 100 100 100 100 84 45 39 64 69 97 91 82 82 88 98 93 60 80 75 81 81 84 74 74 80 81 85 90 99 97 93 78 82 63 56 53 63 95 88 84 76
98 94 91 94 99 95 99 100 100 100 84 38 63 68 80 99 89 79 86 98 80 58 70 69 76 79 78 74 61 57 65 81 70 82 94 97 92 93 73 58 61 54 52 79 82 92 70
95 96 97 100 98 96 99 100 100 100 54 38 73 70 80 76 74 82 92 89 86 78 58 78 95 95 87 78 73 77 71 74 64 77 95 100 100 82 71 60 54 57 74 46 61 53 81
97 100 96 97 99 94 100 100 100 96 60 46 78 80 93 77 81 92 98 88 76 60 63 66 88 90 89 68 82 92 78 72 69 65 75 79 98 83 64 54 53 58 48 63 83 65 59
91 93 99 95 96 94 97 100 100 83 58 66 83 92 95 88 88 96 93 85 69 57 57 61 72 88 77 85 86 78 81 74 62 60 62 72 75 82 69 84 76 70 73 61 64 77 83
82 85 100 94 98 100 92 100 100 76 64 89 90 96 99 90 98 93 96 65 60 56 53 53 58 65 91 82 74 79 85 82 64 59 63 62 88 94 90 76 62 66 62 58 78 73 74
88 83 98 90 100 95 93 100 99 83 65 84 85 97 99 98 98 90 70 71 64 57 53 51 58 50 58 64 78 75 80 72 61 64 68 62 88 94 90 70 61 73 63 58 66 73 84
72 86 97 96 98 80 100 100 98 70 49 78 73 97 99 99 92 84 79 77 75 58 52 48 49 48 50 58 59 76 71 72 67 63 58 58 78 79 88 74 70 81 67 60 68 90 73
73 95 82 100 80 91 100 100 97 65 57 80 70 84 80 98 94 87 67 67 71 71 56 49 51 51 51 65 64 75 66 79 70 64 61 67 80 73 62 62 66 64 66 67 74 68 74
83 99 98 98 96 100 100 100 84 61 80 86 75 77 70 77 67 87 71 68 63 71 68 56 56 60 68 75 75 67 68 71 77 66 66 66 88 74 83 56 58 65 61 59 62 62 64
90 94 98 99 100 100 100 100 90 58 53 82 63 60 58 72 79 80 80 63 70 73 68 65 67 71 78 72 65 57 52 54 61 72 73 73 82 91 86 56 54 68 62 61 57 51 56
90 95 99 100 100 100 100 98 78 64 59 58 50 55 54 78 77 70 73 74 76 78 72 66 61 68 68 61 56 50 48 50 51 53 56 75 78 92 91 71 76 51 41 45 58 64 57
98 96 100 100 99 100 100 92 70 52 56 50 43 49 44 77 65 73 80 88 80 75 76 72 66 69 66 67 68 72 70 61 61 59 52 60 77 92 92 90 59 60 52 52 61 74 63
96 96 99 97 97 100 99 92 69 53 54 52 40 46 45 63 68 65 87 80 88 85 81 72 71 72 72 84 73 74 84 71 79 70 54 53 58 75 80 84 78 62 48 46 45 84 57
93 99 100 100 100 100 99 93 68 53 52 55 42 48 47 62 72 64 71 83 69 79 88 72 68 72 74 86 81 72 78 56 81 81 79 76 72 80 79 88 70 59 53 47 62 66 56
96 96 100 99 100 100 93 94 65 54 52 56 43 54 46 76 87 69 60 57 57 62 84 65 73 77 87 86 81 86 78 66 67 63 73 77 85 83 81 90 90 52 60 65 64 62 66
83 100 100 100 100 100 95 82 59 54 52 55 52 58 45 49 92 80 74 70 64 62 67 75 77 84 86 90 85 81 75 76 74 80 59 76 70 75 72 75 53 53 64 66 64 74 78

GFSGBSN_850_rhum_075.txt.gz
RH
93 93 91 99 98 93 82 87 75 93 100 99 100 100 95 97 95 92 82 89 84 86 92 79 90 100 84 72 49 34 63 64 57 53 61 77 84 82 83 88 80 83 80 65 68 56 60
86 83 85 88 94 100 100 91 84 90 97 100 100 100 96 97 87 74 85 85 90 90 92 82 92 100 90 92 46 60 67 62 61 60 62 73 87 90 82 71 88 72 74 74 66 71 60
89 81 77 81 93 90 99 99 90 86 98 99 100 100 99 92 87 91 73 85 92 88 96 81 86 100 99 66 45 65 67 65 65 63 70 72 81 89 87 76 69 83 92 73 73 83 72
99 95 82 84 72 94 98 98 90 95 92 96 100 100 99 98 64 43 89 87 89 92 92 73 95 98 74 57 60 58 61 61 62 62 68 78 88 93 100 89 91 92 86 83 64 81 73
98 98 99 70 81 81 84 94 89 98 94 91 100 100 99 94 60 50 91 82 72 66 88 85 100 80 77 61 59 60 63 66 66 65 73 87 90 99 98 99 98 85 99 83 81 76 85
98 99 99 98 90 82 97 99 94 84 99 98 100 99 100 95 52 61 81 68 64 66 83 89 86 97 70 60 64 65 67 75 77 78 82 93 97 99 98 100 94 84 90 74 79 82 77
94 99 99 99 99 98 99 99 98 83 91 100 100 100 100 88 51 62 74 76 86 91 87 77 76 77 64 67 70 70 79 81 80 89 88 86 100 99 97 95 84 69 82 77 88 82 86
91 100 98 99 98 99 100 95 63 60 71 100 100 100 99 72 57 64 69 78 76 77 78 68 73 77 71 75 76 76 84 77 90 96 84 91 97 80 83 93 93 72 89 84 86 87 88
97 92 97 100 99 100 98 91 79 50 68 96 100 100 99 53 58 74 72 72 75 75 85 68 72 72 77 79 88 86 80 80 87 80 76 94 77 69 86 88 95 90 82 90 85 86 77
93 93 91 87 84 90 98 99 89 62 86 96 100 100 96 54 68 75 70 86 76 72 88 77 84 77 77 83 87 83 80 82 96 93 84 99 85 77 81 89 77 86 74 78 88 95 100
86 82 96 90 98 99 80 79 86 76 72 100 100 100 78 51 78 84 77 83 69 76 82 62 80 73 82 83 79 89 94 92 89 93 98 98 98 88 77 78 72 73 68 86 84 97 99
91 90 84 91 93 96 99 94 87 82 77 99 100 100 70 71 91 86 85 75 70 83 75 86 74 77 84 77 84 95 98 98 98 98 100 98 86 72 70 74 78 75 77 83 88 100 98
89 86 85 84 95 87 98 99 97 97 90 99 100 94 85 68 77 87 84 79 90 88 53 92 82 77 80 79 79 84 85 92 98 99 99 97 92 87 78 95 79 79 90 99 98 98 94
93 90 89 88 88 87 93 99 100 95 98 99 100 94 87 81 87 86 80 89 82 64 81 76 79 79 86 80 70 77 71 100 80 96 99 92 99 90 76 72 82 70 60 93 92 92 78
91 91 92 89 91 88 92 99 99 96 98 99 100 98 91 100 96 82 80 94 78 72 76 86 79 87 87 74 81 78 85 87 80 85 97 98 99 85 78 65 59 64 77 50 68 63 84
92 93 94 99 91 90 93 99 99 97 68 93 98 100 98 98 91 87 88 87 87 67 90 79 84 77 84 76 80 82 84 75 81 68 72 79 93 76 71 57 57 56 50 63 83 85 68
98 98 99 98 98 94 92 97 98 100 100 94 100 99 99 100 90 97 91 93 73 62 65 84 85 91 82 80 81 84 85 67 76 70 72 69 76 78 71 89 89 67 63 69 70 76 80
100 98 98 99 92 85 81 97 98 100 100 100 99 99 97 100 98 93 98 85 60 64 59 58 70 70 77 84 72 86 89 90 74 69 82 77 83 95 85 71 73 72 68 63 74 68 82
100 98 96 98 83 82 85 91 91 100 99 100 99 99 100 100 99 98 77 64 64 63 59 61 67 69 73 82 86 82 81 76 73 71 72 63 85 91 78 64 58 71 64 67 71 76 81
98 100 99 100 89 84 98 97 98 99 98 100 98 100 100 100 94 77 78 73 76 60 55 51 56 50 71 73 74 86 77 75 72 67 64 65 82 71 86 68 70 76 71 65 67 84 76
100 100 97 100 97 100 97 98 98 100 100 99 99 97 86 97 96 92 76 70 74 70 59 53 55 55 58 78 77 82 76 77 70 67 64 67 84 78 71 69 70 70 69 72 77 64 64
98 97 95 97 97 95 98 98 98 100 99 100 97 92 84 86 80 90 84 80 70 78 67 61 64 66 60 68 65 74 76 75 76 70 70 74 92 74 83 65 62 66 64 72 72 68 62
98 95 95 97 98 98 100 95 99 90 100 99 97 93 75 85 94 87 82 81 74 76 71 68 68 74 75 70 66 64 59 65 66 73 79 76 85 86 84 70 56 68 57 65 67 66 66
99 97 98 100 99 100 88 80 68 90 99 98 89 80 72 94 91 78 71 72 80 72 79 70 65 68 67 60 54 51 53 60 64 72 68 76 82 88 89 69 79 53 49 53 68 74 75
95 94 100 97 93 96 79 80 98 100 99 88 79 64 61 95 86 85 82 84 78 76 79 73 70 67 60 55 72 73 78 66 67 64 67 70 82 94 87 88 65 56 56 70 65 74 65
88 90 88 100 99 98 100 99 100 100 96 71 58 56 59 76 88 88 87 75 82 87 83 76 78 71 68 80 76 80 87 75 83 73 60 62 75 80 84 88 84 56 53 53 54 75 60
92 98 93 100 100 100 100 100 98 99 93 74 63 54 53 77 90 83 87 80 77 80 91 78 76 76 72 85 82 77 84 70 88 84 79 76 73 86 84 90 74 56 57 52 68 63 63
90 88 93 99 100 100 99 100 99 100 97 74 69 55 50 78 92 80 70 72 76 72 87 76 75 74 86 84 80 85 79 75 76 70 76 81 87 87 83 86 92 60 59 61 64 70 67
88 86 94 100 98 98 98 100 100 100 98 92 67 53 54 58 90 87 83 78 74 69 71 80 75 84 77 90 89 89 84 82 79 82 69 77 74 79 78 78 70 73 69 66 64 66 70

GFSGBSN_850_rhum_078.txt.gz
RH
94 95 94 95 91 91 82 89 99 97 90 89 93 99 100 100 100 91 85 87 81 85 88 88 82 86 100 83 70 54 87 86 67 57 58 65 83 88 91 84 81 90 77 76 68 64 69
98 98 99 99 92 98 96 98 96 96 96 99 90 91 100 100 99 100 74 90 77 86 90 88 81 93 99 93 58 49 42 71 61 62 61 65 77 81 90 87 76 74 76 72 72 70 65
100 99 99 98 99 100 100 100 99 100 100 99 98 84 99 100 100 100 77 77 80 89 91 95 76 95 100 78 51 55 66 59 64 67 66 66 74 85 90 82 71 70 86 82 69 65 78
94 95 96 97 99 98 99 100 99 98 100 99 100 95 92 100 100 97 69 68 87 86 93 92 72 96 89 58 64 54 64 60 61 63 67 72 80 84 89 87 81 89 76 96 73 65 77
97 98 94 97 96 97 100 97 97 99 100 71 91 99 100 100 100 91 64 80 80 72 94 95 92 100 69 65 60 58 62 64 66 62 70 80 88 95 94 98 99 87 96 92 78 64 71
94 99 96 97 100 98 99 100 98 85 90 74 63 99 100 100 100 86 65 67 77 67 99 100 96 92 68 62 64 65 66 72 75 78 80 95 99 100 100 100 95 86 97 99 78 79 76
94 95 98 96 90 100 99 99 99 93 82 55 60 87 99 100 100 89 73 62 98 92 92 59 64 80 68 68 71 74 75 80 82 84 97 91 99 98 91 96 91 98 80 84 75 84 83
91 94 89 91 98 96 99 100 99 95 100 83 69 97 99 100 99 76 79 79 82 74 84 67 66 82 72 75 79 79 84 82 93 94 85 95 98 78 78 94 98 100 81 96 92 76 82
86 86 88 92 88 97 98 99 100 99 75 86 60 98 100 100 94 80 74 65 73 77 73 70 70 71 71 76 81 82 86 82 90 96 87 92 75 73 80 96 100 92 82 93 87 86 83
93 86 91 87 90 86 93 93 97 100 91 74 86 93 100 100 93 70 86 68 72 75 88 79 84 77 78 82 86 83 85 85 86 94 85 92 71 86 93 100 84 88 87 83 87 92 98
90 94 91 91 87 84 81 88 96 87 75 70 76 78 99 100 75 70 74 77 75 80 80 61 87 78 83 92 82 92 91 91 89 91 96 95 88 91 95 83 77 92 78 82 87 97 97
92 95 96 93 90 89 89 85 91 92 87 93 84 92 100 99 85 79 84 81 74 80 76 90 82 88 96 88 85 95 99 99 99 99 100 99 91 76 63 75 85 82 82 85 94 94 94
86 93 92 92 98 97 87 85 95 91 86 90 96 98 100 100 91 91 86 79 90 88 53 94 87 81 84 81 80 88 92 99 100 100 99 98 91 83 80 86 82 78 77 98 96 97 98
91 90 94 92 97 98 96 96 91 96 90 84 96 97 100 97 100 96 87 85 87 65 84 78 79 81 87 79 72 78 94 100 97 97 100 97 96 89 85 90 95 80 85 92 93 93 93
94 88 99 98 99 96 89 97 96 92 92 99 84 99 99 100 99 97 93 95 77 72 79 89 78 87 84 74 82 79 87 95 85 86 91 99 100 93 91 72 62 68 84 57 73 64 90
94 95 99 100 98 100 98 94 96 91 97 93 97 100 100 100 100 90 94 84 80 67 82 72 80 74 77 76 80 81 85 75 84 83 84 87 98 79 66 61 56 51 52 65 83 85 78
91 100 100 100 100 99 91 83 88 98 100 100 100 100 99 100 100 99 97 90 80 68 76 80 88 87 80 80 82 85 86 68 83 78 72 68 77 80 71 90 90 65 65 71 70 76 74
98 100 100 99 100 98 93 86 92 99 100 100 100 100 99 99 99 93 98 82 64 69 64 66 71 73 79 82 69 87 90 91 77 77 82 77 83 97 84 72 76 76 71 60 74 70 81
100 100 95 94 100 99 97 94 99 89 99 100 100 100 100 100 100 98 86 72 70 64 64 65 74 65 69 82 87 83 83 76 75 76 77 66 82 90 75 64 60 72 67 71 70 73 81
100 97 96 99 98 99 98 97 86 98 99 100 99 99 100 99 96 85 79 73 80 60 58 54 59 66 75 79 77 84 78 78 73 72 72 66 80 71 83 66 71 77 72 64 64 81 78
98 98 99 98 98 97 96 97 95 98 100 98 99 100 100 100 98 93 84 71 75 73 58 54 58 60 66 84 80 82 78 77 69 70 67 67 84 80 76 73 72 71 72 70 76 64 60
98 97 98 99 98 100 98 100 98 99 99 99 98 98 99 88 80 91 85 72 73 80 66 63 67 70 62 68 63 80 76 75 78 70 73 74 92 74 82 67 62 69 69 74 71 65 62
96 96 97 97 98 98 99 100 99 98 98 100 99 94 74 81 91 92 83 72 72 72 73 73 65 72 72 69 65 64 65 71 70 74 80 77 84 86 85 72 61 66 57 67 70 68 67
87 97 97 100 100 95 79 77 88 98 100 95 89 77 73 87 93 89 72 69 78 73 78 74 65 67 66 59 58 54 57 62 66 77 69 76 83 88 87 71 76 52 52 55 66 74 77
91 92 99 100 98 86 74 82 86 99 99 95 95 74 70 97 88 80 79 84 78 76 81 77 74 72 62 57 71 74 78 62 70 68 78 73 82 93 87 90 62 59 59 68 65 65 68
90 84 99 100 100 97 100 100 100 100 98 94 71 59 67 82 85 94 85 74 83 86 84 79 80 72 69 78 74 79 83 74 79 72 59 65 71 81 83 88 80 58 56 57 55 73 62
94 85 96 100 98 98 97 96 97 97 88 66 54 55 62 84 94 90 85 83 75 78 92 82 76 72 69 83 78 79 85 70 80 79 80 81 77 81 80 91 74 58 59 53 68 62 62
90 81 96 100 98 97 100 100 97 87 68 67 53 50 55 87 95 82 75 78 76 72 84 78 74 70 83 81 79 84 80 79 78 70 76 79 85 86 80 79 90 69 60 58 63 70 67
90 90 100 99 99 93 97 100 98 93 82 64 50 59 66 67 88 87 86 83 78 73 75 81 74 81 77 89 88 90 84 84 80 80 73 78 74 79 80 74 70 73 73 68 67 67 69

GFSGBSN_850_rhum_081.txt.gz
RH
95 97 98 99 99 99 98 100 100 99 97 99 100 100 99 93 100 100 99 98 76 70 84 88 89 80 98 96 77 66 65 93 77 56 52 51 64 86 89 84 83 85 69 67 71 73 69
96 98 97 95 99 98 99 98 98 91 93 96 99 100 100 97 100 100 100 98 66 69 83 88 92 83 97 94 70 51 40 87 78 60 61 62 66 77 91 90 82 71 73 68 66 63 68
94 95 96 94 92 95 96 95 98 99 98 98 99 100 100 94 100 100 100 96 66 76 87 90 89 86 98 76 76 47 59 59 65 64 66 66 68 75 82 71 82 76 79 66 63 74 61
97 98 98 96 96 96 98 93 97 98 98 97 99 94 98 97 97 100 100 88 63 85 84 92 81 90 96 78 55 55 55 64 60 62 66 69 73 82 87 77 73 76 81 86 51 62 59
92 96 93 94 91 93 94 92 98 99 98 100 99 58 89 97 100 100 100 83 58 90 82 87 78 96 82 65 56 59 61 62 64 66 67 71 80 88 86 90 85 79 84 83 65 62 56
95 92 94 94 95 96 96 96 96 98 99 100 99 76 62 92 100 100 96 69 66 78 90 87 98 98 67 63 60 66 66 64 70 74 79 82 90 99 96 100 94 76 92 77 74 63 66
96 93 96 96 99 92 93 94 96 99 98 89 99 88 100 98 99 100 95 75 84 90 99 81 79 72 64 66 70 73 74 75 80 82 80 90 100 95 94 87 91 99 99 80 66 59 70
93 95 91 88 87 93 85 84 93 96 97 87 92 80 93 100 100 100 83 62 73 78 91 80 73 70 76 74 76 78 78 84 92 92 91 90 96 71 71 94 98 97 93 90 88 54 68
92 97 90 91 93 92 93 93 89 86 92 98 75 92 76 100 100 99 84 81 80 85 76 73 69 73 71 76 80 84 87 80 94 96 93 95 71 70 77 97 100 100 96 85 96 80 80
94 98 96 92 96 94 92 93 88 93 89 100 83 82 69 97 100 100 93 81 85 81 87 78 88 79 82 81 88 82 83 78 86 91 90 90 74 81 81 100 100 91 75 70 78 84 100
91 96 97 92 96 93 90 86 92 88 91 85 82 92 71 98 95 98 86 84 84 75 96 72 91 82 82 86 82 92 90 93 84 88 98 85 96 88 96 99 88 94 78 83 84 90 86
87 94 99 98 98 98 93 96 90 95 86 72 72 84 95 89 99 93 97 95 74 85 94 93 91 96 98 94 88 97 99 98 98 99 100 99 88 91 77 76 88 82 75 82 87 86 94
89 91 92 98 99 98 100 97 87 89 87 83 84 98 98 98 99 97 99 83 94 96 60 97 94 88 86 88 88 92 92 100 100 100 98 96 89 82 82 80 79 86 72 94 92 93 95
93 95 93 95 100 99 97 95 99 95 88 97 90 90 91 98 100 98 98 95 97 67 79 78 81 85 88 80 78 83 90 100 98 89 99 96 91 89 84 90 90 85 93 83 89 90 93
94 88 98 96 99 100 93 98 97 94 89 98 99 100 98 100 98 100 97 98 85 72 77 90 75 83 84 76 80 77 87 98 85 85 99 98 95 83 86 83 84 87 91 60 74 70 80
97 100 100 100 98 96 96 100 93 93 99 100 100 99 100 100 99 100 99 89 79 64 77 67 79 72 76 78 78 82 82 96 97 85 82 95 100 79 73 79 77 69 55 64 82 82 95
97 100 99 99 98 97 100 94 96 99 97 99 100 98 100 100 100 99 100 87 78 69 73 71 86 88 75 79 81 86 90 74 85 82 82 72 78 95 71 89 92 66 65 66 67 76 80
99 99 100 98 98 96 90 92 93 93 97 98 100 99 99 100 99 99 96 78 66 74 72 72 70 79 74 79 81 88 96 92 79 81 79 75 77 96 84 70 75 80 68 56 68 70 75
98 99 99 98 97 96 91 91 87 88 99 100 100 100 100 99 100 100 78 83 70 66 66 69 77 64 70 82 85 86 85 74 77 78 79 67 81 87 75 64 61 74 70 70 67 69 75
98 98 97 97 97 96 96 99 98 92 99 97 99 99 100 99 98 82 81 73 76 61 59 59 74 72 74 82 80 84 81 75 73 77 75 63 81 70 79 68 74 74 73 66 61 73 70
98 98 97 98 100 99 99 99 91 86 97 97 99 100 100 100 99 90 86 76 74 73 59 57 62 68 72 83 80 82 78 73 65 72 70 67 86 81 74 70 72 74 75 71 75 62 59
93 92 99 100 100 99 88 88 92 94 96 94 98 97 80 97 85 86 83 72 77 79 69 64 71 71 62 72 62 75 74 75 82 72 75 74 93 74 80 67 62 73 74 76 70 63 64
85 95 100 100 85 78 74 71 83 95 90 90 95 90 75 86 91 82 80 72 74 72 76 76 68 71 78 70 65 65 67 75 75 76 78 75 82 85 84 71 61 65 64 66 71 71 66
82 97 100 99 84 75 70 56 75 81 68 68 76 72 68 91 86 84 76 74 76 78 78 75 67 68 69 64 60 58 59 62 66 78 72 76 80 85 86 69 75 53 54 58 63 72 75
87 96 100 100 85 74 69 68 83 79 75 69 71 63 70 79 89 78 80 83 75 76 82 83 80 73 64 58 71 72 76 62 70 71 78 73 80 90 86 88 58 57 60 67 66 65 72
94 88 98 100 92 86 80 79 96 90 85 81 74 58 67 80 88 93 87 76 84 84 82 81 81 73 65 77 71 76 82 73 78 74 63 65 73 79 81 86 72 56 57 60 58 65 64
83 83 97 93 99 95 94 97 100 96 86 66 52 60 61 83 94 91 86 84 77 82 91 83 74 68 64 81 76 79 84 72 76 74 80 82 82 84 77 90 74 58 59 57 66 56 63
74 86 92 92 92 100 100 100 93 86 63 49 56 50 56 80 91 84 79 80 76 77 81 78 74 70 81 79 77 83 80 81 78 70 75 77 83 84 81 85 87 67 62 60 62 67 66
70 73 88 98 93 92 98 99 95 89 76 57 47 64 67 66 85 85 84 81 78 78 75 78 70 79 77 88 88 90 81 85 80 77 74 80 74 77 76 72 65 66 70 68 64 64 68

GFSGBSN_850_rhum_084.txt.gz
RH
94 95 93 94 98 97 97 98 91 91 88 85 85 92 96 98 100 95 100 100 100 92 49 80 88 84 79 90 80 68 72 90 74 57 61 62 54 53 48 49 57 54 38 35 37 48 52
97 97 98 98 94 95 99 92 98 92 88 90 92 98 98 99 99 94 98 100 100 91 48 87 85 83 92 77 70 62 45 91 86 64 64 67 57 68 58 55 55 40 51 51 49 45 47
97 96 97 97 96 95 97 96 94 86 93 90 93 95 98 97 100 90 98 100 100 71 65 87 88 80 98 72 69 76 50 55 68 64 68 71 71 68 59 50 50 59 60 44 44 46 48
95 96 93 94 95 90 89 96 90 89 95 97 98 98 100 66 100 99 95 100 98 69 82 92 92 94 86 74 66 55 55 57 67 60 63 68 76 75 71 57 54 52 47 72 32 33 45
96 94 91 93 88 92 89 79 90 89 94 98 98 94 97 82 81 100 100 99 84 73 85 83 86 92 75 71 65 58 60 67 76 66 66 73 76 73 73 79 71 60 58 50 47 36 39
96 89 86 96 82 84 87 93 92 93 88 95 95 94 76 97 64 100 99 95 87 78 88 98 91 87 79 68 59 63 64 66 73 76 81 82 77 78 75 86 85 64 83 57 49 36 44
91 95 93 96 85 84 80 86 81 91 92 89 80 81 61 98 80 100 100 92 99 97 100 80 82 71 71 65 67 70 72 82 82 82 76 70 87 90 78 70 70 72 86 88 62 39 45
89 90 95 95 90 96 92 89 85 82 86 93 81 83 66 87 99 99 98 88 72 75 86 76 81 86 71 70 75 83 76 70 69 74 66 86 91 58 53 58 81 97 89 71 57 51 51
88 86 93 92 92 98 97 96 90 89 84 84 84 78 82 67 98 100 94 84 83 74 68 84 92 84 73 72 71 75 86 77 68 82 75 78 52 53 59 67 99 97 97 79 82 60 54
96 87 84 91 94 97 97 98 99 92 97 78 77 70 88 74 100 100 96 88 77 82 84 77 84 83 78 84 74 78 84 72 72 74 72 82 61 71 77 87 97 98 87 92 95 96 79
94 86 92 87 91 95 99 100 80 96 80 75 79 71 81 83 100 100 94 84 85 84 90 74 88 82 87 80 82 90 86 94 76 74 96 69 80 96 100 99 97 76 64 94 96 86 70
90 89 98 99 95 94 96 99 99 87 83 80 76 86 93 81 99 90 91 90 89 90 79 93 88 82 86 80 76 98 98 98 99 99 100 92 69 81 85 63 73 60 67 93 74 68 91
92 94 97 99 99 96 96 89 98 97 84 81 86 98 95 97 98 98 93 99 97 93 66 95 84 81 73 76 78 85 94 100 100 97 95 77 83 70 74 81 72 77 77 89 87 76 83
93 98 98 97 100 95 91 98 97 98 98 94 93 97 96 89 98 100 98 99 95 75 68 69 68 73 72 69 69 77 95 98 97 89 87 93 85 75 70 73 90 77 76 77 72 83 92
90 96 94 99 98 98 92 100 97 99 99 100 99 95 96 73 94 100 99 96 84 73 65 71 71 78 79 68 67 69 94 97 82 88 99 97 84 66 72 73 80 73 80 49 64 60 61
86 97 98 99 97 98 97 93 97 98 98 99 100 99 100 83 98 100 99 93 82 62 66 55 57 57 61 63 66 66 93 96 96 89 84 97 98 76 90 82 78 82 53 66 66 73 81
96 94 97 97 95 88 92 92 92 97 100 98 98 98 100 100 100 98 100 86 72 67 67 57 65 62 56 66 63 68 93 88 72 71 69 62 67 90 66 75 77 59 54 51 52 54 50
97 96 99 97 96 95 95 94 88 92 99 92 96 99 100 100 97 98 97 78 74 73 76 61 59 60 56 64 67 70 78 77 70 69 62 57 59 80 69 54 57 67 60 48 49 52 49
97 100 98 99 100 100 98 95 85 81 90 96 97 100 98 98 99 100 72 70 85 73 62 62 62 55 61 68 69 69 72 64 69 65 67 54 60 77 67 55 54 58 54 49 46 47 57
95 98 99 100 99 87 83 92 81 70 75 82 97 100 99 99 98 70 79 96 91 65 55 59 64 59 61 63 60 68 65 64 68 66 71 54 57 64 57 68 66 62 58 52 46 58 41
93 99 99 97 96 80 69 67 67 70 70 69 98 99 99 100 86 66 77 92 68 69 55 53 57 58 58 60 61 64 63 56 59 66 58 50 78 72 58 57 63 64 62 55 60 50 48
86 97 99 92 71 68 68 56 56 66 68 68 92 88 99 83 80 62 67 83 68 71 65 57 60 61 52 55 54 59 58 59 66 54 59 55 82 65 73 49 54 62 59 60 57 53 48
91 98 98 96 69 55 48 55 62 74 68 69 70 68 66 83 72 62 71 75 68 64 70 71 59 56 60 65 64 67 65 65 62 62 58 57 68 77 72 54 49 51 50 56 61 59 53
98 100 98 98 77 62 63 68 79 77 63 53 61 61 58 71 63 67 71 72 72 71 66 71 68 57 67 65 61 57 54 53 53 57 56 57 63 68 71 54 65 48 44 52 52 60 59
98 92 99 99 87 74 76 84 82 79 77 64 59 61 67 67 68 68 72 69 70 71 74 78 80 71 62 60 53 55 54 55 56 54 54 52 56 69 67 57 50 53 53 56 56 56 60
83 92 84 98 98 87 83 89 91 80 73 63 56 64 63 57 73 87 77 72 65 67 66 77 77 70 64 52 50 62 60 62 63 59 52 52 51 54 61 65 52 50 52 57 55 49 58
83 100 88 87 98 98 91 91 84 76 56 51 57 57 57 77 92 86 74 75 77 72 69 75 73 67 60 54 55 56 60 62 56 57 64 61 58 65 61 64 53 46 49 57 56 46 58
83 95 100 87 88 99 100 89 86 77 65 52 51 50 55 70 88 78 78 80 79 77 59 74 66 63 65 60 58 61 58 62 61 59 60 60 59 57 60 63 54 58 59 53 50 62 62
78 70 97 96 79 77 96 99 96 89 79 56 50 63 62 61 80 80 77 74 72 75 79 74 67 72 69 65 64 61 57 63 60 50 62 61 53 52 53 46 53 64 64 63 61 62 68

GFSGBSN_850_rhum_087.txt.gz
RH
97 97 97 96 97 96 95 92 97 93 92 90 95 91 97 92 97 91 96 94 100 100 99 61 72 78 79 75 60 62 66 83 81 65 54 48 42 38 39 30 34 37 36 31 26 26 30
98 98 98 92 90 91 91 92 87 79 87 98 98 97 89 99 91 98 99 97 100 100 98 72 81 78 87 59 69 66 52 77 73 66 58 53 43 45 45 36 37 31 32 35 38 36 33
98 99 99 97 93 94 93 88 88 88 90 87 93 99 87 93 97 100 100 100 100 100 84 68 83 88 83 59 67 66 44 59 72 63 55 61 59 57 43 39 37 36 44 40 33 30 35
93 90 93 94 82 88 90 83 83 91 91 89 98 94 95 96 73 86 100 100 100 100 95 95 85 90 64 78 76 72 60 63 71 67 65 67 69 66 59 52 47 45 40 47 28 23 25
93 91 87 92 91 83 79 79 81 83 95 94 92 90 93 79 81 59 98 100 100 95 88 89 95 85 56 71 75 68 61 63 68 69 72 70 74 62 60 68 74 56 68 43 33 24 26
97 92 85 89 94 86 84 82 85 84 79 93 94 89 90 82 96 59 100 98 99 89 88 93 95 81 71 61 68 67 66 64 67 65 71 72 72 68 63 82 75 50 56 49 44 31 27
99 97 90 90 93 96 87 92 90 81 79 82 73 94 85 80 97 100 100 97 97 98 98 78 72 60 65 67 67 70 72 69 68 68 64 60 92 84 62 51 53 58 59 55 42 35 52
99 91 89 92 92 95 86 95 97 82 78 74 76 68 65 92 84 98 100 90 83 86 90 89 75 75 69 69 69 74 77 70 66 66 53 78 88 54 44 44 53 65 77 70 53 42 46
100 74 92 95 93 96 95 90 100 95 88 79 71 60 63 89 83 99 100 94 82 84 73 81 84 71 70 75 62 71 76 66 60 61 63 81 53 47 50 57 70 78 94 79 86 54 55
99 90 94 85 90 99 96 94 92 82 82 81 62 56 60 72 99 100 99 91 95 81 95 74 76 73 78 73 65 69 78 67 58 66 61 70 56 60 68 86 91 97 67 90 96 85 71
86 86 98 78 92 94 96 86 97 77 75 78 74 70 67 72 94 100 99 96 87 89 97 69 73 80 80 67 74 82 79 78 76 89 85 65 60 69 85 95 94 83 84 84 78 72 89
91 73 96 92 97 94 90 83 85 82 81 82 79 78 76 93 71 93 94 88 95 98 96 92 78 81 73 66 70 93 96 95 99 98 98 93 67 66 67 67 74 77 98 96 81 94 93
74 82 78 90 88 93 98 90 86 97 86 88 93 87 87 99 99 89 96 98 100 98 64 88 77 71 59 68 68 82 96 100 100 100 100 65 64 60 60 94 69 78 98 93 97 98 71
85 97 75 81 91 96 88 91 98 86 92 98 95 90 94 100 86 96 99 99 99 74 88 58 59 60 58 59 67 91 96 99 89 90 83 86 81 63 55 67 83 74 77 96 84 79 82
73 86 84 96 98 98 93 93 92 98 99 100 98 100 100 95 94 99 99 100 98 82 58 58 57 64 67 57 71 70 77 84 80 72 99 92 90 59 67 71 78 76 98 72 95 67 81
92 92 98 98 98 97 91 89 91 100 98 99 99 99 94 96 99 100 99 97 80 61 50 42 48 42 56 55 76 69 75 95 90 81 77 87 94 82 84 73 69 84 63 70 66 84 74
97 98 98 100 100 99 99 86 88 95 85 85 97 96 99 99 99 98 100 100 93 64 48 48 46 46 46 57 56 59 74 84 80 73 68 62 70 84 89 85 69 64 53 47 47 46 70
97 100 100 94 95 93 75 75 90 90 73 83 94 98 100 100 96 98 100 93 85 72 60 50 45 42 44 50 57 56 66 60 58 58 56 47 55 68 59 46 49 56 47 40 48 45 40
97 100 98 96 92 84 67 68 86 78 67 90 98 100 99 96 82 99 70 90 92 74 56 52 49 45 49 53 58 55 58 54 56 56 57 46 51 72 58 52 49 48 42 37 37 42 41
79 91 95 98 77 67 61 64 74 74 68 77 93 100 98 98 94 62 68 98 92 61 49 49 52 47 47 48 46 58 54 53 55 54 63 53 48 60 64 69 60 58 47 36 41 56 38
74 87 92 82 72 58 53 64 68 67 66 79 90 90 88 92 67 51 68 85 57 58 48 46 47 47 45 48 46 49 48 45 45 53 47 46 69 69 49 48 54 54 52 45 54 37 42
80 78 93 95 75 65 56 62 73 70 65 91 69 74 74 63 57 48 69 52 51 58 55 49 50 44 38 49 43 46 43 43 47 42 47 44 76 60 75 44 48 51 46 46 49 44 38
79 68 91 91 90 66 69 79 79 71 60 84 65 71 50 63 51 48 64 60 58 54 58 57 49 45 55 62 56 54 52 49 48 50 47 50 62 76 68 46 45 49 46 48 51 49 51
72 67 76 88 84 89 87 82 73 68 61 62 63 60 46 57 45 56 60 57 60 60 56 59 59 47 63 63 57 49 46 45 44 44 43 47 53 60 74 52 66 47 40 47 47 50 50
73 75 79 76 80 86 88 86 79 73 68 59 58 68 47 50 52 58 54 56 56 59 63 66 68 68 65 56 47 47 46 50 47 46 44 43 46 59 70 45 43 48 46 48 51 45 49
69 74 85 89 81 76 91 87 81 58 53 58 64 60 57 52 55 69 55 56 48 52 56 66 68 65 68 43 40 51 46 51 48 47 45 44 42 50 49 60 43 46 46 49 46 47 45
75 79 83 90 98 88 80 80 76 67 57 58 59 55 66 62 81 79 56 55 65 57 54 60 60 60 60 46 43 43 47 51 46 45 48 48 44 54 48 53 45 42 45 50 52 51 50
47 88 84 80 80 90 88 82 72 72 70 52 60 50 58 71 82 81 76 71 70 65 50 64 60 60 55 56 48 46 44 46 48 43 43 46 45 43 46 51 48 46 51 50 47 51 52
48 55 96 92 85 74 72 83 78 78 82 59 55 64 63 65 77 74 74 72 68 66 73 70 60 57 57 55 48 44 44 46 44 36 48 47 43 45 43 42 43 51 52 59 58 53 58

GFSGBSN_850_rhum_090.txt.gz
RH
99 97 96 92 95 92 87 92 85 80 87 92 94 93 94 94 77 95 92 89 91 98 100 97 89 59 60 80 64 55 58 75 73 64 53 46 43 37 41 34 32 37 35 32 33 32 29
99 97 97 94 97 96 89 86 82 78 72 94 92 90 92 95 96 87 95 98 95 100 99 96 80 69 78 60 66 62 73 90 71 59 56 50 45 44 45 41 38 32 34 34 34 36 38
97 95 96 94 90 100 98 90 82 82 80 93 94 94 96 93 92 97 89 98 98 100 100 98 73 70 86 60 64 58 51 75 70 60 54 57 59 56 51 48 39 37 47 42 39 37 38
98 98 96 93 92 90 98 93 81 86 81 82 93 92 94 90 90 85 43 89 100 99 100 96 80 89 71 70 67 65 62 59 70 62 61 65 67 64 60 54 51 54 51 63 39 34 31
97 99 97 95 88 93 94 88 80 84 82 79 88 94 93 93 88 72 29 95 100 100 100 96 76 85 62 68 71 65 60 60 66 65 69 64 70 62 60 70 80 65 78 60 45 30 31
96 100 99 97 91 88 92 93 75 78 82 77 76 82 87 87 71 100 79 100 98 100 85 83 95 82 71 61 69 65 59 61 68 65 67 68 70 76 68 89 91 69 65 58 53 38 37
99 99 93 93 93 91 98 97 90 75 71 84 89 85 74 72 80 94 99 100 92 97 99 84 77 59 58 62 64 65 65 65 63 60 62 60 90 90 68 66 69 71 77 69 55 40 42
88 90 73 84 82 89 94 98 92 76 72 81 74 69 70 72 61 70 99 100 99 89 97 87 71 62 63 63 64 68 69 66 64 75 57 70 86 60 50 52 58 62 74 80 61 51 52
82 68 95 95 83 92 90 87 89 84 74 72 77 59 76 60 75 94 99 98 91 80 79 88 80 73 70 72 56 66 75 65 63 59 55 69 57 48 56 64 78 82 86 87 86 71 65
99 93 96 95 98 95 96 94 82 81 81 74 66 53 73 59 90 100 100 97 98 82 98 88 83 68 72 69 61 69 72 65 60 64 55 67 58 60 63 84 87 97 68 84 95 98 92
91 97 99 97 96 84 98 94 78 78 73 72 67 65 68 64 96 98 97 96 97 85 94 73 66 72 68 68 72 77 74 73 69 66 88 70 60 72 84 82 80 97 85 94 90 95 91
95 99 97 100 99 95 93 85 82 80 78 77 80 82 88 84 94 86 98 96 99 96 97 97 78 79 69 72 70 81 87 82 95 98 90 91 72 76 72 57 65 89 96 79 76 94 97
88 97 100 96 96 92 94 89 83 85 87 94 98 98 92 92 89 99 88 94 98 96 74 85 77 66 60 66 70 74 86 92 99 99 98 79 69 61 63 76 65 83 100 98 97 97 98
86 96 98 99 99 99 98 87 91 98 100 98 97 91 88 86 76 89 88 98 97 99 90 60 62 64 90 57 63 78 88 98 92 89 98 86 90 63 54 72 85 82 92 99 96 96 96
97 99 98 95 97 96 85 84 92 96 92 100 92 86 90 90 86 88 85 98 100 100 63 59 59 72 67 58 60 72 79 74 72 77 100 96 96 60 68 72 75 82 99 92 100 96 99
91 97 90 92 87 89 88 75 91 97 91 84 84 90 97 92 95 98 97 98 99 74 46 47 52 44 64 57 69 85 79 86 75 73 73 80 95 75 75 69 74 89 73 82 93 97 94
100 84 91 86 86 89 74 78 94 92 96 93 94 96 98 98 98 92 100 100 88 58 52 52 41 43 51 56 65 69 78 82 74 75 72 76 88 85 83 81 71 76 65 62 51 61 96
97 82 81 78 69 70 67 74 86 97 97 96 98 97 100 99 96 98 99 84 84 70 51 45 42 41 46 51 56 60 62 61 56 56 68 57 66 84 62 50 49 57 53 45 76 67 63
88 83 67 71 62 62 70 71 74 77 87 88 98 99 99 94 94 97 85 92 88 57 49 44 47 46 48 48 59 56 53 52 54 55 63 60 70 88 70 59 51 52 47 44 42 60 61
82 72 46 58 62 64 72 79 74 69 78 85 90 98 93 93 91 69 86 90 72 53 46 46 48 45 44 47 45 58 53 51 52 53 57 62 56 73 84 70 63 67 55 47 60 82 66
77 80 48 46 53 64 71 78 75 68 66 79 74 84 80 92 66 60 66 71 55 56 45 43 46 46 46 49 47 48 44 44 49 50 57 54 74 72 50 47 54 56 55 54 61 48 64
72 88 65 48 52 66 72 77 77 67 65 81 71 79 76 55 47 54 62 53 55 56 60 49 50 45 46 60 61 53 51 52 53 47 45 47 84 66 82 44 47 52 51 54 57 56 46
67 75 72 58 62 60 69 74 72 70 76 77 68 62 60 52 49 53 61 58 58 54 56 56 57 50 62 67 60 52 47 45 46 52 53 55 74 87 86 54 48 64 52 53 53 57 60
69 66 74 68 61 67 66 68 67 64 61 71 65 57 46 57 52 59 54 53 59 60 60 59 61 54 63 60 55 50 44 42 42 44 43 52 57 77 94 65 81 51 44 48 51 50 54
69 69 70 74 70 72 71 65 62 52 52 57 58 60 55 55 53 54 52 56 56 59 63 65 66 64 59 60 60 53 57 52 45 45 47 48 56 77 87 82 49 50 50 54 61 57 52
47 79 72 71 77 74 75 76 64 54 56 57 60 62 62 52 70 61 52 51 55 58 63 64 60 57 61 59 49 51 58 50 51 46 44 46 49 63 70 77 58 54 50 48 47 68 52
34 64 79 73 75 79 82 76 70 66 53 54 51 50 60 60 75 67 70 68 59 58 65 60 58 59 56 64 54 56 64 49 60 52 54 58 52 61 67 70 55 48 47 49 61 65 52
22 40 70 80 74 71 74 78 73 67 67 48 52 56 52 71 77 74 71 72 69 64 66 65 63 64 66 71 60 56 57 56 55 42 45 54 58 62 54 60 67 47 52 57 54 50 52
14 32 48 72 85 80 69 66 75 73 68 71 46 51 61 60 67 70 71 71 70 70 75 68 62 58 66 74 62 54 56 52 48 52 48 60 53 65 53 59 46 46 53 56 52 54 56

GFSGBSN_850_rhum_093.txt.gz
RH
91 94 94 93 96 90 90 91 86 87 78 91 94 93 95 87 98 94 86 76 96 83 98 99 100 86 55 69 74 64 47 57 53 60 55 47 43 41 44 45 42 41 40 37 36 35 35
94 90 99 96 95 91 91 89 86 85 85 78 87 95 94 92 92 91 84 85 92 96 87 100 98 78 65 68 66 62 55 60 58 55 52 48 51 48 44 45 45 39 40 39 37 38 36
98 99 96 99 98 98 93 98 86 79 87 90 83 76 94 94 89 95 94 92 82 95 100 99 97 70 72 66 66 61 71 75 73 56 56 56 56 55 59 58 52 50 59 55 47 41 44
96 99 99 97 97 95 95 85 83 75 79 80 73 76 78 86 95 99 69 21 73 92 100 97 84 81 74 70 64 56 51 74 70 59 60 64 63 65 63 58 58 64 61 76 48 45 42
99 98 96 96 88 86 94 91 92 93 77 78 75 66 79 71 80 87 57 36 82 98 100 98 80 74 78 69 68 66 58 67 67 65 61 65 67 66 62 75 88 75 86 74 61 42 44
95 76 68 83 81 88 96 94 86 94 84 82 84 79 86 57 45 84 100 99 100 100 98 91 86 82 78 70 70 61 57 62 68 67 66 66 68 89 83 93 88 75 81 68 71 50 49
77 99 95 87 82 95 98 93 81 91 79 80 89 84 84 62 54 70 100 100 94 97 98 88 81 64 65 67 67 61 58 66 64 60 63 66 90 98 83 77 78 82 87 90 72 59 59
94 98 90 96 91 98 86 93 78 75 82 77 85 79 73 63 62 79 99 99 100 98 96 82 66 62 61 61 68 68 64 65 59 72 66 74 89 67 64 62 71 77 88 86 69 57 65
98 98 82 77 88 98 88 89 96 75 80 74 73 69 53 57 88 90 98 98 99 100 96 95 76 66 66 66 62 72 68 64 63 66 58 69 65 52 59 72 83 85 92 86 87 77 79
99 98 86 85 95 99 100 95 87 73 72 68 65 53 58 56 83 98 98 98 93 93 97 98 87 76 66 66 61 63 64 66 63 68 64 68 59 67 72 80 87 97 69 74 99 100 96
98 98 97 90 97 99 96 93 91 80 75 78 78 68 69 58 78 92 96 98 99 87 96 84 76 75 63 72 76 80 70 73 75 75 80 75 82 77 86 88 76 88 80 97 100 90 90
99 94 95 98 88 95 99 94 88 88 93 89 80 75 75 84 88 88 95 92 86 91 99 98 80 80 78 73 82 82 82 76 84 86 82 85 75 82 81 64 63 71 98 100 91 92 99
99 99 99 94 93 90 90 87 93 99 100 93 81 74 79 74 87 84 91 93 95 94 93 91 90 77 71 77 84 75 85 94 94 91 91 79 86 72 70 84 70 80 100 98 97 97 93
100 100 95 97 87 85 75 81 86 89 86 89 86 88 75 68 76 75 84 98 90 96 88 63 72 67 92 68 81 80 90 85 86 82 90 97 84 68 63 71 88 89 99 99 96 97 98
99 90 98 92 62 63 67 79 78 75 75 80 84 93 75 74 72 75 84 97 100 96 68 68 72 95 80 68 73 77 80 71 77 87 93 100 84 64 71 70 78 80 99 88 100 100 97
96 96 92 56 47 58 69 72 73 88 76 79 78 89 98 82 74 76 90 99 98 95 66 59 69 63 80 71 67 92 81 82 71 73 76 85 98 73 75 73 77 88 79 89 94 97 96
89 97 73 47 47 49 70 82 87 90 93 92 88 97 98 84 85 89 97 100 85 66 56 74 48 56 64 72 77 86 82 82 73 75 75 79 98 79 82 82 74 79 87 80 70 76 92
97 94 69 50 53 54 60 86 86 88 87 82 98 98 95 93 88 99 98 85 82 74 57 47 50 54 55 56 59 64 65 67 68 60 81 76 82 98 74 52 54 58 70 55 78 71 76
99 74 61 59 57 62 65 71 71 71 76 80 95 95 80 82 99 92 82 84 85 72 57 48 51 52 49 54 64 58 62 56 56 61 68 64 78 91 69 58 59 66 57 54 57 68 80
98 91 65 63 62 66 69 60 58 69 74 79 76 96 74 80 87 85 80 87 82 53 49 49 50 47 53 52 50 62 59 57 53 56 58 61 68 76 90 77 67 75 64 61 62 81 81
70 75 77 73 61 62 59 54 52 54 61 78 76 89 81 92 76 78 73 68 68 70 56 45 50 54 52 56 52 53 47 50 52 52 61 64 73 70 64 52 54 57 61 67 73 63 74
62 67 69 71 71 64 61 63 58 46 56 75 76 70 71 76 54 61 66 69 69 65 65 65 71 65 72 80 74 74 64 62 60 57 49 58 80 70 89 48 49 53 56 60 65 66 63
61 64 64 70 69 69 64 62 58 53 48 60 69 67 64 53 64 68 72 60 65 60 58 60 64 62 75 71 65 59 58 53 48 52 60 61 80 90 90 71 60 70 53 56 60 64 62
55 62 69 68 70 70 67 64 53 48 46 49 59 55 63 69 70 68 60 60 65 66 65 64 60 62 62 59 54 51 51 49 45 48 50 60 66 88 92 70 80 56 46 50 54 58 62
36 61 64 71 71 72 70 69 54 55 58 51 46 58 59 70 65 61 57 60 63 62 65 67 64 60 58 57 64 62 66 56 54 50 49 54 66 79 81 90 56 53 51 57 60 64 57
17 41 61 67 72 77 72 70 64 57 57 57 50 53 60 65 72 73 69 58 70 71 71 63 56 55 56 71 63 54 63 54 56 54 50 52 58 74 75 81 65 53 52 50 49 74 54
8 25 46 63 69 72 74 72 70 66 57 54 51 49 50 60 68 67 74 78 67 71 78 65 59 60 61 77 68 64 74 51 66 59 53 62 62 67 75 82 63 50 52 50 61 51 55
19 11 32 47 64 69 70 68 69 68 67 60 49 53 52 56 63 68 68 66 66 70 81 69 67 67 76 78 71 70 66 61 56 51 46 59 64 70 67 65 62 47 54 57 52 52 53
45 8 20 38 41 56 72 70 65 67 68 70 60 48 59 68 67 69 63 64 64 61 63 68 67 72 75 82 81 72 64 65 61 59 51 57 55 63 56 58 46 47 50 49 48 50 54

GFSGBSN_850_rhum_096.txt.gz
RH
79 76 81 83 99 99 97 93 77 88 75 81 82 78 87 85 87 90 77 90 72 74 87 100 100 87 57 64 69 56 43 50 42 51 54 49 47 44 48 48 42 42 39 38 37 34 34
45 71 68 59 80 92 97 98 98 96 66 67 74 76 75 79 90 92 93 95 75 99 94 97 100 94 64 67 68 64 57 56 52 52 50 43 50 46 46 47 46 47 54 50 46 45 42
90 91 88 93 80 83 90 88 90 87 77 71 82 79 80 71 72 89 88 94 97 94 98 95 100 87 73 68 73 66 65 66 59 56 55 55 52 47 59 60 58 56 61 60 48 46 48
96 98 94 97 84 79 82 86 81 80 81 77 80 82 72 82 60 69 84 78 32 76 100 100 97 74 77 67 64 64 76 78 68 57 59 63 58 56 60 60 62 68 63 78 51 45 44
88 97 99 98 76 97 96 81 66 78 82 80 73 86 82 72 53 57 86 22 46 88 100 100 89 76 76 66 62 53 74 72 70 61 58 64 64 67 63 79 81 75 79 78 68 48 52
98 99 99 99 94 93 97 72 67 71 77 79 82 82 77 77 51 86 99 61 87 100 100 99 87 83 81 73 68 64 58 64 67 66 66 65 71 89 86 89 73 70 80 77 74 56 57
98 87 84 82 99 76 81 80 75 75 79 77 87 80 75 71 62 58 97 100 98 95 96 99 84 77 78 70 66 64 60 66 65 63 71 71 90 96 79 81 71 77 89 93 73 59 68
89 95 98 95 88 88 85 90 87 84 73 67 71 67 64 72 97 92 100 99 100 94 97 86 72 69 68 67 63 59 64 64 62 74 65 78 91 70 69 72 78 83 91 87 73 62 73
91 94 96 97 99 99 80 86 87 73 66 60 52 54 60 89 95 80 99 99 98 95 97 97 74 65 67 65 71 68 63 64 57 64 66 73 64 56 61 72 85 87 95 87 87 70 74
92 97 92 91 95 99 97 98 87 75 64 58 58 57 57 84 89 95 96 96 100 95 98 99 85 68 66 64 73 64 65 67 64 66 67 75 63 64 73 84 82 95 72 76 85 98 95
95 92 87 90 90 89 88 85 81 73 74 65 69 73 54 69 86 92 82 97 96 90 94 97 88 74 66 77 75 77 69 70 72 73 79 73 81 79 88 84 81 85 76 83 97 100 99
90 91 85 85 84 74 74 84 81 83 87 80 82 68 56 73 97 96 96 93 85 82 98 97 79 81 75 75 83 84 79 73 82 84 76 84 76 85 83 69 72 62 80 97 100 99 100
93 89 83 74 75 73 79 80 77 81 90 84 68 74 76 80 90 93 82 74 85 94 94 95 91 84 78 79 88 80 83 90 81 82 84 79 91 82 74 85 72 80 99 97 94 97 94
92 83 59 63 67 62 59 62 72 72 64 54 71 76 75 78 84 79 72 80 89 92 94 72 70 71 77 76 81 78 88 89 87 83 85 90 80 73 73 78 84 89 98 99 96 97 98
90 72 57 63 62 45 47 56 62 64 60 68 71 62 72 78 77 70 74 93 96 84 67 74 78 88 88 74 81 78 83 75 77 82 87 95 85 61 67 70 77 84 99 91 100 100 97
87 67 66 53 62 45 41 49 54 70 86 90 75 80 77 68 71 77 87 91 97 87 66 71 76 69 88 82 79 93 85 79 67 77 74 83 99 68 72 73 76 86 80 93 95 96 96
84 67 68 58 57 59 62 65 70 61 65 73 75 73 80 82 75 69 96 94 86 72 56 69 57 66 68 75 78 88 82 77 71 73 76 81 92 81 82 80 70 80 89 87 81 77 95
69 71 70 70 64 64 68 65 61 55 48 50 67 94 71 75 85 86 98 88 83 76 63 57 52 52 62 69 78 72 72 70 69 70 92 77 86 97 76 60 60 62 70 69 83 71 83
90 86 76 72 70 65 62 59 58 64 61 44 64 72 64 72 94 94 79 76 83 68 58 52 56 52 51 56 65 59 66 58 65 67 73 67 82 93 66 54 57 71 66 62 65 72 89
89 78 74 72 68 63 57 56 50 48 50 53 60 85 59 63 86 87 83 84 75 54 50 50 53 49 53 55 55 63 61 59 59 60 59 60 74 76 89 74 70 77 66 68 65 85 85
69 78 79 74 68 64 59 54 50 49 51 62 60 84 80 94 78 81 76 70 68 72 55 56 62 72 56 63 60 67 62 59 53 55 61 66 77 73 68 67 59 60 60 70 78 70 71
49 70 75 79 73 70 62 55 51 49 55 57 67 67 75 74 64 64 72 71 72 66 65 66 70 67 73 76 70 73 70 62 61 55 55 64 80 73 90 56 57 58 54 62 68 67 67
34 54 72 73 72 70 69 57 49 43 43 60 65 62 64 62 68 70 74 66 68 61 61 62 64 65 66 67 66 62 62 62 64 56 62 65 80 90 75 72 66 71 52 57 63 64 66
15 40 60 73 74 71 69 64 52 48 40 58 55 53 53 68 76 72 62 62 68 72 63 64 61 64 60 59 58 56 57 59 58 55 55 64 71 90 89 70 72 56 48 51 55 62 63
23 19 47 64 73 74 69 70 61 53 48 48 53 56 54 70 74 68 68 62 63 62 66 68 62 59 59 61 61 61 65 57 56 58 55 60 74 81 84 88 59 53 53 60 64 65 59
61 11 23 51 65 70 73 72 71 58 53 52 52 58 62 62 73 64 72 67 75 76 74 61 56 58 60 74 65 56 60 57 58 56 49 58 66 75 84 84 67 47 53 51 48 62 57
74 36 11 30 52 68 69 68 71 67 59 50 51 50 52 61 61 65 72 67 66 75 82 73 64 62 64 82 74 69 75 54 58 62 50 60 67 77 79 88 71 52 54 49 56 35 57
75 67 13 15 35 54 69 72 67 68 66 63 46 46 53 53 53 59 67 66 68 71 80 65 67 67 80 80 76 74 72 64 66 55 50 54 67 73 73 74 69 52 57 54 43 56 53
71 69 35 10 24 40 57 66 70 68 72 70 68 51 48 64 64 62 65 65 66 65 62 66 65 69 74 84 85 84 68 74 66 67 49 69 58 56 60 58 40 49 43 42 43 43 50

GFSGBSN_850_rhum_099.txt.gz
RH
96 99 99 98 97 89 90 94 90 87 84 73 76 77 81 87 81 74 70 69 78 80 73 99 99 98 68 62 68 55 67 52 47 54 48 45 45 46 54 48 42 44 46 47 44 42 40
88 98 98 95 98 88 82 86 81 82 74 65 84 84 81 83 76 75 85 93 68 72 76 91 100 93 68 64 64 55 58 54 50 49 48 45 47 44 51 51 48 57 58 56 46 44 46
98 86 93 87 93 99 85 86 81 76 74 69 65 74 80 77 71 87 91 85 86 83 94 95 97 82 77 92 75 66 57 53 51 47 44 50 49 44 54 54 58 59 65 62 51 47 48
96 99 90 90 88 99 97 95 77 82 83 76 78 67 77 79 73 61 52 81 80 75 98 97 100 83 81 96 82 67 73 67 57 57 53 61 52 50 55 60 61 71 63 72 44 47 45
98 95 96 73 96 93 89 84 79 77 82 73 70 68 81 81 71 50 86 86 63 41 100 100 89 80 77 80 72 79 81 70 65 60 59 57 53 66 64 77 69 71 73 74 67 52 54
81 89 91 94 97 98 92 82 79 76 73 74 66 79 74 75 57 75 95 54 45 94 100 97 90 80 74 64 58 75 74 70 62 62 64 66 70 87 88 84 67 61 80 78 81 58 57
80 92 92 99 99 100 80 82 80 76 73 68 74 75 68 64 80 87 99 100 100 96 98 97 88 86 82 69 67 59 65 66 62 61 80 72 89 90 70 79 62 67 86 93 75 61 72
93 91 92 93 99 99 96 97 82 67 68 54 47 56 69 92 94 81 98 99 97 99 96 91 88 85 72 66 64 61 66 65 62 73 70 77 94 68 66 70 79 87 96 89 75 65 68
87 84 80 84 78 87 94 88 91 63 62 47 52 62 85 91 82 89 98 99 96 84 97 99 79 79 67 60 67 65 67 63 58 66 67 76 63 59 70 74 87 90 96 87 87 69 68
85 80 78 66 64 67 87 84 79 67 67 64 58 64 82 76 79 92 100 100 96 65 98 99 88 71 69 68 76 63 62 69 64 68 75 75 64 67 72 84 84 94 74 75 83 96 99
79 68 80 85 76 75 78 83 91 84 79 72 66 68 81 88 87 98 97 91 87 72 93 98 86 73 72 75 75 73 66 70 75 73 74 72 76 84 90 86 80 81 73 85 86 99 99
87 96 93 78 83 80 80 82 88 94 86 73 55 66 94 98 91 100 90 93 88 80 96 99 79 76 78 79 83 81 75 69 76 77 72 82 73 82 86 73 76 65 85 90 94 97 96
94 97 63 49 38 51 61 66 64 65 69 68 67 70 75 88 98 94 95 88 85 95 92 94 91 78 79 75 87 79 81 88 78 87 88 78 89 82 80 87 76 82 97 96 90 92 89
93 94 56 46 35 38 43 44 51 55 63 68 63 66 70 75 81 73 75 77 89 89 91 73 74 73 77 79 77 81 86 92 85 77 92 89 77 81 78 80 82 90 96 99 97 100 95
61 94 65 55 53 46 42 48 50 54 67 55 53 58 66 73 72 74 66 94 96 81 71 76 75 78 90 73 79 84 86 78 76 76 94 88 89 60 74 70 74 83 98 90 100 92 98
64 64 81 72 72 63 63 58 54 53 51 54 52 56 70 70 70 67 85 95 96 85 68 73 78 77 68 80 86 91 88 72 66 71 72 86 97 69 71 74 74 81 84 96 98 96 94
71 74 71 78 75 66 63 58 59 58 49 49 56 60 58 55 57 58 96 94 85 75 60 72 66 74 72 81 77 91 82 75 74 74 75 82 91 75 71 77 70 81 84 87 90 86 97
59 70 73 71 70 68 56 55 49 50 50 48 56 86 54 51 70 88 99 94 81 70 65 64 58 55 69 70 83 89 82 78 68 76 88 80 87 94 75 60 61 65 72 75 90 74 84
60 63 68 67 64 62 61 52 48 46 47 40 47 58 60 52 93 96 80 75 81 67 59 53 56 52 52 66 69 63 66 59 68 76 75 78 85 92 61 51 54 66 67 65 75 76 89
55 62 65 66 65 62 57 55 48 51 52 45 49 84 55 56 79 84 87 80 72 57 55 54 64 52 52 60 58 64 62 59 67 67 62 60 80 74 82 63 68 76 71 62 71 88 83
34 54 62 66 66 65 58 54 52 47 50 40 52 81 80 90 74 73 77 74 70 76 62 59 60 72 71 62 58 65 64 59 60 58 66 68 84 80 76 72 71 70 67 62 77 70 71
18 39 46 63 66 68 65 55 48 46 47 52 52 64 72 65 66 67 75 74 78 70 72 66 69 69 74 66 65 66 70 63 62 55 63 70 83 76 85 69 66 69 62 59 68 67 67
28 20 37 52 65 69 69 65 52 44 45 62 64 56 55 64 72 74 76 69 69 68 61 65 67 69 64 67 66 63 64 64 66 66 64 68 82 89 80 67 73 75 65 58 64 67 65
61 19 24 40 54 69 69 66 61 52 46 59 56 56 51 68 77 76 66 63 67 71 69 63 62 65 59 59 58 63 70 70 74 72 65 68 74 91 93 68 63 49 47 51 60 62 69
59 50 14 26 42 54 69 70 67 56 51 51 52 54 54 70 70 70 65 65 64 63 66 68 60 58 59 60 62 58 63 54 55 63 70 67 77 85 90 91 59 52 53 61 67 60 68
48 66 34 11 30 43 54 66 68 63 56 54 53 53 58 62 68 67 68 67 74 75 75 62 59 60 64 73 65 56 55 56 53 51 59 70 72 77 85 88 64 41 53 53 46 61 60
25 70 65 17 13 34 43 48 66 67 62 57 51 51 54 58 56 60 71 71 69 77 83 74 64 65 66 80 75 72 77 57 67 61 52 63 71 86 86 91 76 54 55 49 48 36 57
19 60 77 48 11 21 38 36 56 64 65 65 61 47 50 54 47 48 58 65 69 74 81 65 69 68 80 77 81 76 77 67 70 62 53 56 67 79 79 83 75 54 58 52 44 51 51
25 36 83 77 20 12 34 36 54 64 67 72 71 64 53 56 58 58 56 58 67 64 63 70 69 71 75 86 88 87 76 81 70 67 54 69 56 52 65 64 42 48 45 42 44 43 50

GFSGBSN_850_rhum_102.txt.gz
RH
100 98 91 92 98 99 80 78 78 74 74 76 78 72 90 96 97 84 67 57 38 70 70 79 99 94 76 69 78 73 85 46 42 42 46 42 40 45 55 49 43 47 54 50 45 44 45
98 93 100 96 86 97 95 87 74 64 70 66 81 78 84 93 95 83 70 75 72 53 68 78 99 100 88 86 84 77 59 48 45 42 43 42 42 41 48 56 50 60 60 58 44 44 44
97 98 95 97 90 86 86 73 68 63 74 74 80 79 81 96 84 73 74 67 74 93 65 88 100 92 77 99 87 72 62 53 49 47 43 44 45 38 48 54 59 61 57 56 46 50 46
87 94 86 88 95 99 91 84 75 73 76 69 68 69 72 79 71 69 54 50 61 88 74 98 99 88 99 93 88 59 56 55 54 52 44 51 44 43 54 58 54 69 60 53 36 51 46
90 88 86 98 99 98 99 95 78 73 76 78 72 76 82 79 64 52 73 78 64 74 92 98 87 88 100 92 78 78 68 63 56 54 52 47 41 64 59 66 59 68 59 67 64 51 53
88 82 84 90 92 91 85 99 81 68 68 70 82 76 82 66 54 90 89 60 62 80 100 98 89 82 92 78 87 84 73 69 60 60 60 57 62 86 87 76 56 56 69 75 78 58 57
89 88 81 79 87 99 92 81 73 62 69 67 80 77 77 87 58 72 100 90 92 96 90 95 94 90 72 63 71 73 69 61 58 58 82 71 80 72 60 69 55 65 80 89 77 63 75
94 66 76 66 82 88 81 79 62 60 44 48 57 64 88 79 75 70 92 98 100 99 98 99 86 79 69 61 64 67 66 61 60 75 70 75 86 63 64 69 74 82 94 92 78 67 70
99 97 82 73 84 80 81 81 73 59 57 62 67 65 82 75 78 94 97 88 89 90 97 99 96 81 67 60 68 67 66 61 60 66 69 76 60 61 66 74 85 93 97 89 88 67 67
79 99 94 85 73 74 78 79 71 73 68 75 74 63 85 86 89 97 95 95 80 68 95 100 93 78 69 62 79 66 66 69 63 69 80 75 64 67 72 81 83 100 75 77 79 92 96
50 86 95 55 56 56 80 80 73 76 79 62 78 95 88 95 98 97 96 81 81 71 92 94 84 74 75 74 71 66 63 62 70 76 70 70 75 82 90 85 77 79 69 81 84 98 98
46 40 83 44 32 33 37 57 58 47 56 65 77 89 82 90 90 99 95 75 73 78 98 96 79 76 76 82 84 73 72 67 70 68 68 77 73 79 81 77 77 66 86 88 90 87 97
55 66 67 54 42 41 40 41 49 49 49 58 70 81 85 92 97 83 86 72 83 94 90 94 88 78 72 81 82 77 79 74 78 84 90 76 82 80 79 88 80 82 99 97 89 94 86
50 76 84 87 86 79 69 57 60 55 44 53 60 62 60 66 74 77 72 76 90 87 87 77 78 71 65 78 78 83 86 94 80 75 95 97 76 81 82 78 80 86 90 99 98 98 93
54 56 62 65 81 83 76 74 70 60 62 58 64 67 70 72 70 69 64 92 94 81 73 76 76 78 90 75 81 81 84 81 76 72 89 85 87 62 79 70 76 85 95 84 92 83 99
63 54 55 55 57 60 61 59 59 66 57 57 55 57 62 61 56 62 84 91 91 82 68 71 75 75 74 85 82 82 84 70 69 68 70 82 98 70 70 77 76 84 81 90 85 99 94
63 63 58 56 52 52 52 49 49 49 48 50 50 53 50 53 50 60 96 95 84 73 60 66 67 75 71 78 76 91 84 73 70 72 72 80 92 74 68 84 73 82 81 80 88 94 98
58 64 63 58 55 49 50 50 48 48 38 43 48 82 48 46 68 88 98 95 81 68 64 67 59 59 71 71 77 85 88 74 66 77 89 80 84 90 78 60 61 67 72 76 94 79 87
47 62 66 65 60 54 48 47 46 49 44 37 46 53 52 42 92 95 78 75 76 68 62 57 58 55 55 69 73 82 71 60 69 81 79 80 89 94 55 46 53 65 68 65 77 81 86
22 39 57 65 62 61 54 48 44 43 48 44 46 82 51 55 75 81 83 80 70 59 61 60 67 55 54 61 65 66 64 61 72 73 68 68 83 78 77 54 65 74 68 62 76 92 81
32 21 34 54 58 61 59 52 41 31 40 46 51 79 72 86 74 74 75 73 71 76 64 60 60 73 75 65 61 62 64 61 68 63 72 71 87 86 80 77 74 74 73 71 80 74 78
56 23 26 40 56 58 59 56 48 35 33 48 55 64 67 67 67 67 77 77 75 71 68 65 68 71 70 70 67 71 71 66 64 58 69 75 85 82 90 71 79 79 72 71 66 71 76
49 53 17 31 45 57 60 59 56 38 44 50 56 64 57 71 73 74 77 70 68 72 62 64 66 71 64 64 64 61 62 62 64 68 68 73 85 89 86 72 72 74 69 70 63 69 67
23 56 39 14 33 45 56 63 62 49 47 54 53 49 50 68 80 77 71 66 67 70 72 63 65 68 58 60 63 70 79 79 81 80 73 74 75 91 94 75 66 44 49 52 61 61 73
20 37 59 24 13 33 43 56 65 56 50 50 52 54 52 67 71 70 71 67 66 65 71 65 58 55 57 60 63 57 56 52 60 72 81 74 77 87 91 96 61 41 53 58 60 55 66
31 24 55 54 15 16 32 38 58 66 54 53 53 52 58 62 64 58 69 68 76 76 75 65 61 64 65 71 63 53 47 52 51 55 76 76 75 79 90 90 54 30 52 54 47 60 47
50 31 36 66 40 12 22 34 30 60 64 56 53 49 54 61 51 60 70 72 67 77 83 74 66 68 68 79 72 73 75 59 65 58 61 76 78 92 91 92 79 56 53 51 51 30 56
82 55 34 69 70 23 14 34 35 44 60 62 60 59 50 56 47 48 54 60 69 74 80 63 72 72 82 75 82 79 78 73 73 64 58 59 69 83 88 90 81 53 58 52 42 45 48
92 84 57 65 79 60 14 25 43 49 58 61 68 68 66 60 51 50 52 53 59 64 65 69 72 69 72 87 89 87 83 85 75 70 58 62 54 53 66 64 44 46 48 38 42 42 43

GFSGBSN_850_rhum_105.txt.gz
RH
75 69 78 94 93 82 97 87 81 69 70 73 79 78 77 85 81 95 83 64 48 54 71 93 100 90 90 79 98 96 86 52 42 41 40 38 34 41 53 50 46 48 55 49 44 45 46
80 82 92 94 96 97 99 85 73 65 61 61 76 83 75 79 84 99 91 68 73 57 70 82 99 94 82 94 95 93 53 47 43 37 38 33 37 37 48 57 49 60 59 55 45 44 45
89 98 98 93 81 95 100 90 76 65 71 66 74 73 77 89 93 97 71 66 68 90 59 97 100 92 80 91 97 76 54 47 46 43 37 41 39 32 42 60 60 60 45 47 41 48 48
98 99 98 74 78 75 93 85 76 69 67 71 73 67 73 85 73 70 61 47 54 94 63 99 99 86 99 91 68 57 52 50 47 41 36 40 36 33 53 55 48 60 50 36 38 50 48
97 100 91 79 76 92 90 83 80 68 70 75 80 77 82 78 64 55 66 70 73 82 85 96 94 80 100 81 68 68 61 53 49 45 40 38 30 55 50 54 50 56 40 56 53 51 53
96 100 87 77 75 73 77 74 69 67 80 80 75 78 76 61 78 85 67 70 78 92 100 88 76 70 99 89 79 72 69 58 52 50 46 43 51 75 75 68 44 44 58 65 69 54 59
85 99 89 83 73 73 61 52 64 84 59 57 56 82 77 64 75 92 85 89 96 93 94 99 92 88 90 81 78 71 64 54 52 56 75 68 74 64 59 58 52 64 75 80 71 60 71
70 95 100 74 69 83 68 58 59 62 55 61 66 84 75 86 79 85 82 88 98 96 98 96 81 72 69 64 71 67 60 56 58 77 66 70 78 61 66 71 72 80 91 89 70 67 68
44 94 100 96 69 72 71 63 63 63 63 74 61 80 86 100 86 91 66 97 99 92 97 99 90 86 68 61 70 68 64 61 62 69 72 72 64 62 65 75 83 89 96 84 78 68 68
28 73 79 71 52 49 55 52 54 51 62 82 88 80 82 99 84 96 88 91 77 72 95 99 87 69 66 62 74 67 66 68 62 77 80 76 65 66 73 80 80 98 76 76 80 90 91
46 42 54 51 49 45 45 46 46 54 68 78 78 97 90 93 100 95 93 83 83 76 90 94 84 74 73 70 66 61 65 66 76 75 68 65 75 81 89 84 77 70 69 76 78 96 97
85 67 66 72 67 70 68 62 55 56 67 78 83 91 96 92 84 93 95 79 60 78 97 94 80 78 79 80 81 69 69 63 69 68 68 72 72 78 75 76 75 72 86 87 86 89 92
64 66 62 71 78 69 68 67 59 51 59 64 69 79 80 78 77 71 65 53 83 92 92 90 87 76 65 84 76 76 78 75 80 75 86 74 77 78 79 87 83 81 96 91 85 91 83
59 60 60 56 59 64 68 68 70 57 55 68 66 65 64 64 60 58 51 72 89 95 89 77 74 63 79 79 80 84 88 96 78 75 92 94 72 81 83 77 79 82 88 96 95 97 90
56 56 57 57 52 50 52 54 58 63 55 53 58 65 62 62 59 56 51 90 93 81 73 78 79 79 91 70 78 82 86 82 74 73 86 88 86 60 82 72 71 87 86 84 98 87 94
55 56 56 56 54 51 49 53 54 55 50 48 52 57 58 58 59 59 82 92 93 79 69 70 75 73 84 86 86 87 85 68 73 68 69 88 93 67 70 76 76 86 80 83 90 92 96
53 57 57 56 55 51 46 44 47 47 45 41 44 52 52 52 52 56 98 95 80 72 63 66 70 74 69 78 77 88 83 68 68 76 68 80 86 73 68 91 79 95 90 88 82 89 96
30 47 58 56 59 55 49 41 38 44 46 43 48 78 52 49 65 87 98 90 77 63 67 70 62 61 68 73 76 82 83 73 67 74 79 76 89 87 81 62 63 68 72 74 86 80 85
22 28 42 55 54 58 53 44 32 36 41 39 46 49 49 42 87 96 74 74 72 68 66 63 62 59 57 68 69 78 71 64 70 75 77 81 86 95 52 46 59 70 74 67 79 82 92
45 21 26 41 53 54 56 50 32 27 36 39 45 75 48 53 74 77 72 74 66 61 64 64 68 59 57 64 67 69 67 62 73 73 73 73 86 83 80 52 58 70 75 69 76 89 81
47 43 18 26 36 55 55 52 39 25 35 36 50 79 74 84 73 77 74 72 69 69 63 62 61 72 73 65 64 64 64 63 76 69 78 74 91 91 86 80 78 76 73 75 82 73 82
24 55 38 17 28 34 55 56 46 28 36 40 53 62 61 70 71 68 70 76 72 71 66 63 64 68 69 69 63 66 70 69 64 61 76 81 91 83 94 75 78 89 80 80 74 72 81
24 30 58 27 19 31 38 56 56 35 40 47 56 57 52 76 75 72 72 71 67 72 62 60 62 69 70 64 59 56 60 60 63 71 73 78 88 90 89 72 75 64 59 76 70 69 68
41 24 42 60 20 21 32 38 58 47 44 48 48 46 46 62 78 76 72 70 66 71 70 64 69 68 56 57 61 70 80 82 83 82 71 81 80 90 95 74 43 31 51 58 65 63 71
83 44 28 50 58 16 23 31 41 60 50 46 48 46 49 64 69 65 71 70 66 65 73 71 62 62 63 64 68 57 53 54 70 87 92 81 79 89 91 96 55 27 53 57 54 53 56
94 84 48 35 60 48 15 28 28 46 61 54 52 51 52 58 57 56 69 70 76 74 74 65 63 62 65 72 67 53 44 44 48 55 85 84 79 82 92 88 54 27 48 55 47 52 36
97 95 85 38 48 67 33 16 32 30 50 62 61 51 52 55 51 56 66 69 68 77 82 74 66 70 70 82 72 73 72 58 60 55 83 86 87 96 95 94 80 56 53 50 52 29 44
99 99 98 84 39 64 65 21 25 35 44 52 61 69 58 52 44 45 49 54 66 72 80 62 70 74 84 80 82 79 82 75 74 62 62 69 78 90 92 96 85 51 60 50 41 36 44
97 99 100 98 90 51 78 49 17 34 42 55 60 72 75 70 56 51 50 51 52 53 59 68 70 69 71 85 90 88 84 87 78 75 59 67 52 53 67 66 43 45 44 40 42 43 44

GFSGBSN_850_rhum_108.txt.gz
RH
98 96 97 80 79 86 98 100 79 66 61 71 71 64 64 80 90 94 86 80 64 76 69 74 82 99 79 88 97 93 79 46 39 38 35 32 32 34 31 36 37 32 37 41 41 45 41
99 98 68 63 68 98 98 98 74 70 72 76 84 67 64 67 75 89 95 76 62 51 74 100 76 94 87 92 92 83 50 46 41 39 36 32 36 36 38 40 33 42 43 37 42 37 40
94 90 64 71 85 86 83 77 69 66 75 62 61 58 61 77 87 98 86 67 76 61 71 95 88 99 87 91 85 59 50 44 42 36 31 31 30 37 38 40 53 43 28 29 33 37 35
93 76 81 70 68 74 61 60 76 86 60 61 64 62 65 74 81 74 69 57 76 68 94 98 81 100 98 76 63 53 49 44 40 36 30 32 30 28 46 45 33 29 27 17 28 39 44
83 96 96 91 97 69 42 36 38 51 55 61 73 74 75 74 65 57 51 48 85 66 92 100 90 95 99 77 69 60 53 47 42 37 32 31 27 50 43 30 27 25 16 23 26 42 42
89 94 99 100 100 88 58 46 46 41 44 48 68 74 66 76 99 76 83 73 86 87 100 94 95 86 99 78 68 67 58 48 46 42 37 36 48 42 38 42 43 22 26 33 36 36 43
74 94 99 100 98 95 87 63 65 60 55 55 84 83 78 99 87 79 74 100 96 95 83 97 97 98 90 82 68 64 55 50 51 54 47 57 68 56 51 39 41 47 50 50 36 42 56
27 79 96 98 100 100 92 78 61 77 80 57 74 73 87 93 92 86 96 98 98 98 97 90 92 86 73 66 63 66 54 52 52 54 53 52 66 53 52 55 56 57 59 48 46 49 55
37 29 52 89 99 97 84 78 82 80 88 85 76 86 96 89 89 87 83 95 92 83 97 98 80 74 71 66 70 68 68 61 51 57 54 47 55 55 53 62 67 62 71 60 69 58 47
60 47 45 50 62 81 91 84 74 86 89 91 89 83 92 80 72 93 88 83 88 76 92 98 76 67 69 64 61 66 66 69 54 65 62 59 58 57 59 62 63 76 55 60 71 80 78
79 78 65 62 61 64 61 64 74 83 92 95 89 86 91 73 97 91 87 84 81 72 84 94 75 72 77 63 64 61 64 64 56 59 58 68 63 65 69 75 57 61 59 64 72 87 84
56 58 59 57 61 61 67 65 59 69 74 83 90 84 74 66 84 86 86 76 56 87 92 86 75 66 60 68 70 68 67 63 69 59 58 61 69 62 59 62 59 57 73 77 76 79 89
55 55 56 55 53 56 55 59 62 66 70 76 81 80 75 75 72 71 64 50 92 88 82 77 67 64 61 65 66 62 64 64 71 90 97 60 60 65 67 70 69 75 80 82 84 90 69
58 57 57 56 54 51 53 56 60 55 61 64 64 60 62 64 68 60 50 60 85 81 76 68 62 62 68 66 65 67 64 64 60 59 75 81 76 62 67 65 63 61 65 81 92 76 66
57 59 59 58 55 51 45 44 49 51 52 56 58 56 56 54 51 52 58 91 90 68 65 66 65 66 75 64 61 61 63 61 58 56 77 88 85 53 63 58 62 68 77 74 92 79 84
49 55 57 60 57 53 45 38 43 44 45 46 49 55 56 47 49 49 73 92 76 66 61 61 60 59 62 66 62 62 67 57 61 58 60 70 94 58 63 67 66 68 72 75 80 84 76
24 39 51 53 58 55 48 35 37 42 42 42 44 55 52 49 45 58 98 79 62 69 64 56 59 58 57 62 62 66 64 59 57 61 58 61 65 59 58 65 61 82 76 75 62 64 72
33 23 33 48 51 55 52 38 31 34 37 39 47 75 52 48 72 82 85 62 66 56 71 62 52 54 55 60 64 65 62 60 59 59 59 63 66 74 58 53 52 55 54 52 54 61 61
48 32 20 30 42 52 52 47 28 32 31 29 41 50 49 45 78 79 70 67 68 61 59 58 56 53 51 57 59 63 60 60 67 58 59 64 68 79 43 50 54 59 56 54 54 61 68
30 48 34 16 27 39 52 50 30 29 34 36 37 80 46 48 65 55 58 63 62 62 61 62 55 55 53 57 58 58 58 60 70 65 69 67 66 64 45 34 42 52 48 56 56 68 46
42 31 48 31 16 24 38 52 33 30 40 39 46 72 64 74 62 64 62 59 60 60 61 62 58 55 52 53 55 55 53 54 70 72 72 64 80 71 65 56 56 60 59 54 65 59 56
57 40 34 48 29 16 22 42 42 31 37 46 58 63 60 67 69 58 62 62 60 60 59 53 54 58 57 52 46 45 50 53 46 65 68 69 80 71 83 49 54 66 56 56 56 54 53
78 56 37 39 48 24 17 22 46 33 39 48 54 51 51 72 63 52 56 62 61 67 62 65 61 56 57 55 62 59 59 62 58 55 60 65 74 79 68 53 54 50 41 46 52 52 51
78 76 53 36 44 47 19 20 23 48 37 47 49 49 46 46 57 52 66 64 59 64 61 63 68 59 54 59 60 66 71 69 68 63 62 63 69 72 82 60 43 31 39 42 47 43 45
81 84 76 47 35 50 42 16 22 26 50 44 46 50 51 37 52 58 66 66 67 68 68 66 61 58 59 59 50 43 37 45 56 68 69 66 63 74 82 66 38 29 46 49 50 37 37
92 92 89 76 41 39 53 32 19 22 32 54 50 49 55 57 43 54 60 68 58 58 59 67 65 66 66 56 50 46 30 32 35 50 70 73 65 73 70 76 42 23 40 50 46 37 30
94 96 98 97 81 46 46 57 23 22 27 43 55 58 50 61 49 53 56 54 64 69 58 68 69 73 70 59 53 46 44 46 40 44 68 77 82 90 75 78 56 37 45 51 43 24 35
88 96 100 98 93 91 52 57 51 20 26 34 51 58 67 56 51 48 49 55 64 69 49 62 61 74 71 66 58 51 57 49 56 45 47 51 62 71 73 81 80 45 56 41 30 34 39
84 99 99 97 94 95 88 48 72 36 23 39 52 60 70 74 61 57 58 49 52 53 52 61 65 65 62 61 63 60 63 63 51 48 49 52 37 34 44 41 35 45 38 40 42 47 49

GFSGBSN_850_rhum_111.txt.gz
RH
54 53 77 77 81 75 77 72 70 59 60 59 47 53 64 80 92 92 78 72 50 78 67 97 92 94 78 85 95 88 62 42 44 47 38 29 23 23 25 26 25 22 25 28 31 34 29
60 51 98 99 94 90 88 93 66 68 62 47 45 58 72 82 73 75 84 79 42 72 98 95 90 92 85 90 92 63 53 43 47 45 44 32 25 27 26 25 25 27 30 26 29 26 28
80 76 93 100 98 96 79 82 88 77 68 74 71 66 82 76 80 93 88 56 56 64 96 100 86 66 88 94 77 58 46 40 40 44 44 40 33 29 26 28 33 27 24 24 26 29 28
81 87 93 99 95 93 93 91 82 86 89 87 78 75 76 78 95 75 63 54 78 80 88 99 99 81 92 69 69 56 53 46 36 32 33 42 40 40 30 29 24 23 20 20 25 30 35
82 94 92 97 99 95 92 93 94 75 81 84 72 67 66 63 61 56 52 57 89 91 99 96 90 82 90 70 64 60 54 52 41 30 26 24 33 34 34 25 23 18 18 16 29 32 34
88 85 89 93 98 98 92 90 84 78 52 73 71 56 61 86 58 46 52 94 93 96 100 89 85 80 93 82 72 64 59 56 50 49 40 40 37 32 26 41 56 22 17 20 21 31 36
63 44 80 80 92 98 97 88 90 77 68 70 70 74 90 84 59 68 93 99 96 94 98 96 98 97 93 75 68 60 63 51 47 43 34 40 62 59 38 30 32 30 30 30 24 34 48
66 52 51 56 66 87 89 89 90 88 76 76 71 92 86 83 80 92 98 96 96 95 98 99 93 89 78 64 54 59 55 44 41 40 40 44 60 42 42 45 44 43 42 35 37 41 47
98 98 76 75 73 66 79 92 94 92 94 76 83 89 94 86 91 86 78 92 95 97 96 97 91 77 69 58 60 63 58 49 40 43 37 42 44 46 44 50 54 48 56 52 63 52 42
54 56 69 65 89 86 77 78 88 95 89 76 81 85 84 89 94 90 74 72 78 82 89 85 67 64 63 62 54 65 69 60 46 49 47 50 47 46 47 52 53 62 46 54 61 70 70
51 52 53 58 61 62 63 63 84 90 96 76 82 78 72 86 95 94 74 75 71 78 87 72 62 69 62 54 57 54 65 49 48 49 50 59 53 54 57 70 48 58 53 59 64 74 73
58 52 50 52 54 62 65 61 69 78 89 80 75 75 78 80 74 67 72 62 65 91 93 70 58 55 49 51 56 55 54 57 58 48 48 51 56 53 52 52 51 52 64 69 63 64 87
58 60 54 49 50 49 57 59 60 70 72 76 68 64 68 57 80 69 58 60 94 89 65 62 57 48 47 53 50 49 50 55 62 92 99 51 52 54 57 61 59 63 70 81 80 85 71
50 56 60 54 46 44 45 51 53 56 63 62 63 67 65 60 63 62 57 53 87 76 65 52 51 48 57 53 52 52 50 55 50 46 64 78 80 54 55 57 62 52 56 77 84 69 62
31 46 52 57 53 41 36 43 45 47 52 56 56 56 57 56 56 54 59 93 83 59 52 52 53 51 62 51 49 50 51 51 50 47 67 84 85 48 52 48 56 57 65 58 84 58 76
20 26 44 50 53 48 35 34 41 41 45 49 49 56 55 53 48 61 64 78 64 50 50 49 45 45 49 51 51 49 53 50 53 50 50 56 83 49 56 58 57 62 55 67 78 74 68
42 18 25 39 48 50 42 28 34 38 40 40 45 54 47 49 54 57 91 62 54 53 53 47 47 45 46 52 48 51 50 48 46 47 48 48 57 56 51 59 55 74 65 64 49 49 62
41 42 18 23 38 49 47 28 28 30 30 38 53 66 44 53 65 58 69 50 52 53 59 51 44 44 44 48 48 48 46 46 46 48 50 48 50 62 46 40 45 49 47 43 49 43 48
30 41 40 18 21 34 48 39 21 25 26 29 48 54 41 49 72 65 60 57 56 53 49 50 47 46 43 46 47 47 46 46 53 51 48 48 55 63 47 41 43 53 44 45 43 45 55
51 34 43 40 18 20 36 45 24 25 29 31 50 76 49 54 59 41 47 52 54 60 51 52 46 46 46 47 45 46 46 51 55 56 62 60 54 57 49 35 38 42 40 44 47 63 48
70 55 38 43 39 17 18 38 33 26 31 34 47 61 59 59 48 47 47 46 50 52 53 52 48 47 44 43 43 43 41 42 56 64 62 58 66 58 53 47 46 47 46 43 48 51 61
73 70 56 41 44 35 18 18 37 28 35 37 51 50 56 49 54 45 53 47 46 50 49 46 52 45 44 46 42 45 43 41 37 55 59 56 71 57 79 46 39 46 42 41 43 44 44
68 75 72 57 42 45 30 18 20 34 31 46 45 47 52 54 44 40 35 43 46 51 53 51 47 44 43 40 44 44 44 42 41 42 53 56 65 73 66 39 46 48 35 36 38 37 39
68 73 79 72 55 41 47 28 19 28 38 38 42 44 42 32 43 37 48 49 48 49 44 47 55 47 48 50 56 56 56 49 46 44 44 47 60 61 76 56 60 32 30 30 32 32 32
76 74 83 86 72 50 43 48 25 21 36 46 39 47 51 32 34 36 50 51 52 54 58 56 50 52 60 56 44 37 35 41 46 48 50 48 51 64 74 56 38 29 40 43 44 30 27
74 80 79 91 90 85 68 45 50 24 23 39 48 48 59 47 34 40 42 46 45 39 44 54 66 64 64 47 42 42 28 23 30 54 55 55 55 58 52 68 49 23 36 39 41 42 28
75 76 82 85 92 89 86 64 47 50 26 25 45 50 57 57 47 49 40 38 49 49 43 52 58 68 70 48 48 37 34 34 31 33 68 70 75 83 74 67 50 30 39 44 40 27 30
79 81 81 84 93 90 86 87 64 59 48 28 38 50 58 68 58 49 47 55 61 58 40 56 57 64 64 59 44 40 43 34 43 28 37 46 58 69 61 64 73 36 47 39 27 31 34
77 76 76 81 88 90 85 84 90 71 73 43 40 47 55 66 59 44 50 46 52 57 53 57 48 52 48 54 48 42 48 43 38 38 30 40 28 29 39 44 29 40 27 34 40 39 38

GFSGBSN_850_rhum_114.txt.gz
RH
86 100 99 99 91 95 93 75 81 82 81 67 56 66 76 78 82 77 76 51 45 66 77 93 82 98 91 90 87 66 50 36 33 38 34 31 26 25 30 27 23 23 25 26 30 32 28
75 99 98 99 88 92 90 79 94 83 84 76 74 74 79 82 69 64 81 60 51 75 74 96 91 95 86 90 69 56 51 46 47 42 35 27 23 24 23 24 27 25 26 24 27 25 25
73 92 96 92 91 91 89 93 86 76 70 58 59 70 62 59 75 84 77 59 66 92 97 89 81 79 75 75 64 55 52 46 45 41 38 32 28 28 26 29 29 26 28 27 27 27 28
91 83 81 85 96 94 90 82 86 82 79 77 74 73 85 88 88 77 55 70 59 74 100 90 93 85 95 65 61 51 50 45 37 40 33 33 33 29 29 27 23 26 20 31 29 29 35
84 76 87 83 77 91 92 90 75 80 79 74 70 71 75 88 65 54 66 67 88 99 90 81 90 71 95 71 61 55 50 48 35 28 24 21 30 32 29 29 35 22 30 22 38 30 34
60 61 74 96 89 90 91 91 86 77 80 70 72 77 76 59 52 50 89 80 100 95 96 84 75 72 88 79 68 56 53 51 46 35 32 34 35 45 37 78 80 41 21 20 23 41 36
97 96 93 98 80 77 95 93 90 74 76 77 90 85 65 58 49 98 94 93 90 92 96 99 92 76 67 62 58 57 52 46 42 40 38 38 86 78 43 40 36 36 33 33 29 41 49
55 66 79 84 98 95 86 91 94 88 79 80 91 88 69 57 88 95 90 89 98 95 96 98 93 82 68 62 53 59 50 42 42 47 36 57 71 44 42 44 47 47 44 50 49 41 50
58 54 62 68 93 85 91 93 84 89 79 77 85 83 85 90 90 90 81 87 89 88 96 98 95 84 71 59 59 61 56 44 42 42 43 60 49 42 41 47 56 50 63 61 65 57 53
52 53 53 53 68 68 66 84 85 74 76 83 85 83 81 81 85 90 81 72 75 86 96 94 84 65 60 58 55 61 60 56 46 52 52 54 43 43 45 63 56 67 49 55 64 80 92
51 54 54 50 52 60 60 71 84 75 64 78 78 79 78 72 81 88 78 70 64 93 91 69 60 61 55 54 55 55 55 46 50 48 51 59 54 53 57 78 47 64 55 63 65 71 77
53 54 54 51 47 54 55 61 69 72 71 66 72 69 77 78 92 74 65 58 85 97 95 65 51 49 48 49 51 52 51 50 52 48 52 54 54 52 56 50 51 50 68 68 60 67 87
43 51 52 52 46 42 50 54 57 60 62 62 66 65 73 75 77 63 58 65 96 92 59 62 55 44 46 48 48 46 51 56 73 92 97 60 56 54 54 66 61 66 92 96 92 92 94
25 43 50 50 46 40 40 46 49 54 57 58 64 68 62 52 58 60 61 83 88 74 62 48 48 46 54 47 50 51 53 72 48 46 86 93 83 60 58 61 64 54 59 92 91 93 88
20 23 40 49 48 38 34 40 43 48 54 51 52 57 57 54 54 56 81 92 87 62 47 51 50 55 57 49 51 48 51 53 50 48 67 97 90 49 53 47 56 58 68 56 86 74 86
42 20 23 39 49 45 30 33 38 39 41 44 46 73 52 51 60 67 80 80 68 45 42 45 45 45 52 51 53 52 51 50 52 48 48 54 87 53 57 58 57 68 55 81 81 93 87
42 40 20 21 38 47 38 24 29 32 32 37 47 61 42 48 61 58 98 70 55 49 52 49 42 42 48 52 46 49 50 49 45 47 46 48 61 65 53 70 76 81 80 69 57 60 88
47 41 41 21 17 32 43 24 21 27 27 38 52 81 39 52 73 57 86 50 49 53 56 48 46 44 43 45 45 45 45 48 44 46 53 56 59 78 61 46 47 52 59 60 80 55 63
66 53 42 42 23 15 31 36 22 24 26 28 48 51 43 54 90 84 56 58 53 53 49 49 46 46 43 44 49 44 44 47 48 51 61 52 66 85 59 49 46 56 52 55 52 57 73
71 66 56 43 43 25 14 30 28 26 27 29 48 90 50 48 47 47 50 51 56 54 50 49 46 44 45 46 44 48 46 55 50 54 58 59 61 68 74 47 52 56 50 47 56 84 67
67 71 67 57 44 43 24 13 28 27 31 42 48 62 56 82 52 45 46 44 50 54 53 50 48 48 45 46 42 46 40 51 56 60 62 64 78 67 66 56 57 59 56 52 56 59 70
71 73 72 67 53 45 42 23 14 25 32 36 56 57 48 47 49 47 54 48 47 49 48 48 53 42 43 50 43 46 41 41 42 65 64 63 87 68 79 58 57 64 54 51 51 49 48
73 77 78 72 64 51 46 40 21 17 26 38 45 47 51 47 44 44 45 43 45 47 47 48 46 46 47 46 46 43 44 42 43 47 69 64 84 82 86 65 65 75 48 48 45 43 46
72 81 81 83 80 79 61 46 37 20 23 34 34 40 48 48 44 40 44 46 46 47 54 45 51 50 56 48 42 43 51 53 49 46 43 55 65 73 83 74 89 49 28 31 39 38 39
78 75 80 84 85 84 83 58 47 37 22 27 38 40 58 58 35 33 41 47 47 50 55 51 50 50 54 50 58 48 46 44 46 50 52 50 61 80 91 87 61 46 38 44 46 41 35
80 80 82 79 80 86 85 84 59 50 39 25 31 42 48 62 44 37 40 38 51 47 46 56 56 55 53 57 51 55 47 29 46 63 53 59 58 68 71 88 77 36 40 38 41 61 34
76 77 80 80 79 82 85 83 85 76 54 41 34 34 46 65 48 44 44 48 45 48 55 50 60 68 66 66 66 57 59 35 41 40 82 80 69 83 76 78 70 38 42 41 43 37 30
82 80 77 74 79 81 84 84 83 85 77 59 49 41 44 65 40 45 41 46 48 51 52 56 61 68 72 76 63 57 55 44 48 37 64 76 90 88 76 84 87 43 48 46 36 29 30
77 84 87 79 76 78 85 82 82 85 87 82 62 52 45 51 44 41 41 40 51 53 53 49 52 54 54 70 67 60 60 51 50 56 32 46 46 55 61 65 39 38 33 31 33 37 38

GFSGBSN_850_rhum_117.txt.gz
RH
100 91 93 92 90 90 95 83 78 70 64 52 77 81 86 93 90 79 64 50 62 63 86 84 88 80 80 66 68 56 44 36 31 39 38 32 27 27 36 29 22 32 29 27 30 28 27
94 97 87 86 87 90 87 72 86 80 64 50 52 63 81 80 67 75 70 54 73 70 82 93 100 87 71 77 59 54 50 45 41 35 33 28 25 24 25 27 31 28 26 29 27 26 25
97 89 92 92 93 93 80 50 58 83 83 59 68 69 61 63 84 80 61 74 87 98 98 92 85 78 68 65 56 51 46 44 41 37 32 27 25 25 25 32 26 25 29 27 29 28 31
97 97 95 92 97 98 94 64 66 74 70 71 61 78 85 84 85 62 68 79 93 96 86 81 80 82 87 58 53 51 44 37 37 31 29 27 27 27 28 25 23 27 24 36 30 30 35
96 94 86 78 91 95 96 84 70 72 68 60 62 77 85 74 61 69 80 97 91 99 99 93 87 74 83 62 55 50 45 37 28 25 24 24 18 24 28 38 48 30 33 30 36 31 36
99 90 89 91 94 92 89 88 73 58 82 86 80 76 74 52 59 97 95 95 99 92 97 88 82 76 74 61 59 53 44 40 28 29 24 27 35 60 59 82 70 43 30 27 32 39 39
100 99 98 92 89 94 87 87 84 74 87 91 66 66 56 62 91 86 91 97 93 93 92 92 81 75 63 59 56 50 48 41 41 41 41 44 74 70 53 47 39 40 39 40 43 41 52
65 96 100 98 92 91 87 79 76 74 84 86 63 48 60 91 83 88 84 83 92 94 90 78 77 69 62 59 53 51 48 44 43 46 41 67 74 49 45 46 51 51 50 68 53 47 57
62 54 95 99 87 73 85 84 72 66 84 76 75 79 86 82 79 76 72 80 81 81 93 80 77 70 61 54 61 56 50 44 45 58 57 69 56 43 44 56 69 61 65 65 70 67 62
55 52 47 71 62 66 67 64 65 67 77 80 66 76 78 78 74 79 86 86 81 86 92 88 67 57 56 57 55 52 52 53 48 62 62 59 44 47 49 62 68 65 55 60 72 83 86
53 51 48 46 56 56 63 59 63 59 71 87 83 83 81 66 67 69 66 65 69 97 92 77 65 57 55 56 48 47 53 45 54 51 58 64 57 56 64 62 51 68 58 67 69 78 84
48 50 48 42 45 52 53 53 56 60 58 64 71 76 77 77 78 69 67 62 93 84 95 70 56 55 55 51 52 51 50 46 51 64 60 58 54 55 59 52 51 55 71 74 60 65 94
28 48 49 44 38 44 48 50 50 51 54 54 59 63 70 72 76 69 64 78 83 94 60 66 58 49 49 54 52 52 57 61 77 57 89 74 60 57 55 69 62 68 92 96 91 98 91
16 24 49 49 40 34 43 47 49 51 49 51 55 55 57 58 58 57 63 74 90 76 73 53 51 50 60 58 53 53 62 80 50 58 97 88 56 66 62 68 68 77 72 89 62 95 90
35 16 22 48 46 35 32 40 44 48 48 49 55 53 51 55 53 60 67 94 86 73 54 58 52 63 60 52 54 54 55 61 54 54 74 94 86 54 60 52 60 69 79 65 88 84 94
44 38 18 16 41 43 25 28 33 36 40 41 48 66 54 58 63 68 80 83 68 49 45 50 55 47 60 57 60 59 62 52 57 51 52 62 89 60 58 58 59 69 66 83 89 88 89
50 45 41 21 15 34 37 22 25 30 35 38 57 62 45 52 66 52 90 72 57 51 57 59 52 48 57 57 52 53 57 51 48 54 48 53 70 68 63 81 84 84 85 78 73 80 89
65 53 45 42 23 15 30 27 22 25 33 44 54 65 53 56 65 75 90 56 51 55 56 60 52 51 50 49 50 51 54 53 46 48 60 56 69 85 73 54 62 72 76 72 86 66 76
69 66 55 46 42 24 15 28 23 27 26 31 43 51 48 54 86 91 61 61 56 58 57 52 50 47 45 48 53 47 50 50 48 53 61 58 73 86 69 56 52 59 61 65 63 68 81
71 70 66 53 47 43 23 16 25 24 28 32 46 76 46 44 50 59 56 56 62 54 54 51 51 46 48 51 46 52 53 56 51 55 58 59 75 67 48 45 58 66 60 59 69 89 66
71 72 69 63 56 47 42 21 17 26 27 42 50 57 62 83 59 49 50 50 56 60 55 51 51 51 52 55 50 54 46 61 58 60 61 70 88 77 74 72 69 68 68 64 66 60 76
70 70 68 69 70 64 48 42 20 18 29 32 50 57 51 51 48 48 54 53 50 52 52 52 57 50 46 54 51 56 48 45 50 77 73 74 87 80 89 70 71 77 65 63 63 60 56
69 70 67 64 67 72 65 47 44 27 19 29 45 47 52 53 52 53 55 48 49 48 48 49 53 53 53 52 54 49 48 44 49 72 84 77 88 84 89 72 73 77 57 53 55 56 55
75 75 73 70 68 68 74 68 53 44 29 27 33 45 49 59 52 50 46 47 49 51 55 50 51 54 53 52 44 38 47 52 54 59 60 68 80 81 91 78 85 40 38 32 48 47 45
85 82 80 77 74 73 74 75 77 56 46 29 26 36 50 63 50 40 41 47 49 50 53 51 50 53 54 49 65 58 52 50 52 65 67 58 71 83 88 94 64 59 40 39 40 42 41
76 80 78 75 73 77 77 76 75 78 62 46 36 30 43 64 52 41 42 40 56 58 54 55 58 55 55 65 64 61 56 44 41 64 60 64 65 75 83 96 83 44 40 40 36 47 33
73 71 70 72 72 72 78 80 79 77 80 70 54 43 42 57 41 48 44 49 47 53 62 56 58 60 63 79 76 72 69 38 42 48 84 85 80 85 76 79 74 53 41 39 46 34 33
67 66 67 69 73 74 73 83 81 79 82 82 73 69 59 49 47 42 45 45 51 54 59 53 58 70 80 80 79 71 66 51 50 51 78 82 91 89 81 79 89 46 48 44 38 29 29
67 66 65 69 74 81 77 80 88 82 82 89 85 79 80 68 58 57 54 49 47 47 51 48 53 61 63 82 79 73 66 63 58 60 47 62 57 74 70 67 44 41 36 31 31 27 29

GFSGBSN_850_rhum_120.txt.gz
RH
97 98 90 93 84 93 87 75 72 72 83 56 77 90 92 88 82 76 67 62 60 78 81 77 86 73 78 58 63 48 35 30 37 42 36 33 28 30 36 28 26 34 30 32 30 24 23
94 100 90 92 89 84 49 78 74 77 68 51 59 74 79 68 69 59 47 57 67 85 94 91 81 74 70 68 55 49 38 32 39 38 32 26 25 26 27 30 31 29 30 32 26 26 25
93 90 91 95 96 81 56 65 72 84 79 64 67 55 68 65 72 63 59 69 85 85 89 97 89 74 64 61 50 41 38 36 35 32 27 26 26 24 25 31 26 27 30 28 29 28 31
87 92 89 96 92 86 73 69 69 58 72 82 78 74 72 74 60 57 67 100 99 92 91 96 86 72 61 55 50 41 39 36 33 30 26 27 25 22 26 24 23 27 29 31 30 30 35
94 91 88 91 90 89 86 62 60 78 67 78 76 76 68 53 71 80 71 96 98 92 87 85 74 58 64 53 48 47 32 29 26 26 26 26 18 27 31 42 49 40 33 29 33 32 36
99 98 92 90 91 83 93 64 70 90 78 67 71 47 48 84 88 98 93 100 98 92 88 79 70 53 59 57 48 45 34 26 26 22 20 25 35 59 61 75 49 41 27 29 33 40 40
85 98 97 89 90 84 91 64 82 84 82 68 60 40 74 94 99 88 96 93 86 72 78 93 84 62 60 58 53 49 39 40 38 32 45 49 72 69 52 48 40 40 38 39 47 44 59
71 71 98 98 88 84 65 64 82 69 71 54 59 81 84 79 96 94 86 81 89 79 77 77 65 64 62 57 51 49 43 41 38 45 48 64 74 50 45 48 50 48 49 62 55 50 63
54 48 58 91 68 66 64 65 77 70 64 83 85 88 86 87 87 77 74 74 74 84 70 67 65 61 57 50 57 53 48 44 51 62 62 61 54 45 48 61 62 64 63 65 70 71 61
44 44 48 55 58 62 61 62 69 64 60 64 81 81 88 89 83 78 71 71 79 72 91 81 67 52 56 55 45 53 51 50 52 63 59 58 46 48 58 55 70 61 57 64 75 81 71
48 41 41 48 53 52 59 57 66 66 71 72 75 76 82 84 87 71 66 56 60 80 92 72 64 54 55 50 43 46 49 43 55 59 51 58 56 57 63 58 57 68 59 67 71 78 84
47 47 39 40 46 50 49 53 55 59 66 70 66 66 69 70 72 76 73 73 89 81 96 72 60 54 56 53 53 51 48 45 53 62 63 61 55 57 60 54 53 60 74 76 66 79 91
25 48 44 37 39 43 48 49 48 52 55 59 63 67 64 64 62 61 66 89 82 95 63 66 58 51 54 58 56 54 58 62 72 57 82 71 63 58 56 69 64 73 78 83 68 94 87
21 22 46 45 35 36 43 45 49 48 49 54 57 59 59 57 55 60 68 72 91 78 74 54 52 52 63 56 55 55 64 79 56 69 94 71 51 63 60 67 70 78 72 82 48 85 90
42 24 18 36 47 32 29 35 37 41 46 48 56 61 54 61 65 66 62 94 84 76 56 59 55 67 63 53 55 56 59 67 57 58 68 94 74 60 61 54 61 70 83 66 85 90 96
48 43 27 18 25 42 32 25 29 31 36 41 51 56 50 62 66 66 79 83 69 54 48 52 56 51 63 59 60 60 62 54 57 53 56 68 85 63 58 57 60 68 66 81 90 71 80
59 50 45 32 18 23 33 31 25 29 37 45 59 55 56 63 62 47 89 73 58 54 54 56 61 54 57 59 57 59 60 52 53 54 51 56 71 71 65 79 80 84 88 81 77 83 90
65 59 51 47 37 18 23 28 30 28 40 50 60 60 54 57 60 77 89 60 52 54 57 62 55 51 55 54 53 55 59 54 48 50 62 57 74 88 76 57 65 71 79 79 83 59 85
66 64 58 53 47 39 18 21 26 30 29 40 48 54 50 52 80 92 63 61 57 57 59 56 55 49 47 51 54 50 55 51 51 54 64 60 72 85 51 58 56 72 74 72 67 74 81
66 65 67 65 56 47 40 19 20 28 31 40 45 70 46 46 55 66 62 62 60 55 56 53 54 48 50 53 49 52 55 56 52 56 59 58 77 66 38 30 60 70 67 70 74 95 75
65 63 64 63 63 56 47 43 24 20 29 38 42 60 65 80 59 54 54 57 61 62 56 53 54 53 54 59 54 57 51 63 60 60 64 69 86 84 80 74 73 71 70 66 72 69 78
66 65 62 60 58 62 58 51 46 23 22 27 44 53 54 55 52 50 58 55 56 54 56 55 58 52 53 57 50 56 49 56 59 79 74 79 82 84 94 77 77 82 70 72 69 66 63
67 67 65 61 59 59 64 63 52 46 23 22 36 47 50 60 57 53 58 51 50 48 49 50 52 55 56 54 52 50 48 46 49 80 84 85 93 86 89 74 78 77 56 54 63 68 63
72 69 67 65 64 62 63 67 66 56 46 27 24 36 43 57 58 54 49 48 51 52 50 51 52 55 50 52 49 44 55 61 63 63 66 84 82 87 94 79 65 36 47 42 52 49 56
73 71 72 69 66 65 66 67 68 70 58 46 38 30 36 51 54 45 42 45 50 52 56 53 49 50 52 54 63 55 47 46 66 69 76 68 80 83 92 96 63 50 40 39 43 38 40
78 74 69 68 67 64 66 69 70 72 73 61 56 46 38 45 44 44 43 43 54 61 58 58 59 58 58 62 65 55 46 38 39 64 66 73 67 74 89 97 65 33 39 40 35 44 28
73 70 68 65 65 67 68 68 73 75 77 75 70 67 54 48 41 45 46 45 51 56 63 58 61 62 63 82 75 78 74 44 48 47 78 85 86 83 85 92 76 52 44 39 45 26 27
73 70 68 67 66 67 70 73 69 77 79 83 78 77 73 67 63 51 48 46 52 56 55 49 59 70 79 77 78 75 72 54 51 49 75 78 92 96 87 88 89 46 48 47 36 28 26
70 68 68 68 68 69 73 78 71 71 84 91 85 81 82 74 62 62 59 53 50 45 50 48 54 65 64 77 83 76 72 69 61 61 62 62 54 70 72 68 42 43 37 29 30 34 33

GFSGBSN_850_rhum_123.txt.gz
RH
91 93 89 84 80 76 76 70 80 93 96 90 87 90 86 87 76 72 66 64 69 75 88 84 70 87 71 52 57 42 31 42 42 40 44 39 31 30 36 28 28 35 34 33 28 23 23
82 94 92 80 77 59 74 58 81 74 74 68 66 68 63 72 64 56 57 61 78 75 76 95 89 72 53 63 48 41 30 39 40 36 34 27 27 26 28 32 32 31 33 31 25 24 27
89 90 92 85 79 65 87 60 57 63 68 68 48 75 70 72 58 62 60 87 99 86 81 84 80 81 50 56 44 43 37 37 36 31 26 26 25 23 26 31 28 27 28 28 30 29 32
88 90 90 91 92 76 46 60 76 66 67 67 64 70 63 55 71 73 78 86 94 99 100 84 76 68 59 50 43 39 35 36 31 27 25 25 23 21 26 23 26 26 29 26 29 31 36
96 91 87 94 86 86 54 83 84 78 74 71 59 49 56 74 80 97 100 94 95 99 93 84 72 67 57 49 41 35 33 31 29 26 26 24 17 29 31 41 45 38 31 28 31 33 37
98 95 85 94 85 66 75 83 86 66 64 48 51 86 90 97 88 90 96 96 95 92 86 72 62 50 54 53 46 37 27 25 24 24 19 22 30 57 63 68 45 32 26 29 31 46 46
99 99 98 96 82 63 72 69 68 62 57 48 77 84 93 81 95 98 88 85 75 74 66 73 66 64 62 53 45 39 33 28 24 26 51 45 70 68 55 50 40 40 40 37 44 53 61
64 93 96 98 95 64 66 50 44 43 78 85 82 84 95 92 89 85 78 74 91 93 75 66 59 58 58 53 45 46 40 35 33 57 44 60 72 51 48 54 52 48 45 51 54 52 65
48 58 68 70 81 80 71 57 46 52 68 74 78 79 83 82 80 79 68 74 83 81 81 68 63 56 56 49 56 52 46 44 53 62 61 56 53 47 50 63 60 64 55 62 67 74 62
40 45 52 56 56 58 68 66 49 64 75 81 85 84 74 64 66 68 66 67 70 75 91 83 62 52 53 49 50 51 48 48 53 59 58 58 47 49 53 59 67 50 60 66 75 79 65
35 38 44 50 52 52 58 64 68 74 75 70 69 81 81 55 57 54 61 48 50 64 92 69 62 53 53 44 47 46 46 44 59 63 42 52 56 60 60 58 61 65 61 68 73 80 85
44 36 36 43 49 50 52 56 65 74 70 61 57 59 65 62 58 56 60 66 67 78 95 72 59 54 54 54 53 50 46 46 52 60 66 65 56 59 60 56 57 63 74 74 78 84 84
16 39 37 33 41 46 46 48 54 61 67 63 62 62 62 62 63 58 60 72 82 94 62 65 59 54 60 61 58 55 59 63 68 52 77 67 64 59 58 72 67 73 69 72 62 82 69
30 17 26 42 31 34 42 47 48 49 52 60 63 67 66 66 62 61 68 71 94 84 76 55 53 56 63 57 56 58 63 78 59 69 92 68 52 64 58 68 70 76 67 73 43 67 83
46 35 20 18 36 34 28 31 38 39 45 52 57 62 67 66 70 72 67 91 82 77 57 60 57 63 63 54 58 58 62 69 59 62 58 87 69 60 62 58 61 73 85 65 84 92 95
52 48 39 25 18 29 30 24 29 35 36 42 50 62 67 66 77 80 80 84 72 61 51 53 56 54 63 61 62 62 64 55 57 55 59 68 75 65 59 58 64 68 66 75 89 57 68
59 53 49 43 30 19 25 26 28 31 38 44 57 61 64 74 73 56 90 76 61 58 56 56 62 59 58 62 59 64 63 54 56 57 54 64 68 71 68 78 80 84 87 82 77 81 85
65 63 59 50 44 32 20 26 27 28 40 50 56 61 58 64 58 78 89 60 53 56 58 61 55 52 55 55 56 58 57 56 52 52 64 60 74 86 76 59 64 72 80 81 80 62 89
69 67 65 62 50 45 35 22 28 30 30 39 48 51 51 50 77 93 66 64 57 58 59 57 57 53 49 53 54 52 55 54 53 55 62 60 70 78 41 55 69 79 80 76 69 75 83
64 64 62 61 61 54 50 40 21 30 36 47 44 69 45 45 57 68 66 64 63 58 57 54 55 50 51 54 51 53 56 57 54 58 60 59 76 63 39 26 60 79 72 81 75 96 81
62 61 59 58 56 57 58 50 41 21 33 39 37 65 64 78 63 60 56 61 62 61 58 55 56 54 54 59 56 58 54 64 62 63 67 69 81 85 80 77 71 65 64 71 88 76 83
66 62 61 59 58 56 56 57 51 36 22 28 42 50 53 58 54 52 61 58 57 56 55 55 58 54 57 59 56 59 52 61 58 79 74 81 84 86 98 80 82 86 78 77 71 65 67
72 68 63 61 61 58 57 57 56 51 33 23 33 44 48 64 60 50 58 54 52 50 50 52 55 56 57 58 50 48 48 47 50 78 84 89 94 87 88 76 79 72 61 64 72 75 69
76 71 68 65 62 59 60 60 59 60 53 43 35 42 37 55 58 56 52 50 51 53 50 53 55 55 49 53 51 51 58 62 67 68 70 90 86 89 96 78 49 31 44 49 57 57 63
72 69 69 65 64 62 61 63 64 62 62 58 54 44 40 43 53 45 44 48 49 53 58 56 53 53 54 55 62 52 43 53 73 71 78 77 83 84 92 97 61 41 39 53 50 40 45
74 73 71 67 65 64 65 65 65 67 67 65 64 62 52 48 52 40 43 44 51 57 56 58 60 61 58 66 70 50 46 36 43 71 79 80 72 79 90 93 58 27 38 40 33 46 29
75 71 69 68 65 64 65 68 70 67 70 73 74 72 65 57 49 44 49 42 48 58 60 57 62 64 61 81 71 74 70 49 48 48 88 90 90 92 87 91 76 55 41 37 39 25 24
74 72 68 66 67 67 67 68 71 70 67 72 80 82 83 77 65 60 53 48 56 53 54 50 59 70 82 80 78 76 77 63 54 46 75 84 94 96 88 96 89 46 50 45 35 28 28
72 70 69 68 67 69 68 69 73 73 70 68 79 87 89 84 67 63 58 51 49 51 50 50 52 65 61 79 87 85 81 78 66 62 63 62 59 80 78 72 45 41 38 31 35 40 38

GFSGBSN_850_rhum_126.txt.gz
RH
88 87 83 89 76 77 78 94 90 53 81 93 83 83 81 78 73 62 64 66 71 86 88 90 81 78 61 41 48 38 39 44 44 49 48 36 35 28 35 30 30 38 36 32 27 21 24
92 91 85 83 78 79 53 62 70 82 95 89 64 59 69 80 72 63 69 78 81 86 77 82 76 63 51 57 45 41 40 42 38 43 38 29 26 25 28 33 33 34 32 29 24 24 29
93 90 91 99 76 55 85 82 74 66 87 64 66 63 58 58 65 68 93 90 94 91 94 91 73 53 43 54 47 42 39 38 33 35 29 26 23 23 26 32 29 26 25 28 32 30 34
90 89 84 95 97 77 83 82 63 66 59 59 52 71 75 77 70 93 98 98 98 95 88 81 81 58 55 51 43 39 37 32 28 26 25 23 22 21 25 25 25 25 26 19 30 31 38
90 87 80 58 82 87 85 65 64 45 45 69 79 86 76 98 98 100 100 100 98 87 89 85 73 56 53 45 37 35 35 30 26 25 24 18 16 29 26 38 40 33 22 24 29 42 41
89 93 84 60 68 89 97 58 56 43 72 82 83 96 74 92 100 95 96 96 99 93 92 76 74 55 48 49 42 31 30 28 26 24 19 18 26 56 64 65 45 24 25 29 30 50 56
56 88 89 76 58 52 58 53 50 68 83 89 83 84 85 86 77 89 86 88 73 74 69 77 66 65 58 50 44 37 29 24 22 24 44 41 71 73 59 53 40 38 38 33 39 59 62
46 50 74 92 66 49 45 44 84 84 83 79 78 84 83 86 82 75 73 77 87 74 66 58 56 54 54 47 41 40 30 26 37 58 42 59 73 52 52 54 50 45 37 42 48 56 66
44 46 51 56 66 47 46 58 68 78 81 81 80 77 79 81 76 70 70 72 81 73 63 59 54 54 54 46 53 49 42 43 50 59 59 52 53 49 51 60 55 64 46 58 64 74 64
39 43 45 50 55 58 50 60 67 73 82 83 75 65 70 71 65 74 65 65 63 64 85 73 61 51 46 46 50 48 46 46 53 53 57 61 49 53 50 66 63 40 62 68 76 77 58
38 37 42 43 50 55 57 61 62 63 72 77 79 77 59 58 59 59 64 58 59 68 92 65 60 52 50 47 48 45 46 41 62 64 40 54 59 63 61 62 62 60 63 70 76 84 84
41 40 34 40 44 46 54 60 59 59 59 70 73 67 64 57 54 56 58 69 71 78 93 69 57 56 53 54 53 48 46 43 51 58 66 65 58 61 60 59 60 65 74 66 82 85 80
18 26 43 36 32 41 45 49 59 62 62 62 63 65 67 69 64 59 60 70 81 93 61 61 61 56 62 63 58 56 60 65 61 50 71 61 61 60 60 71 68 70 64 69 57 73 64
38 24 19 31 39 32 29 37 45 49 52 54 56 60 65 70 69 66 63 68 89 85 78 55 56 57 66 60 59 61 60 78 63 63 88 63 48 63 59 68 68 79 63 73 36 62 66
50 44 33 20 23 33 31 26 30 36 45 51 54 60 66 66 72 72 60 91 82 77 59 62 57 60 63 58 60 61 65 66 60 62 49 75 66 63 62 61 61 74 86 64 84 91 94
56 53 47 40 27 23 30 27 29 34 35 43 49 59 70 74 67 64 79 85 74 61 54 52 55 54 63 63 63 62 66 56 57 58 58 63 68 66 61 59 67 70 67 76 85 45 49
66 64 55 48 44 34 24 30 27 32 40 44 54 65 74 70 54 50 89 76 63 61 58 56 60 61 58 63 61 66 60 54 56 60 57 71 64 72 71 78 79 88 88 85 73 73 79
66 65 65 59 53 50 43 23 30 28 38 51 56 69 68 75 59 79 88 60 54 57 59 60 56 53 57 60 60 63 61 58 54 54 63 63 73 86 74 63 65 71 78 78 75 60 90
68 65 64 62 63 60 52 44 25 30 32 40 50 56 60 61 74 92 69 66 57 60 60 59 57 52 51 57 58 55 58 56 54 58 66 61 68 69 40 52 73 80 81 77 71 73 85
68 66 65 62 59 58 57 52 37 27 38 48 42 68 50 50 61 68 64 64 64 60 58 56 56 52 52 55 54 55 57 59 58 58 61 59 75 52 35 24 60 82 81 86 76 95 81
66 65 65 64 61 56 56 55 50 29 29 38 37 67 63 74 65 63 58 61 61 57 59 56 55 55 54 58 58 59 56 66 63 67 69 69 76 84 78 75 67 63 63 80 91 74 76
70 68 65 64 62 59 55 56 54 45 26 28 41 49 53 61 58 54 60 60 58 58 56 55 58 56 57 57 55 51 57 63 60 80 73 83 81 87 97 81 86 90 81 77 69 69 78
70 71 69 65 63 60 57 56 55 54 48 34 34 46 50 66 62 50 58 61 59 52 52 53 56 58 59 59 53 51 50 52 53 78 83 87 92 87 85 76 80 70 64 67 77 78 69
75 70 66 64 63 62 61 58 58 56 55 54 51 39 37 56 61 54 55 52 57 55 50 54 55 56 47 53 51 54 57 63 66 66 73 92 86 89 96 78 51 29 41 54 68 62 71
75 72 71 68 65 62 59 61 63 61 60 58 58 56 47 47 52 48 48 50 51 53 60 56 54 52 52 52 61 50 42 52 77 74 80 78 84 82 91 98 61 28 44 54 53 41 44
76 73 72 69 68 65 64 62 65 66 62 62 63 64 59 54 60 41 44 45 52 55 56 58 60 60 60 65 65 48 46 36 50 76 85 84 77 76 92 93 54 26 38 41 34 38 28
80 76 72 70 68 68 68 67 66 67 67 65 67 67 67 65 56 47 49 46 45 56 57 58 67 69 64 77 66 71 68 52 51 54 92 96 94 95 92 90 78 56 43 40 39 33 28
80 76 74 71 68 67 70 71 70 70 68 67 69 70 72 72 64 68 57 51 54 54 53 53 63 67 80 72 72 73 74 67 55 49 82 87 96 94 86 90 85 50 51 42 34 34 37
80 76 71 71 68 71 71 73 74 74 75 72 74 72 73 73 64 65 70 63 57 53 50 55 52 65 65 76 84 84 78 83 70 62 64 58 63 82 78 71 46 45 40 37 41 44 43

GFSGBSN_850_rhum_129.txt.gz
RH
94 99 92 92 77 75 82 74 62 89 90 66 66 71 80 82 71 68 69 72 84 99 99 86 82 71 56 35 48 40 46 44 48 55 48 46 41 29 35 32 33 42 37 30 25 22 24
99 99 99 77 82 84 76 83 74 61 50 58 60 66 80 73 67 76 71 80 90 90 94 87 74 60 44 54 44 42 42 41 49 50 37 38 35 27 28 33 34 34 30 27 24 26 31
87 95 98 98 84 85 74 62 56 52 58 79 69 68 73 66 82 84 87 89 84 85 84 74 56 44 37 53 44 38 35 34 41 46 30 26 24 22 25 34 28 24 26 28 33 30 37
87 98 88 92 85 89 59 46 44 73 88 79 68 69 74 100 96 93 86 92 90 79 84 81 64 46 54 46 42 35 31 28 29 30 24 22 21 20 25 26 23 23 23 20 33 36 36
95 93 73 76 93 98 54 43 67 90 87 84 77 90 90 96 93 94 90 92 88 84 77 76 63 47 48 42 38 34 30 28 25 23 20 18 16 25 25 34 37 29 20 20 30 57 45
85 72 92 52 54 84 80 57 80 88 83 94 81 99 94 92 99 95 95 91 88 93 86 75 77 43 44 49 37 33 29 27 25 20 16 16 24 53 62 60 47 21 25 29 27 49 59
83 56 54 56 43 43 72 90 84 81 91 91 95 89 88 92 87 93 83 75 68 75 75 79 64 65 57 48 42 32 26 24 22 21 40 39 69 71 59 51 36 34 34 30 40 60 62
50 56 53 46 40 49 53 72 73 79 86 87 84 86 84 82 76 82 70 65 81 72 64 56 55 54 50 46 35 32 23 23 32 49 39 60 71 54 56 51 46 39 31 36 44 55 63
44 47 50 52 47 51 60 69 78 74 80 84 86 84 76 77 72 70 64 72 75 66 52 57 51 52 51 42 51 46 36 37 46 60 59 54 54 50 51 57 50 63 41 54 57 71 65
34 42 44 49 52 51 56 58 70 70 72 70 70 72 70 78 64 60 61 56 58 56 83 70 55 48 45 44 47 48 43 40 52 54 60 65 52 49 52 68 56 33 64 70 77 73 51
41 34 38 43 46 52 53 54 62 66 65 68 60 58 56 61 72 63 60 59 66 62 90 55 57 49 48 44 42 45 45 39 63 62 40 55 60 57 56 63 62 59 64 76 78 82 81
18 31 40 34 38 46 49 54 56 61 60 60 64 64 63 53 54 58 54 60 55 77 90 65 56 57 49 54 54 46 43 38 50 55 64 65 60 63 61 64 65 66 74 65 74 79 72
34 22 21 32 36 30 35 46 48 52 60 63 61 62 65 67 64 64 62 66 80 90 60 61 61 57 63 66 61 57 61 69 55 50 65 55 57 60 62 72 70 63 58 66 55 70 57
48 40 29 23 26 32 29 27 35 43 48 53 58 62 66 67 67 65 61 69 88 85 76 56 57 58 68 62 64 64 56 78 68 59 80 59 47 61 60 69 67 80 58 68 33 52 53
57 50 44 37 29 27 30 25 28 31 38 46 50 56 72 72 71 68 54 90 82 78 60 64 54 59 63 59 62 63 66 64 61 60 47 66 66 64 63 64 61 76 82 61 80 91 82
67 60 53 51 48 39 26 29 29 34 35 38 44 56 74 75 61 64 79 84 74 60 57 52 54 53 62 65 62 59 61 57 60 60 56 59 71 68 65 61 71 68 67 69 76 44 42
66 65 64 64 60 51 42 26 31 32 41 46 53 58 68 66 54 53 90 77 68 63 58 55 58 62 60 65 63 68 60 58 56 63 60 70 58 74 72 76 81 88 86 82 67 61 57
65 64 61 57 58 58 52 37 29 30 34 48 52 69 51 51 55 77 88 63 55 60 62 60 55 56 58 62 63 64 60 57 56 57 64 64 69 88 71 67 66 73 76 73 66 54 85
65 63 62 59 55 54 54 49 26 34 37 43 48 54 49 39 74 93 69 67 59 60 60 60 58 53 52 59 59 57 58 58 57 59 68 63 62 60 40 51 74 81 81 76 67 69 84
66 63 63 62 58 55 52 51 38 26 41 46 38 69 49 47 62 69 66 65 67 61 60 59 57 52 54 57 56 59 62 61 59 58 61 58 71 44 32 24 62 82 86 85 72 89 75
71 68 65 62 58 55 54 50 49 34 28 38 36 69 62 76 69 63 59 62 64 63 61 58 58 55 54 61 61 61 58 70 65 72 71 67 70 82 74 72 63 60 62 86 89 71 63
72 71 68 64 60 56 55 55 50 49 35 29 40 47 55 63 59 55 62 61 57 61 59 57 55 57 59 55 50 60 63 68 64 81 74 83 78 87 96 77 82 89 79 73 69 74 77
73 71 67 62 61 60 55 53 54 50 48 47 38 43 45 70 61 46 53 58 55 54 53 54 55 61 61 60 52 50 48 51 53 79 84 85 88 85 82 73 76 60 66 71 78 76 66
78 75 67 63 61 61 59 57 54 53 53 51 50 40 32 54 58 52 54 54 55 57 54 57 58 57 53 55 55 56 60 67 66 73 74 93 84 88 94 73 47 28 45 55 69 65 70
75 76 73 68 64 63 61 61 60 56 53 56 57 55 50 52 53 47 47 48 50 51 58 57 57 57 56 54 60 48 44 56 81 84 78 79 83 84 89 95 58 33 52 59 53 37 51
79 77 75 72 69 67 65 64 63 62 60 57 56 58 58 56 62 40 44 47 54 53 51 55 62 62 58 64 63 48 48 37 68 85 88 84 79 76 92 92 48 25 36 41 37 42 30
84 80 76 74 71 69 68 68 66 64 64 61 62 60 60 63 58 45 50 50 45 54 56 57 67 70 62 75 63 65 68 52 51 66 98 96 93 93 90 93 77 55 41 42 42 40 37
94 82 80 76 72 70 70 70 68 67 66 65 66 63 64 66 61 64 59 51 53 54 57 54 67 70 79 73 70 67 75 63 60 53 84 93 94 90 76 86 86 49 49 40 44 45 47
96 89 84 79 75 72 76 75 73 72 71 64 62 60 61 61 65 65 67 66 62 56 52 59 52 58 60 74 82 81 79 85 70 59 65 61 67 84 79 73 49 49 47 44 50 53 50

GFSGBSN_850_rhum_132.txt.gz
RH
87 98 97 85 84 82 52 48 56 71 93 66 71 74 82 76 81 73 73 72 81 100 98 95 80 67 66 44 49 45 45 43 49 54 55 48 38 31 29 29 32 33 31 27 28 28 27
98 98 91 83 90 61 46 47 91 97 84 80 78 74 69 77 82 80 83 90 94 98 85 77 76 67 39 42 43 43 42 47 54 50 50 46 34 29 29 30 29 32 27 25 26 28 33
96 93 96 83 63 45 42 72 90 98 90 80 88 83 85 92 83 84 89 88 97 86 81 67 59 42 44 52 39 35 38 48 48 39 43 41 26 25 29 29 28 24 24 24 28 29 30
98 89 63 80 84 55 67 84 81 76 95 91 86 89 90 92 87 86 84 87 90 86 72 81 59 36 52 43 36 33 34 41 41 29 31 24 22 21 30 27 19 17 17 23 30 34 31
97 99 55 45 58 63 76 84 77 87 92 95 91 82 89 90 96 87 82 85 79 74 71 65 53 40 46 40 35 31 28 26 24 21 19 18 17 28 26 21 24 18 22 18 28 46 41
63 99 72 50 44 73 83 77 84 92 91 88 88 85 87 92 92 91 80 78 79 69 60 52 44 39 42 49 35 30 28 24 21 19 17 17 27 28 30 34 50 20 18 21 19 36 37
49 53 72 51 54 59 70 76 73 86 90 90 88 82 86 88 86 83 75 73 69 64 50 70 64 62 51 41 36 30 26 24 20 26 23 38 62 51 39 31 21 21 20 20 29 43 44
42 48 50 49 53 62 72 76 75 80 83 88 86 80 82 85 88 79 70 67 82 63 65 53 53 52 47 39 36 28 24 28 30 31 33 41 56 46 43 36 30 26 23 26 29 44 43
37 41 46 52 52 57 66 72 71 78 80 84 77 76 77 74 66 55 60 66 74 60 52 58 49 48 48 43 52 46 31 36 35 41 33 33 45 46 39 35 36 42 34 38 45 46 46
39 35 39 45 53 54 59 66 66 68 66 65 65 72 67 58 56 59 53 57 59 51 76 67 48 42 44 41 45 45 40 38 42 41 46 46 47 39 40 54 43 30 55 56 58 47 40
20 32 40 35 44 50 56 60 62 62 64 61 53 59 65 66 68 58 56 57 67 59 85 47 50 46 47 45 44 43 40 40 43 48 41 53 50 40 45 59 51 50 56 61 63 56 54
34 22 22 32 36 36 46 51 58 58 59 63 64 56 54 57 65 55 52 55 49 81 84 55 52 51 41 48 50 44 43 33 50 40 46 57 60 55 53 59 56 58 61 56 57 57 67
46 42 32 27 29 34 33 35 43 49 52 55 59 63 64 64 56 59 56 60 90 84 54 54 54 50 51 52 47 46 48 47 46 80 89 43 50 56 59 56 61 56 48 68 63 78 46
52 48 48 47 39 30 29 28 31 39 47 53 55 59 69 66 64 62 58 50 88 73 60 53 52 50 52 52 51 46 43 49 51 35 52 58 61 51 55 59 53 56 44 58 43 37 30
59 61 60 58 52 44 29 29 31 34 36 43 46 57 71 75 70 62 52 88 82 59 52 53 45 44 53 51 45 44 47 46 51 46 38 60 65 58 57 58 56 57 56 42 64 73 62
56 57 58 58 59 54 39 31 29 38 38 38 46 56 63 55 54 52 63 72 61 54 52 48 39 44 43 48 44 40 43 51 54 56 51 37 69 61 61 60 62 60 47 52 55 48 33
59 56 54 52 55 55 49 28 30 34 44 47 54 66 56 53 48 56 88 70 61 63 59 46 46 47 48 51 49 48 43 52 47 55 52 45 42 66 64 61 50 62 58 58 45 36 33
57 60 57 53 51 53 52 34 29 32 36 51 53 64 48 47 59 62 69 56 57 59 64 55 48 48 46 52 51 48 43 45 52 52 52 53 45 61 52 58 56 59 52 43 32 39 48
62 58 58 56 50 49 50 46 28 37 41 45 45 48 47 37 63 68 62 59 58 56 57 54 53 49 48 50 49 50 51 58 58 51 50 50 44 40 35 51 60 61 56 52 44 41 48
65 62 56 55 54 48 47 47 44 29 37 36 36 69 45 42 55 47 50 57 60 64 58 58 54 50 48 50 49 52 54 59 60 57 60 50 46 35 20 21 43 57 60 59 47 58 29
62 67 60 52 54 51 48 47 46 42 31 36 35 61 55 62 50 51 50 54 56 55 60 58 52 48 45 47 50 51 52 61 63 73 65 54 53 60 46 43 40 39 37 58 64 47 40
60 66 66 56 50 52 50 47 46 46 42 34 41 49 53 61 61 48 53 52 49 56 53 50 52 49 51 44 40 44 49 54 52 72 60 66 63 69 80 55 60 64 52 50 47 48 45
59 64 66 61 55 52 51 50 45 46 45 47 39 38 40 66 52 38 43 53 50 52 58 54 51 51 54 52 54 54 51 52 49 58 62 64 66 71 54 55 52 42 35 43 49 49 45
59 65 64 62 60 59 54 53 50 45 45 50 49 43 35 46 43 38 52 55 54 54 46 57 58 49 49 54 53 53 58 63 60 66 63 67 65 67 70 49 45 29 37 38 46 42 45
59 67 68 65 64 63 61 58 55 53 50 47 47 52 48 45 46 45 49 48 53 54 58 55 60 56 53 55 46 42 35 51 65 70 65 66 55 56 65 56 34 34 46 46 43 34 36
72 73 71 69 67 67 65 63 61 57 55 53 51 50 55 55 49 36 41 46 42 40 44 61 64 62 60 52 46 36 31 32 50 73 73 69 63 53 60 62 39 24 35 40 35 36 37
93 83 78 73 70 69 68 67 65 61 59 56 57 53 54 60 56 44 45 46 44 48 41 56 72 70 62 51 43 40 42 43 39 50 79 82 76 73 61 64 47 41 41 42 42 43 46
100 95 84 77 73 70 70 68 67 66 65 60 58 56 55 59 58 56 56 49 50 50 46 58 62 68 66 57 50 48 50 45 47 42 66 66 76 73 68 74 74 49 46 42 47 50 49
98 100 97 88 78 71 70 73 74 73 70 66 58 56 52 53 66 65 68 63 59 56 52 55 57 59 60 53 57 55 56 60 48 43 55 51 44 54 52 50 44 51 48 49 48 51 56